<?xml version="1.0" encoding="UTF-8" standalone="no" ?>
<gpx xmlns="http://www.topografix.com/GPX/1/1" xmlns:xsi="http://www.w3.org/2001/XMLSchema-instance" xsi:schemaLocation="http://www.topografix.com/GPX/1/1 http://www.topografix.com/GPX/1/1/gpx.xsd" version="1.1" creator="VisuGPX - https://www.visugpx.com">
  <metadata>
    <name>Jas du Lièvre et Bedina</name>
    <desc><![CDATA[

]]></desc>
  </metadata>
  <trk>
    <name><![CDATA[Jas du Lièvre et Bedina]]></name>
    <extensions>
      <line xmlns="http://www.topografix.com/GPX/gpx_style/0/2">
        <color>0000FF</color>
        <width>4</width>
      </line>
    </extensions>
    <trkseg>
      <trkpt lat="45.22922" lon="5.99158">
        <ele>1281.4449462891</ele>
        <time>2017-03-17T07:27:16Z</time>
      </trkpt>
      <trkpt lat="45.22925" lon="5.99152">
        <ele>1270.4449462891</ele>
        <time>2017-03-17T07:27:23Z</time>
      </trkpt>
      <trkpt lat="45.22923" lon="5.99159">
        <ele>1268.4449462891</ele>
        <time>2017-03-17T07:28:11Z</time>
      </trkpt>
      <trkpt lat="45.22918" lon="5.99162">
        <ele>1269.4449462891</ele>
        <time>2017-03-17T07:28:15Z</time>
      </trkpt>
      <trkpt lat="45.22913" lon="5.99166">
        <ele>1270.4449462891</ele>
        <time>2017-03-17T07:28:19Z</time>
      </trkpt>
      <trkpt lat="45.22909" lon="5.9917">
        <ele>1269.4449462891</ele>
        <time>2017-03-17T07:28:22Z</time>
      </trkpt>
      <trkpt lat="45.22905" lon="5.99176">
        <ele>1268.4449462891</ele>
        <time>2017-03-17T07:28:26Z</time>
      </trkpt>
      <trkpt lat="45.22901" lon="5.9918">
        <ele>1267.4449462891</ele>
        <time>2017-03-17T07:28:30Z</time>
      </trkpt>
      <trkpt lat="45.22897" lon="5.99185">
        <ele>1266.4449462891</ele>
        <time>2017-03-17T07:28:34Z</time>
      </trkpt>
      <trkpt lat="45.22894" lon="5.9919">
        <ele>1268.4449462891</ele>
        <time>2017-03-17T07:28:37Z</time>
      </trkpt>
      <trkpt lat="45.22889" lon="5.99195">
        <ele>1268.4449462891</ele>
        <time>2017-03-17T07:28:41Z</time>
      </trkpt>
      <trkpt lat="45.22886" lon="5.992">
        <ele>1268.4449462891</ele>
        <time>2017-03-17T07:28:45Z</time>
      </trkpt>
      <trkpt lat="45.22883" lon="5.99206">
        <ele>1270.4449462891</ele>
        <time>2017-03-17T07:28:49Z</time>
      </trkpt>
      <trkpt lat="45.22879" lon="5.99211">
        <ele>1270.4449462891</ele>
        <time>2017-03-17T07:28:52Z</time>
      </trkpt>
      <trkpt lat="45.22875" lon="5.99216">
        <ele>1267.4449462891</ele>
        <time>2017-03-17T07:28:56Z</time>
      </trkpt>
      <trkpt lat="45.22872" lon="5.99222">
        <ele>1267.4449462891</ele>
        <time>2017-03-17T07:28:59Z</time>
      </trkpt>
      <trkpt lat="45.22869" lon="5.99227">
        <ele>1267.4449462891</ele>
        <time>2017-03-17T07:29:02Z</time>
      </trkpt>
      <trkpt lat="45.22866" lon="5.99233">
        <ele>1268.4449462891</ele>
        <time>2017-03-17T07:29:06Z</time>
      </trkpt>
      <trkpt lat="45.22862" lon="5.99237">
        <ele>1268.4449462891</ele>
        <time>2017-03-17T07:29:09Z</time>
      </trkpt>
      <trkpt lat="45.22857" lon="5.99245">
        <ele>1268.4449462891</ele>
        <time>2017-03-17T07:29:14Z</time>
      </trkpt>
      <trkpt lat="45.22854" lon="5.99251">
        <ele>1269.4449462891</ele>
        <time>2017-03-17T07:29:18Z</time>
      </trkpt>
      <trkpt lat="45.2285" lon="5.99256">
        <ele>1274.4449462891</ele>
        <time>2017-03-17T07:29:24Z</time>
      </trkpt>
      <trkpt lat="45.22847" lon="5.99261">
        <ele>1274.4449462891</ele>
        <time>2017-03-17T07:29:28Z</time>
      </trkpt>
      <trkpt lat="45.22844" lon="5.99267">
        <ele>1274.4449462891</ele>
        <time>2017-03-17T07:29:32Z</time>
      </trkpt>
      <trkpt lat="45.2284" lon="5.9927">
        <ele>1276.4449462891</ele>
        <time>2017-03-17T07:29:36Z</time>
      </trkpt>
      <trkpt lat="45.22835" lon="5.99275">
        <ele>1276.4449462891</ele>
        <time>2017-03-17T07:29:39Z</time>
      </trkpt>
      <trkpt lat="45.22831" lon="5.99279">
        <ele>1278.4449462891</ele>
        <time>2017-03-17T07:29:44Z</time>
      </trkpt>
      <trkpt lat="45.22826" lon="5.99282">
        <ele>1275.4449462891</ele>
        <time>2017-03-17T07:29:47Z</time>
      </trkpt>
      <trkpt lat="45.22821" lon="5.99283">
        <ele>1273.4449462891</ele>
        <time>2017-03-17T07:29:50Z</time>
      </trkpt>
      <trkpt lat="45.22815" lon="5.99286">
        <ele>1275.4449462891</ele>
        <time>2017-03-17T07:29:54Z</time>
      </trkpt>
      <trkpt lat="45.2281" lon="5.99289">
        <ele>1275.4449462891</ele>
        <time>2017-03-17T07:29:58Z</time>
      </trkpt>
      <trkpt lat="45.22805" lon="5.99292">
        <ele>1276.4449462891</ele>
        <time>2017-03-17T07:30:02Z</time>
      </trkpt>
      <trkpt lat="45.228" lon="5.99297">
        <ele>1274.4449462891</ele>
        <time>2017-03-17T07:30:06Z</time>
      </trkpt>
      <trkpt lat="45.22794" lon="5.99297">
        <ele>1276.4449462891</ele>
        <time>2017-03-17T07:30:10Z</time>
      </trkpt>
      <trkpt lat="45.2279" lon="5.99303">
        <ele>1278.4449462891</ele>
        <time>2017-03-17T07:30:15Z</time>
      </trkpt>
      <trkpt lat="45.22788" lon="5.9931">
        <ele>1279.4449462891</ele>
        <time>2017-03-17T07:30:19Z</time>
      </trkpt>
      <trkpt lat="45.22784" lon="5.99315">
        <ele>1278.4449462891</ele>
        <time>2017-03-17T07:30:23Z</time>
      </trkpt>
      <trkpt lat="45.2278" lon="5.9932">
        <ele>1279.4449462891</ele>
        <time>2017-03-17T07:30:28Z</time>
      </trkpt>
      <trkpt lat="45.22776" lon="5.99323">
        <ele>1279.4449462891</ele>
        <time>2017-03-17T07:30:32Z</time>
      </trkpt>
      <trkpt lat="45.22772" lon="5.99327">
        <ele>1280.4449462891</ele>
        <time>2017-03-17T07:30:35Z</time>
      </trkpt>
      <trkpt lat="45.22768" lon="5.99333">
        <ele>1279.4449462891</ele>
        <time>2017-03-17T07:30:40Z</time>
      </trkpt>
      <trkpt lat="45.22765" lon="5.99338">
        <ele>1282.4449462891</ele>
        <time>2017-03-17T07:30:45Z</time>
      </trkpt>
      <trkpt lat="45.22761" lon="5.99343">
        <ele>1283.4449462891</ele>
        <time>2017-03-17T07:30:48Z</time>
      </trkpt>
      <trkpt lat="45.22757" lon="5.99352">
        <ele>1282.4449462891</ele>
        <time>2017-03-17T07:30:53Z</time>
      </trkpt>
      <trkpt lat="45.22753" lon="5.99357">
        <ele>1283.4449462891</ele>
        <time>2017-03-17T07:30:58Z</time>
      </trkpt>
      <trkpt lat="45.2275" lon="5.99362">
        <ele>1282.4449462891</ele>
        <time>2017-03-17T07:31:02Z</time>
      </trkpt>
      <trkpt lat="45.22745" lon="5.99368">
        <ele>1282.4449462891</ele>
        <time>2017-03-17T07:31:06Z</time>
      </trkpt>
      <trkpt lat="45.22739" lon="5.99372">
        <ele>1284.4449462891</ele>
        <time>2017-03-17T07:31:08Z</time>
      </trkpt>
      <trkpt lat="45.22735" lon="5.99378">
        <ele>1287.4449462891</ele>
        <time>2017-03-17T07:31:13Z</time>
      </trkpt>
      <trkpt lat="45.22731" lon="5.99382">
        <ele>1287.4449462891</ele>
        <time>2017-03-17T07:31:16Z</time>
      </trkpt>
      <trkpt lat="45.22727" lon="5.99386">
        <ele>1287.4449462891</ele>
        <time>2017-03-17T07:31:21Z</time>
      </trkpt>
      <trkpt lat="45.22721" lon="5.99387">
        <ele>1290.4449462891</ele>
        <time>2017-03-17T07:31:24Z</time>
      </trkpt>
      <trkpt lat="45.22719" lon="5.99393">
        <ele>1287.4449462891</ele>
        <time>2017-03-17T07:31:27Z</time>
      </trkpt>
      <trkpt lat="45.22714" lon="5.99397">
        <ele>1287.4449462891</ele>
        <time>2017-03-17T07:31:30Z</time>
      </trkpt>
      <trkpt lat="45.22709" lon="5.99399">
        <ele>1289.4449462891</ele>
        <time>2017-03-17T07:31:34Z</time>
      </trkpt>
      <trkpt lat="45.22705" lon="5.99399">
        <ele>1291.4449462891</ele>
        <time>2017-03-17T07:31:38Z</time>
      </trkpt>
      <trkpt lat="45.227" lon="5.99399">
        <ele>1292.4449462891</ele>
        <time>2017-03-17T07:31:41Z</time>
      </trkpt>
      <trkpt lat="45.22695" lon="5.99404">
        <ele>1296.4449462891</ele>
        <time>2017-03-17T07:31:46Z</time>
      </trkpt>
      <trkpt lat="45.2269" lon="5.99407">
        <ele>1297.4449462891</ele>
        <time>2017-03-17T07:31:48Z</time>
      </trkpt>
      <trkpt lat="45.22686" lon="5.99411">
        <ele>1295.4449462891</ele>
        <time>2017-03-17T07:31:52Z</time>
      </trkpt>
      <trkpt lat="45.22682" lon="5.99414">
        <ele>1294.4449462891</ele>
        <time>2017-03-17T07:31:56Z</time>
      </trkpt>
      <trkpt lat="45.22679" lon="5.9942">
        <ele>1296.4449462891</ele>
        <time>2017-03-17T07:31:59Z</time>
      </trkpt>
      <trkpt lat="45.22673" lon="5.9942">
        <ele>1298.4449462891</ele>
        <time>2017-03-17T07:32:04Z</time>
      </trkpt>
      <trkpt lat="45.22669" lon="5.99425">
        <ele>1295.4449462891</ele>
        <time>2017-03-17T07:32:08Z</time>
      </trkpt>
      <trkpt lat="45.22664" lon="5.99426">
        <ele>1295.4449462891</ele>
        <time>2017-03-17T07:32:12Z</time>
      </trkpt>
      <trkpt lat="45.22659" lon="5.9943">
        <ele>1298.4449462891</ele>
        <time>2017-03-17T07:32:17Z</time>
      </trkpt>
      <trkpt lat="45.22654" lon="5.9943">
        <ele>1296.4449462891</ele>
        <time>2017-03-17T07:32:21Z</time>
      </trkpt>
      <trkpt lat="45.2265" lon="5.99433">
        <ele>1295.4449462891</ele>
        <time>2017-03-17T07:32:24Z</time>
      </trkpt>
      <trkpt lat="45.22645" lon="5.99435">
        <ele>1298.4449462891</ele>
        <time>2017-03-17T07:32:28Z</time>
      </trkpt>
      <trkpt lat="45.22641" lon="5.99439">
        <ele>1300.4449462891</ele>
        <time>2017-03-17T07:32:31Z</time>
      </trkpt>
      <trkpt lat="45.22637" lon="5.99445">
        <ele>1299.4449462891</ele>
        <time>2017-03-17T07:32:33Z</time>
      </trkpt>
      <trkpt lat="45.22633" lon="5.99447">
        <ele>1296.4439697266</ele>
        <time>2017-03-17T07:32:37Z</time>
      </trkpt>
      <trkpt lat="45.22629" lon="5.99452">
        <ele>1300.4439697266</ele>
        <time>2017-03-17T07:32:43Z</time>
      </trkpt>
      <trkpt lat="45.22624" lon="5.99456">
        <ele>1298.4439697266</ele>
        <time>2017-03-17T07:32:47Z</time>
      </trkpt>
      <trkpt lat="45.2262" lon="5.9946">
        <ele>1303.4439697266</ele>
        <time>2017-03-17T07:32:52Z</time>
      </trkpt>
      <trkpt lat="45.22618" lon="5.99466">
        <ele>1305.4439697266</ele>
        <time>2017-03-17T07:32:55Z</time>
      </trkpt>
      <trkpt lat="45.22614" lon="5.99471">
        <ele>1306.4439697266</ele>
        <time>2017-03-17T07:33:00Z</time>
      </trkpt>
      <trkpt lat="45.22612" lon="5.99477">
        <ele>1308.4449462891</ele>
        <time>2017-03-17T07:33:05Z</time>
      </trkpt>
      <trkpt lat="45.22608" lon="5.9948">
        <ele>1310.4439697266</ele>
        <time>2017-03-17T07:33:10Z</time>
      </trkpt>
      <trkpt lat="45.22604" lon="5.99485">
        <ele>1311.4439697266</ele>
        <time>2017-03-17T07:33:16Z</time>
      </trkpt>
      <trkpt lat="45.22602" lon="5.99493">
        <ele>1314.4449462891</ele>
        <time>2017-03-17T07:33:21Z</time>
      </trkpt>
      <trkpt lat="45.22597" lon="5.99495">
        <ele>1319.4439697266</ele>
        <time>2017-03-17T07:33:26Z</time>
      </trkpt>
      <trkpt lat="45.22592" lon="5.99502">
        <ele>1319.4439697266</ele>
        <time>2017-03-17T07:33:34Z</time>
      </trkpt>
      <trkpt lat="45.22589" lon="5.99506">
        <ele>1318.4439697266</ele>
        <time>2017-03-17T07:33:36Z</time>
      </trkpt>
      <trkpt lat="45.22585" lon="5.99511">
        <ele>1321.4439697266</ele>
        <time>2017-03-17T07:33:41Z</time>
      </trkpt>
      <trkpt lat="45.22582" lon="5.99515">
        <ele>1320.4439697266</ele>
        <time>2017-03-17T07:33:44Z</time>
      </trkpt>
      <trkpt lat="45.22577" lon="5.99519">
        <ele>1319.4439697266</ele>
        <time>2017-03-17T07:33:48Z</time>
      </trkpt>
      <trkpt lat="45.22574" lon="5.99525">
        <ele>1320.4439697266</ele>
        <time>2017-03-17T07:33:52Z</time>
      </trkpt>
      <trkpt lat="45.2257" lon="5.9953">
        <ele>1318.4439697266</ele>
        <time>2017-03-17T07:33:56Z</time>
      </trkpt>
      <trkpt lat="45.22566" lon="5.99534">
        <ele>1319.4439697266</ele>
        <time>2017-03-17T07:34:00Z</time>
      </trkpt>
      <trkpt lat="45.22561" lon="5.99538">
        <ele>1322.4439697266</ele>
        <time>2017-03-17T07:34:03Z</time>
      </trkpt>
      <trkpt lat="45.22557" lon="5.99544">
        <ele>1322.4439697266</ele>
        <time>2017-03-17T07:34:06Z</time>
      </trkpt>
      <trkpt lat="45.22552" lon="5.99547">
        <ele>1324.4439697266</ele>
        <time>2017-03-17T07:34:09Z</time>
      </trkpt>
      <trkpt lat="45.22554" lon="5.99554">
        <ele>1320.4439697266</ele>
        <time>2017-03-17T07:34:11Z</time>
      </trkpt>
      <trkpt lat="45.2255" lon="5.99558">
        <ele>1322.4439697266</ele>
        <time>2017-03-17T07:34:14Z</time>
      </trkpt>
      <trkpt lat="45.22545" lon="5.99563">
        <ele>1321.4439697266</ele>
        <time>2017-03-17T07:34:18Z</time>
      </trkpt>
      <trkpt lat="45.22542" lon="5.99568">
        <ele>1317.4439697266</ele>
        <time>2017-03-17T07:34:21Z</time>
      </trkpt>
      <trkpt lat="45.22537" lon="5.9957">
        <ele>1321.4439697266</ele>
        <time>2017-03-17T07:34:26Z</time>
      </trkpt>
      <trkpt lat="45.22532" lon="5.99575">
        <ele>1325.4439697266</ele>
        <time>2017-03-17T07:34:30Z</time>
      </trkpt>
      <trkpt lat="45.22527" lon="5.9958">
        <ele>1325.4439697266</ele>
        <time>2017-03-17T07:34:34Z</time>
      </trkpt>
      <trkpt lat="45.22523" lon="5.99584">
        <ele>1328.4439697266</ele>
        <time>2017-03-17T07:34:38Z</time>
      </trkpt>
      <trkpt lat="45.22521" lon="5.99591">
        <ele>1325.4439697266</ele>
        <time>2017-03-17T07:34:42Z</time>
      </trkpt>
      <trkpt lat="45.22518" lon="5.99597">
        <ele>1325.4439697266</ele>
        <time>2017-03-17T07:34:46Z</time>
      </trkpt>
      <trkpt lat="45.22516" lon="5.99606">
        <ele>1326.4439697266</ele>
        <time>2017-03-17T07:34:54Z</time>
      </trkpt>
      <trkpt lat="45.22513" lon="5.99616">
        <ele>1329.4439697266</ele>
        <time>2017-03-17T07:34:58Z</time>
      </trkpt>
      <trkpt lat="45.22512" lon="5.99622">
        <ele>1328.4449462891</ele>
        <time>2017-03-17T07:35:01Z</time>
      </trkpt>
      <trkpt lat="45.22511" lon="5.99629">
        <ele>1328.4449462891</ele>
        <time>2017-03-17T07:35:05Z</time>
      </trkpt>
      <trkpt lat="45.22511" lon="5.99636">
        <ele>1329.4449462891</ele>
        <time>2017-03-17T07:35:09Z</time>
      </trkpt>
      <trkpt lat="45.2251" lon="5.99643">
        <ele>1330.4449462891</ele>
        <time>2017-03-17T07:35:13Z</time>
      </trkpt>
      <trkpt lat="45.22511" lon="5.9965">
        <ele>1330.4449462891</ele>
        <time>2017-03-17T07:35:17Z</time>
      </trkpt>
      <trkpt lat="45.22515" lon="5.99653">
        <ele>1329.4449462891</ele>
        <time>2017-03-17T07:35:22Z</time>
      </trkpt>
      <trkpt lat="45.22516" lon="5.99661">
        <ele>1328.4449462891</ele>
        <time>2017-03-17T07:35:26Z</time>
      </trkpt>
      <trkpt lat="45.22516" lon="5.9967">
        <ele>1330.4449462891</ele>
        <time>2017-03-17T07:35:30Z</time>
      </trkpt>
      <trkpt lat="45.22515" lon="5.99676">
        <ele>1332.4449462891</ele>
        <time>2017-03-17T07:35:33Z</time>
      </trkpt>
      <trkpt lat="45.22515" lon="5.99684">
        <ele>1334.4449462891</ele>
        <time>2017-03-17T07:35:36Z</time>
      </trkpt>
      <trkpt lat="45.22516" lon="5.99691">
        <ele>1331.4449462891</ele>
        <time>2017-03-17T07:35:40Z</time>
      </trkpt>
      <trkpt lat="45.22515" lon="5.99697">
        <ele>1331.4449462891</ele>
        <time>2017-03-17T07:35:43Z</time>
      </trkpt>
      <trkpt lat="45.22513" lon="5.99705">
        <ele>1331.4449462891</ele>
        <time>2017-03-17T07:35:47Z</time>
      </trkpt>
      <trkpt lat="45.22511" lon="5.99712">
        <ele>1333.4449462891</ele>
        <time>2017-03-17T07:35:50Z</time>
      </trkpt>
      <trkpt lat="45.22509" lon="5.99719">
        <ele>1333.4449462891</ele>
        <time>2017-03-17T07:35:54Z</time>
      </trkpt>
      <trkpt lat="45.22505" lon="5.99726">
        <ele>1333.4449462891</ele>
        <time>2017-03-17T07:35:57Z</time>
      </trkpt>
      <trkpt lat="45.22507" lon="5.99735">
        <ele>1332.4449462891</ele>
        <time>2017-03-17T07:36:03Z</time>
      </trkpt>
      <trkpt lat="45.22506" lon="5.99742">
        <ele>1330.4449462891</ele>
        <time>2017-03-17T07:36:05Z</time>
      </trkpt>
      <trkpt lat="45.22505" lon="5.9975">
        <ele>1334.4449462891</ele>
        <time>2017-03-17T07:36:10Z</time>
      </trkpt>
      <trkpt lat="45.22506" lon="5.99757">
        <ele>1332.4449462891</ele>
        <time>2017-03-17T07:36:13Z</time>
      </trkpt>
      <trkpt lat="45.22505" lon="5.99763">
        <ele>1335.4449462891</ele>
        <time>2017-03-17T07:36:19Z</time>
      </trkpt>
      <trkpt lat="45.22505" lon="5.9977">
        <ele>1335.4449462891</ele>
        <time>2017-03-17T07:36:22Z</time>
      </trkpt>
      <trkpt lat="45.22504" lon="5.99778">
        <ele>1337.4449462891</ele>
        <time>2017-03-17T07:36:27Z</time>
      </trkpt>
      <trkpt lat="45.22503" lon="5.99785">
        <ele>1335.4449462891</ele>
        <time>2017-03-17T07:36:30Z</time>
      </trkpt>
      <trkpt lat="45.22501" lon="5.99792">
        <ele>1334.4449462891</ele>
        <time>2017-03-17T07:36:34Z</time>
      </trkpt>
      <trkpt lat="45.22499" lon="5.99799">
        <ele>1335.4449462891</ele>
        <time>2017-03-17T07:36:37Z</time>
      </trkpt>
      <trkpt lat="45.22496" lon="5.99805">
        <ele>1336.4449462891</ele>
        <time>2017-03-17T07:36:41Z</time>
      </trkpt>
      <trkpt lat="45.22493" lon="5.99812">
        <ele>1336.4449462891</ele>
        <time>2017-03-17T07:36:46Z</time>
      </trkpt>
      <trkpt lat="45.2249" lon="5.99818">
        <ele>1336.4449462891</ele>
        <time>2017-03-17T07:36:48Z</time>
      </trkpt>
      <trkpt lat="45.22486" lon="5.99825">
        <ele>1338.4449462891</ele>
        <time>2017-03-17T07:36:51Z</time>
      </trkpt>
      <trkpt lat="45.22483" lon="5.9983">
        <ele>1340.4449462891</ele>
        <time>2017-03-17T07:36:57Z</time>
      </trkpt>
      <trkpt lat="45.22478" lon="5.99834">
        <ele>1346.4449462891</ele>
        <time>2017-03-17T07:37:04Z</time>
      </trkpt>
      <trkpt lat="45.22474" lon="5.99839">
        <ele>1345.4449462891</ele>
        <time>2017-03-17T07:37:07Z</time>
      </trkpt>
      <trkpt lat="45.22469" lon="5.99844">
        <ele>1343.4449462891</ele>
        <time>2017-03-17T07:37:11Z</time>
      </trkpt>
      <trkpt lat="45.22464" lon="5.99846">
        <ele>1343.4449462891</ele>
        <time>2017-03-17T07:37:17Z</time>
      </trkpt>
      <trkpt lat="45.2246" lon="5.99847">
        <ele>1343.4449462891</ele>
        <time>2017-03-17T07:37:21Z</time>
      </trkpt>
      <trkpt lat="45.22456" lon="5.9985">
        <ele>1346.4449462891</ele>
        <time>2017-03-17T07:37:28Z</time>
      </trkpt>
      <trkpt lat="45.22451" lon="5.99855">
        <ele>1346.4449462891</ele>
        <time>2017-03-17T07:37:36Z</time>
      </trkpt>
      <trkpt lat="45.22448" lon="5.99862">
        <ele>1347.4449462891</ele>
        <time>2017-03-17T07:37:38Z</time>
      </trkpt>
      <trkpt lat="45.22449" lon="5.99868">
        <ele>1350.4449462891</ele>
        <time>2017-03-17T07:37:46Z</time>
      </trkpt>
      <trkpt lat="45.22449" lon="5.99875">
        <ele>1348.4449462891</ele>
        <time>2017-03-17T07:37:50Z</time>
      </trkpt>
      <trkpt lat="45.22448" lon="5.99882">
        <ele>1349.4449462891</ele>
        <time>2017-03-17T07:38:00Z</time>
      </trkpt>
      <trkpt lat="45.22449" lon="5.99889">
        <ele>1353.4449462891</ele>
        <time>2017-03-17T07:38:07Z</time>
      </trkpt>
      <trkpt lat="45.22448" lon="5.99896">
        <ele>1351.4449462891</ele>
        <time>2017-03-17T07:38:13Z</time>
      </trkpt>
      <trkpt lat="45.22451" lon="5.99901">
        <ele>1358.4449462891</ele>
        <time>2017-03-17T07:38:32Z</time>
      </trkpt>
      <trkpt lat="45.22453" lon="5.99908">
        <ele>1357.4449462891</ele>
        <time>2017-03-17T07:38:36Z</time>
      </trkpt>
      <trkpt lat="45.22452" lon="5.99915">
        <ele>1355.4449462891</ele>
        <time>2017-03-17T07:38:39Z</time>
      </trkpt>
      <trkpt lat="45.22452" lon="5.99923">
        <ele>1355.4449462891</ele>
        <time>2017-03-17T07:38:41Z</time>
      </trkpt>
      <trkpt lat="45.22451" lon="5.99931">
        <ele>1354.4449462891</ele>
        <time>2017-03-17T07:38:45Z</time>
      </trkpt>
      <trkpt lat="45.22454" lon="5.99935">
        <ele>1361.4449462891</ele>
        <time>2017-03-17T07:38:57Z</time>
      </trkpt>
      <trkpt lat="45.22456" lon="5.99942">
        <ele>1362.4449462891</ele>
        <time>2017-03-17T07:39:03Z</time>
      </trkpt>
      <trkpt lat="45.22453" lon="5.9995">
        <ele>1365.4449462891</ele>
        <time>2017-03-17T07:39:11Z</time>
      </trkpt>
      <trkpt lat="45.22452" lon="5.99957">
        <ele>1361.4449462891</ele>
        <time>2017-03-17T07:39:14Z</time>
      </trkpt>
      <trkpt lat="45.22451" lon="5.99965">
        <ele>1361.4449462891</ele>
        <time>2017-03-17T07:39:17Z</time>
      </trkpt>
      <trkpt lat="45.2245" lon="5.99972">
        <ele>1359.4449462891</ele>
        <time>2017-03-17T07:39:22Z</time>
      </trkpt>
      <trkpt lat="45.2245" lon="5.99978">
        <ele>1365.4449462891</ele>
        <time>2017-03-17T07:39:33Z</time>
      </trkpt>
      <trkpt lat="45.22446" lon="5.99984">
        <ele>1366.4449462891</ele>
        <time>2017-03-17T07:39:40Z</time>
      </trkpt>
      <trkpt lat="45.22444" lon="5.9999">
        <ele>1368.4449462891</ele>
        <time>2017-03-17T07:39:44Z</time>
      </trkpt>
      <trkpt lat="45.2244" lon="5.99995">
        <ele>1372.4449462891</ele>
        <time>2017-03-17T07:39:54Z</time>
      </trkpt>
      <trkpt lat="45.22438" lon="6.00002">
        <ele>1372.4449462891</ele>
        <time>2017-03-17T07:40:11Z</time>
      </trkpt>
      <trkpt lat="45.22437" lon="6.00008">
        <ele>1374.4449462891</ele>
        <time>2017-03-17T07:40:20Z</time>
      </trkpt>
      <trkpt lat="45.22435" lon="6.00014">
        <ele>1378.4449462891</ele>
        <time>2017-03-17T07:40:30Z</time>
      </trkpt>
      <trkpt lat="45.22432" lon="6.00021">
        <ele>1383.4449462891</ele>
        <time>2017-03-17T07:40:45Z</time>
      </trkpt>
      <trkpt lat="45.22432" lon="6.00028">
        <ele>1380.4449462891</ele>
        <time>2017-03-17T07:40:50Z</time>
      </trkpt>
      <trkpt lat="45.2243" lon="6.00035">
        <ele>1379.4449462891</ele>
        <time>2017-03-17T07:40:55Z</time>
      </trkpt>
      <trkpt lat="45.22427" lon="6.0004">
        <ele>1383.4449462891</ele>
        <time>2017-03-17T07:41:11Z</time>
      </trkpt>
      <trkpt lat="45.22425" lon="6.00047">
        <ele>1381.4449462891</ele>
        <time>2017-03-17T07:41:26Z</time>
      </trkpt>
      <trkpt lat="45.22424" lon="6.00053">
        <ele>1382.4449462891</ele>
        <time>2017-03-17T07:41:35Z</time>
      </trkpt>
      <trkpt lat="45.2242" lon="6.00059">
        <ele>1381.4449462891</ele>
        <time>2017-03-17T07:41:41Z</time>
      </trkpt>
      <trkpt lat="45.22417" lon="6.00066">
        <ele>1377.4449462891</ele>
        <time>2017-03-17T07:41:45Z</time>
      </trkpt>
      <trkpt lat="45.22416" lon="6.00072">
        <ele>1380.4449462891</ele>
        <time>2017-03-17T07:41:51Z</time>
      </trkpt>
      <trkpt lat="45.22416" lon="6.00079">
        <ele>1379.4449462891</ele>
        <time>2017-03-17T07:41:56Z</time>
      </trkpt>
      <trkpt lat="45.22415" lon="6.00085">
        <ele>1383.4449462891</ele>
        <time>2017-03-17T07:42:07Z</time>
      </trkpt>
      <trkpt lat="45.22411" lon="6.0009">
        <ele>1383.4449462891</ele>
        <time>2017-03-17T07:42:14Z</time>
      </trkpt>
      <trkpt lat="45.22407" lon="6.00094">
        <ele>1390.4449462891</ele>
        <time>2017-03-17T07:42:24Z</time>
      </trkpt>
      <trkpt lat="45.22404" lon="6.00099">
        <ele>1390.4449462891</ele>
        <time>2017-03-17T07:42:28Z</time>
      </trkpt>
      <trkpt lat="45.224" lon="6.00103">
        <ele>1392.4449462891</ele>
        <time>2017-03-17T07:42:37Z</time>
      </trkpt>
      <trkpt lat="45.22397" lon="6.0011">
        <ele>1393.4449462891</ele>
        <time>2017-03-17T07:42:45Z</time>
      </trkpt>
      <trkpt lat="45.22392" lon="6.00112">
        <ele>1396.4449462891</ele>
        <time>2017-03-17T07:42:51Z</time>
      </trkpt>
      <trkpt lat="45.22388" lon="6.00116">
        <ele>1396.4449462891</ele>
        <time>2017-03-17T07:42:55Z</time>
      </trkpt>
      <trkpt lat="45.22384" lon="6.00121">
        <ele>1394.4449462891</ele>
        <time>2017-03-17T07:42:59Z</time>
      </trkpt>
      <trkpt lat="45.22381" lon="6.00125">
        <ele>1393.4449462891</ele>
        <time>2017-03-17T07:43:04Z</time>
      </trkpt>
      <trkpt lat="45.22376" lon="6.00129">
        <ele>1392.4449462891</ele>
        <time>2017-03-17T07:43:11Z</time>
      </trkpt>
      <trkpt lat="45.22373" lon="6.00135">
        <ele>1393.4449462891</ele>
        <time>2017-03-17T07:43:21Z</time>
      </trkpt>
      <trkpt lat="45.22373" lon="6.00142">
        <ele>1390.4449462891</ele>
        <time>2017-03-17T07:43:26Z</time>
      </trkpt>
      <trkpt lat="45.22372" lon="6.00148">
        <ele>1390.4449462891</ele>
        <time>2017-03-17T07:43:34Z</time>
      </trkpt>
      <trkpt lat="45.22369" lon="6.00153">
        <ele>1392.4449462891</ele>
        <time>2017-03-17T07:43:37Z</time>
      </trkpt>
      <trkpt lat="45.22367" lon="6.00159">
        <ele>1393.4449462891</ele>
        <time>2017-03-17T07:43:44Z</time>
      </trkpt>
      <trkpt lat="45.22364" lon="6.00164">
        <ele>1396.4449462891</ele>
        <time>2017-03-17T07:44:20Z</time>
      </trkpt>
      <trkpt lat="45.22358" lon="6.00165">
        <ele>1402.4449462891</ele>
        <time>2017-03-17T07:45:24Z</time>
      </trkpt>
      <trkpt lat="45.22354" lon="6.00169">
        <ele>1404.4449462891</ele>
        <time>2017-03-17T07:45:28Z</time>
      </trkpt>
      <trkpt lat="45.22349" lon="6.00172">
        <ele>1408.4449462891</ele>
        <time>2017-03-17T07:45:35Z</time>
      </trkpt>
      <trkpt lat="45.22346" lon="6.00176">
        <ele>1413.4449462891</ele>
        <time>2017-03-17T07:45:38Z</time>
      </trkpt>
      <trkpt lat="45.22341" lon="6.00179">
        <ele>1415.4449462891</ele>
        <time>2017-03-17T07:45:42Z</time>
      </trkpt>
      <trkpt lat="45.22337" lon="6.00183">
        <ele>1417.4449462891</ele>
        <time>2017-03-17T07:45:45Z</time>
      </trkpt>
      <trkpt lat="45.22333" lon="6.00189">
        <ele>1421.4449462891</ele>
        <time>2017-03-17T07:45:50Z</time>
      </trkpt>
      <trkpt lat="45.2233" lon="6.00194">
        <ele>1424.4449462891</ele>
        <time>2017-03-17T07:45:54Z</time>
      </trkpt>
      <trkpt lat="45.22325" lon="6.00197">
        <ele>1423.4449462891</ele>
        <time>2017-03-17T07:45:58Z</time>
      </trkpt>
      <trkpt lat="45.22319" lon="6.002">
        <ele>1424.4449462891</ele>
        <time>2017-03-17T07:46:03Z</time>
      </trkpt>
      <trkpt lat="45.22315" lon="6.00201">
        <ele>1423.4449462891</ele>
        <time>2017-03-17T07:46:07Z</time>
      </trkpt>
      <trkpt lat="45.2231" lon="6.00202">
        <ele>1423.4449462891</ele>
        <time>2017-03-17T07:46:11Z</time>
      </trkpt>
      <trkpt lat="45.22307" lon="6.00207">
        <ele>1424.4449462891</ele>
        <time>2017-03-17T07:46:15Z</time>
      </trkpt>
      <trkpt lat="45.22304" lon="6.00213">
        <ele>1424.4449462891</ele>
        <time>2017-03-17T07:46:25Z</time>
      </trkpt>
      <trkpt lat="45.22304" lon="6.0022">
        <ele>1423.4449462891</ele>
        <time>2017-03-17T07:46:34Z</time>
      </trkpt>
      <trkpt lat="45.22303" lon="6.00227">
        <ele>1421.4449462891</ele>
        <time>2017-03-17T07:46:37Z</time>
      </trkpt>
      <trkpt lat="45.22304" lon="6.00235">
        <ele>1424.4449462891</ele>
        <time>2017-03-17T07:46:42Z</time>
      </trkpt>
      <trkpt lat="45.22305" lon="6.00242">
        <ele>1427.4449462891</ele>
        <time>2017-03-17T07:46:46Z</time>
      </trkpt>
      <trkpt lat="45.22309" lon="6.00248">
        <ele>1421.4449462891</ele>
        <time>2017-03-17T07:46:51Z</time>
      </trkpt>
      <trkpt lat="45.2231" lon="6.00256">
        <ele>1424.4449462891</ele>
        <time>2017-03-17T07:46:59Z</time>
      </trkpt>
      <trkpt lat="45.22309" lon="6.00264">
        <ele>1425.4449462891</ele>
        <time>2017-03-17T07:47:03Z</time>
      </trkpt>
      <trkpt lat="45.2231" lon="6.00272">
        <ele>1424.4449462891</ele>
        <time>2017-03-17T07:47:07Z</time>
      </trkpt>
      <trkpt lat="45.22309" lon="6.00278">
        <ele>1420.4449462891</ele>
        <time>2017-03-17T07:47:10Z</time>
      </trkpt>
      <trkpt lat="45.2231" lon="6.00285">
        <ele>1425.4449462891</ele>
        <time>2017-03-17T07:47:17Z</time>
      </trkpt>
      <trkpt lat="45.22312" lon="6.00294">
        <ele>1432.4449462891</ele>
        <time>2017-03-17T07:47:24Z</time>
      </trkpt>
      <trkpt lat="45.22311" lon="6.00302">
        <ele>1432.4449462891</ele>
        <time>2017-03-17T07:47:28Z</time>
      </trkpt>
      <trkpt lat="45.22309" lon="6.00308">
        <ele>1432.4449462891</ele>
        <time>2017-03-17T07:47:31Z</time>
      </trkpt>
      <trkpt lat="45.22309" lon="6.00315">
        <ele>1432.4449462891</ele>
        <time>2017-03-17T07:47:35Z</time>
      </trkpt>
      <trkpt lat="45.22309" lon="6.00322">
        <ele>1430.4449462891</ele>
        <time>2017-03-17T07:47:39Z</time>
      </trkpt>
      <trkpt lat="45.22309" lon="6.00329">
        <ele>1431.4449462891</ele>
        <time>2017-03-17T07:47:43Z</time>
      </trkpt>
      <trkpt lat="45.22309" lon="6.00337">
        <ele>1432.4449462891</ele>
        <time>2017-03-17T07:47:47Z</time>
      </trkpt>
      <trkpt lat="45.22308" lon="6.00344">
        <ele>1431.4449462891</ele>
        <time>2017-03-17T07:47:51Z</time>
      </trkpt>
      <trkpt lat="45.22307" lon="6.0035">
        <ele>1430.4449462891</ele>
        <time>2017-03-17T07:47:55Z</time>
      </trkpt>
      <trkpt lat="45.22305" lon="6.00357">
        <ele>1432.4449462891</ele>
        <time>2017-03-17T07:48:00Z</time>
      </trkpt>
      <trkpt lat="45.22302" lon="6.00362">
        <ele>1434.4449462891</ele>
        <time>2017-03-17T07:48:05Z</time>
      </trkpt>
      <trkpt lat="45.22299" lon="6.00368">
        <ele>1432.4449462891</ele>
        <time>2017-03-17T07:48:10Z</time>
      </trkpt>
      <trkpt lat="45.22295" lon="6.00373">
        <ele>1434.4449462891</ele>
        <time>2017-03-17T07:48:16Z</time>
      </trkpt>
      <trkpt lat="45.22292" lon="6.00379">
        <ele>1435.4449462891</ele>
        <time>2017-03-17T07:48:21Z</time>
      </trkpt>
      <trkpt lat="45.2229" lon="6.00386">
        <ele>1438.4449462891</ele>
        <time>2017-03-17T07:48:26Z</time>
      </trkpt>
      <trkpt lat="45.22287" lon="6.00391">
        <ele>1440.4449462891</ele>
        <time>2017-03-17T07:48:33Z</time>
      </trkpt>
      <trkpt lat="45.22284" lon="6.00396">
        <ele>1442.4449462891</ele>
        <time>2017-03-17T07:48:40Z</time>
      </trkpt>
      <trkpt lat="45.22282" lon="6.00404">
        <ele>1443.4449462891</ele>
        <time>2017-03-17T07:48:46Z</time>
      </trkpt>
      <trkpt lat="45.22281" lon="6.00411">
        <ele>1442.4449462891</ele>
        <time>2017-03-17T07:49:00Z</time>
      </trkpt>
      <trkpt lat="45.22281" lon="6.00418">
        <ele>1442.4449462891</ele>
        <time>2017-03-17T07:49:04Z</time>
      </trkpt>
      <trkpt lat="45.22277" lon="6.00423">
        <ele>1447.4449462891</ele>
        <time>2017-03-17T07:49:10Z</time>
      </trkpt>
      <trkpt lat="45.22277" lon="6.0043">
        <ele>1449.4449462891</ele>
        <time>2017-03-17T07:49:15Z</time>
      </trkpt>
      <trkpt lat="45.22275" lon="6.00436">
        <ele>1452.4449462891</ele>
        <time>2017-03-17T07:49:20Z</time>
      </trkpt>
      <trkpt lat="45.2227" lon="6.00435">
        <ele>1456.4449462891</ele>
        <time>2017-03-17T07:49:26Z</time>
      </trkpt>
      <trkpt lat="45.22265" lon="6.00437">
        <ele>1453.4449462891</ele>
        <time>2017-03-17T07:49:32Z</time>
      </trkpt>
      <trkpt lat="45.22261" lon="6.00437">
        <ele>1454.4449462891</ele>
        <time>2017-03-17T07:49:38Z</time>
      </trkpt>
      <trkpt lat="45.22257" lon="6.00433">
        <ele>1455.4449462891</ele>
        <time>2017-03-17T07:49:44Z</time>
      </trkpt>
      <trkpt lat="45.22253" lon="6.00436">
        <ele>1455.4449462891</ele>
        <time>2017-03-17T07:49:47Z</time>
      </trkpt>
      <trkpt lat="45.22248" lon="6.00434">
        <ele>1457.4449462891</ele>
        <time>2017-03-17T07:49:52Z</time>
      </trkpt>
      <trkpt lat="45.22244" lon="6.00431">
        <ele>1462.4449462891</ele>
        <time>2017-03-17T07:49:56Z</time>
      </trkpt>
      <trkpt lat="45.22239" lon="6.00431">
        <ele>1464.4449462891</ele>
        <time>2017-03-17T07:50:03Z</time>
      </trkpt>
      <trkpt lat="45.22237" lon="6.00437">
        <ele>1467.4449462891</ele>
        <time>2017-03-17T07:50:09Z</time>
      </trkpt>
      <trkpt lat="45.22237" lon="6.00444">
        <ele>1469.4449462891</ele>
        <time>2017-03-17T07:50:13Z</time>
      </trkpt>
      <trkpt lat="45.22235" lon="6.00451">
        <ele>1469.4449462891</ele>
        <time>2017-03-17T07:50:17Z</time>
      </trkpt>
      <trkpt lat="45.22234" lon="6.00457">
        <ele>1469.4449462891</ele>
        <time>2017-03-17T07:50:23Z</time>
      </trkpt>
      <trkpt lat="45.22232" lon="6.00464">
        <ele>1468.4449462891</ele>
        <time>2017-03-17T07:50:28Z</time>
      </trkpt>
      <trkpt lat="45.2223" lon="6.0047">
        <ele>1465.4449462891</ele>
        <time>2017-03-17T07:50:32Z</time>
      </trkpt>
      <trkpt lat="45.22229" lon="6.00476">
        <ele>1468.4449462891</ele>
        <time>2017-03-17T07:50:39Z</time>
      </trkpt>
      <trkpt lat="45.22228" lon="6.00483">
        <ele>1470.4449462891</ele>
        <time>2017-03-17T07:50:44Z</time>
      </trkpt>
      <trkpt lat="45.22225" lon="6.00489">
        <ele>1475.4449462891</ele>
        <time>2017-03-17T07:50:53Z</time>
      </trkpt>
      <trkpt lat="45.22222" lon="6.00494">
        <ele>1473.4449462891</ele>
        <time>2017-03-17T07:50:58Z</time>
      </trkpt>
      <trkpt lat="45.22222" lon="6.00501">
        <ele>1474.4449462891</ele>
        <time>2017-03-17T07:51:04Z</time>
      </trkpt>
      <trkpt lat="45.22222" lon="6.00508">
        <ele>1477.4449462891</ele>
        <time>2017-03-17T07:51:10Z</time>
      </trkpt>
      <trkpt lat="45.22221" lon="6.00515">
        <ele>1476.4449462891</ele>
        <time>2017-03-17T07:51:15Z</time>
      </trkpt>
      <trkpt lat="45.22222" lon="6.00522">
        <ele>1478.4449462891</ele>
        <time>2017-03-17T07:51:20Z</time>
      </trkpt>
      <trkpt lat="45.22224" lon="6.0053">
        <ele>1481.4449462891</ele>
        <time>2017-03-17T07:51:28Z</time>
      </trkpt>
      <trkpt lat="45.22224" lon="6.00537">
        <ele>1485.4449462891</ele>
        <time>2017-03-17T07:51:35Z</time>
      </trkpt>
      <trkpt lat="45.22225" lon="6.00544">
        <ele>1489.4449462891</ele>
        <time>2017-03-17T07:51:42Z</time>
      </trkpt>
      <trkpt lat="45.22226" lon="6.00551">
        <ele>1493.4449462891</ele>
        <time>2017-03-17T07:51:50Z</time>
      </trkpt>
      <trkpt lat="45.22226" lon="6.00558">
        <ele>1493.4449462891</ele>
        <time>2017-03-17T07:51:56Z</time>
      </trkpt>
      <trkpt lat="45.22227" lon="6.00564">
        <ele>1497.4449462891</ele>
        <time>2017-03-17T07:52:05Z</time>
      </trkpt>
      <trkpt lat="45.22227" lon="6.00572">
        <ele>1501.4449462891</ele>
        <time>2017-03-17T07:52:11Z</time>
      </trkpt>
      <trkpt lat="45.22227" lon="6.00579">
        <ele>1500.4449462891</ele>
        <time>2017-03-17T07:52:15Z</time>
      </trkpt>
      <trkpt lat="45.22229" lon="6.00586">
        <ele>1500.4449462891</ele>
        <time>2017-03-17T07:52:19Z</time>
      </trkpt>
      <trkpt lat="45.22228" lon="6.00592">
        <ele>1501.4449462891</ele>
        <time>2017-03-17T07:52:27Z</time>
      </trkpt>
      <trkpt lat="45.2223" lon="6.00599">
        <ele>1504.4449462891</ele>
        <time>2017-03-17T07:52:32Z</time>
      </trkpt>
      <trkpt lat="45.22232" lon="6.00607">
        <ele>1506.4449462891</ele>
        <time>2017-03-17T07:52:41Z</time>
      </trkpt>
      <trkpt lat="45.22233" lon="6.00614">
        <ele>1507.4449462891</ele>
        <time>2017-03-17T07:52:47Z</time>
      </trkpt>
      <trkpt lat="45.22235" lon="6.0062">
        <ele>1509.4449462891</ele>
        <time>2017-03-17T07:52:55Z</time>
      </trkpt>
      <trkpt lat="45.22237" lon="6.00628">
        <ele>1509.4449462891</ele>
        <time>2017-03-17T07:53:00Z</time>
      </trkpt>
      <trkpt lat="45.22239" lon="6.00634">
        <ele>1508.4449462891</ele>
        <time>2017-03-17T07:53:06Z</time>
      </trkpt>
      <trkpt lat="45.22242" lon="6.0064">
        <ele>1509.4449462891</ele>
        <time>2017-03-17T07:53:10Z</time>
      </trkpt>
      <trkpt lat="45.22244" lon="6.00645">
        <ele>1509.4449462891</ele>
        <time>2017-03-17T07:53:14Z</time>
      </trkpt>
      <trkpt lat="45.22245" lon="6.00652">
        <ele>1512.4449462891</ele>
        <time>2017-03-17T07:53:20Z</time>
      </trkpt>
      <trkpt lat="45.22245" lon="6.0066">
        <ele>1517.4449462891</ele>
        <time>2017-03-17T07:53:27Z</time>
      </trkpt>
      <trkpt lat="45.22245" lon="6.00667">
        <ele>1519.4449462891</ele>
        <time>2017-03-17T07:53:31Z</time>
      </trkpt>
      <trkpt lat="45.22243" lon="6.00673">
        <ele>1522.4449462891</ele>
        <time>2017-03-17T07:53:36Z</time>
      </trkpt>
      <trkpt lat="45.22245" lon="6.0068">
        <ele>1524.4449462891</ele>
        <time>2017-03-17T07:53:44Z</time>
      </trkpt>
      <trkpt lat="45.22245" lon="6.00689">
        <ele>1524.4449462891</ele>
        <time>2017-03-17T07:53:52Z</time>
      </trkpt>
      <trkpt lat="45.22245" lon="6.00697">
        <ele>1525.4449462891</ele>
        <time>2017-03-17T07:53:56Z</time>
      </trkpt>
      <trkpt lat="45.22244" lon="6.00704">
        <ele>1528.4449462891</ele>
        <time>2017-03-17T07:54:00Z</time>
      </trkpt>
      <trkpt lat="45.22245" lon="6.00712">
        <ele>1528.4449462891</ele>
        <time>2017-03-17T07:54:04Z</time>
      </trkpt>
      <trkpt lat="45.22242" lon="6.00718">
        <ele>1528.4449462891</ele>
        <time>2017-03-17T07:54:07Z</time>
      </trkpt>
      <trkpt lat="45.22242" lon="6.00725">
        <ele>1529.4449462891</ele>
        <time>2017-03-17T07:54:10Z</time>
      </trkpt>
      <trkpt lat="45.22241" lon="6.00732">
        <ele>1531.4460449219</ele>
        <time>2017-03-17T07:54:14Z</time>
      </trkpt>
      <trkpt lat="45.2224" lon="6.00739">
        <ele>1530.4460449219</ele>
        <time>2017-03-17T07:54:17Z</time>
      </trkpt>
      <trkpt lat="45.2224" lon="6.00746">
        <ele>1530.4460449219</ele>
        <time>2017-03-17T07:54:22Z</time>
      </trkpt>
      <trkpt lat="45.22239" lon="6.00753">
        <ele>1530.4460449219</ele>
        <time>2017-03-17T07:54:26Z</time>
      </trkpt>
      <trkpt lat="45.22238" lon="6.00761">
        <ele>1528.4460449219</ele>
        <time>2017-03-17T07:54:30Z</time>
      </trkpt>
      <trkpt lat="45.22234" lon="6.00768">
        <ele>1535.4460449219</ele>
        <time>2017-03-17T07:54:37Z</time>
      </trkpt>
      <trkpt lat="45.22232" lon="6.00774">
        <ele>1535.4460449219</ele>
        <time>2017-03-17T07:54:52Z</time>
      </trkpt>
      <trkpt lat="45.22232" lon="6.00781">
        <ele>1538.4460449219</ele>
        <time>2017-03-17T07:55:04Z</time>
      </trkpt>
      <trkpt lat="45.22232" lon="6.00788">
        <ele>1536.4460449219</ele>
        <time>2017-03-17T07:55:10Z</time>
      </trkpt>
      <trkpt lat="45.22233" lon="6.00795">
        <ele>1537.4460449219</ele>
        <time>2017-03-17T07:55:20Z</time>
      </trkpt>
      <trkpt lat="45.22233" lon="6.00801">
        <ele>1537.4460449219</ele>
        <time>2017-03-17T07:55:28Z</time>
      </trkpt>
      <trkpt lat="45.22231" lon="6.00807">
        <ele>1542.4460449219</ele>
        <time>2017-03-17T07:55:36Z</time>
      </trkpt>
      <trkpt lat="45.22229" lon="6.00814">
        <ele>1543.4460449219</ele>
        <time>2017-03-17T07:55:41Z</time>
      </trkpt>
      <trkpt lat="45.22228" lon="6.0082">
        <ele>1543.4460449219</ele>
        <time>2017-03-17T07:55:44Z</time>
      </trkpt>
      <trkpt lat="45.22226" lon="6.00826">
        <ele>1545.4460449219</ele>
        <time>2017-03-17T07:55:51Z</time>
      </trkpt>
      <trkpt lat="45.22225" lon="6.00833">
        <ele>1544.4460449219</ele>
        <time>2017-03-17T07:55:55Z</time>
      </trkpt>
      <trkpt lat="45.22227" lon="6.00839">
        <ele>1543.4460449219</ele>
        <time>2017-03-17T07:56:00Z</time>
      </trkpt>
      <trkpt lat="45.22229" lon="6.00845">
        <ele>1543.4460449219</ele>
        <time>2017-03-17T07:56:04Z</time>
      </trkpt>
      <trkpt lat="45.22229" lon="6.00852">
        <ele>1547.4460449219</ele>
        <time>2017-03-17T07:56:13Z</time>
      </trkpt>
      <trkpt lat="45.22231" lon="6.00858">
        <ele>1546.4460449219</ele>
        <time>2017-03-17T07:56:18Z</time>
      </trkpt>
      <trkpt lat="45.22233" lon="6.00864">
        <ele>1542.4460449219</ele>
        <time>2017-03-17T07:56:22Z</time>
      </trkpt>
      <trkpt lat="45.22235" lon="6.00872">
        <ele>1542.4460449219</ele>
        <time>2017-03-17T07:56:29Z</time>
      </trkpt>
      <trkpt lat="45.22237" lon="6.00878">
        <ele>1543.4460449219</ele>
        <time>2017-03-17T07:56:35Z</time>
      </trkpt>
      <trkpt lat="45.22239" lon="6.00884">
        <ele>1543.4460449219</ele>
        <time>2017-03-17T07:56:39Z</time>
      </trkpt>
      <trkpt lat="45.22242" lon="6.00889">
        <ele>1546.4460449219</ele>
        <time>2017-03-17T07:56:43Z</time>
      </trkpt>
      <trkpt lat="45.22243" lon="6.00895">
        <ele>1550.4460449219</ele>
        <time>2017-03-17T07:56:48Z</time>
      </trkpt>
      <trkpt lat="45.22243" lon="6.00902">
        <ele>1549.4460449219</ele>
        <time>2017-03-17T07:56:53Z</time>
      </trkpt>
      <trkpt lat="45.22244" lon="6.00909">
        <ele>1553.4460449219</ele>
        <time>2017-03-17T07:57:06Z</time>
      </trkpt>
      <trkpt lat="45.22245" lon="6.00916">
        <ele>1550.4460449219</ele>
        <time>2017-03-17T07:57:10Z</time>
      </trkpt>
      <trkpt lat="45.22245" lon="6.00923">
        <ele>1554.4460449219</ele>
        <time>2017-03-17T07:57:21Z</time>
      </trkpt>
      <trkpt lat="45.22246" lon="6.00929">
        <ele>1557.4460449219</ele>
        <time>2017-03-17T07:57:29Z</time>
      </trkpt>
      <trkpt lat="45.2224" lon="6.0093">
        <ele>1561.4460449219</ele>
        <time>2017-03-17T07:57:35Z</time>
      </trkpt>
      <trkpt lat="45.22236" lon="6.00932">
        <ele>1563.4460449219</ele>
        <time>2017-03-17T07:57:41Z</time>
      </trkpt>
      <trkpt lat="45.22234" lon="6.0094">
        <ele>1566.4460449219</ele>
        <time>2017-03-17T07:57:53Z</time>
      </trkpt>
      <trkpt lat="45.22235" lon="6.00948">
        <ele>1564.4460449219</ele>
        <time>2017-03-17T07:57:58Z</time>
      </trkpt>
      <trkpt lat="45.22235" lon="6.00955">
        <ele>1564.4460449219</ele>
        <time>2017-03-17T07:58:04Z</time>
      </trkpt>
      <trkpt lat="45.22235" lon="6.00962">
        <ele>1571.4460449219</ele>
        <time>2017-03-17T07:58:13Z</time>
      </trkpt>
      <trkpt lat="45.22237" lon="6.00969">
        <ele>1575.4460449219</ele>
        <time>2017-03-17T07:58:19Z</time>
      </trkpt>
      <trkpt lat="45.22235" lon="6.00975">
        <ele>1584.4460449219</ele>
        <time>2017-03-17T07:58:27Z</time>
      </trkpt>
      <trkpt lat="45.22233" lon="6.00983">
        <ele>1584.4460449219</ele>
        <time>2017-03-17T07:58:32Z</time>
      </trkpt>
      <trkpt lat="45.22232" lon="6.00989">
        <ele>1585.4460449219</ele>
        <time>2017-03-17T07:58:38Z</time>
      </trkpt>
      <trkpt lat="45.22233" lon="6.00997">
        <ele>1586.4460449219</ele>
        <time>2017-03-17T07:58:42Z</time>
      </trkpt>
      <trkpt lat="45.22234" lon="6.01003">
        <ele>1586.4460449219</ele>
        <time>2017-03-17T07:58:45Z</time>
      </trkpt>
      <trkpt lat="45.22234" lon="6.0101">
        <ele>1586.4460449219</ele>
        <time>2017-03-17T07:58:49Z</time>
      </trkpt>
      <trkpt lat="45.22234" lon="6.01017">
        <ele>1586.4460449219</ele>
        <time>2017-03-17T07:58:52Z</time>
      </trkpt>
      <trkpt lat="45.22234" lon="6.01023">
        <ele>1587.4460449219</ele>
        <time>2017-03-17T07:58:57Z</time>
      </trkpt>
      <trkpt lat="45.22234" lon="6.01031">
        <ele>1588.4460449219</ele>
        <time>2017-03-17T07:59:01Z</time>
      </trkpt>
      <trkpt lat="45.22234" lon="6.01037">
        <ele>1589.4460449219</ele>
        <time>2017-03-17T07:59:07Z</time>
      </trkpt>
      <trkpt lat="45.22232" lon="6.01043">
        <ele>1592.4460449219</ele>
        <time>2017-03-17T07:59:11Z</time>
      </trkpt>
      <trkpt lat="45.2223" lon="6.01049">
        <ele>1589.4460449219</ele>
        <time>2017-03-17T07:59:14Z</time>
      </trkpt>
      <trkpt lat="45.22231" lon="6.01055">
        <ele>1586.4460449219</ele>
        <time>2017-03-17T07:59:19Z</time>
      </trkpt>
      <trkpt lat="45.2223" lon="6.01062">
        <ele>1588.4460449219</ele>
        <time>2017-03-17T07:59:25Z</time>
      </trkpt>
      <trkpt lat="45.2223" lon="6.01072">
        <ele>1588.4460449219</ele>
        <time>2017-03-17T07:59:31Z</time>
      </trkpt>
      <trkpt lat="45.22229" lon="6.01079">
        <ele>1589.4460449219</ele>
        <time>2017-03-17T07:59:35Z</time>
      </trkpt>
      <trkpt lat="45.22231" lon="6.01085">
        <ele>1594.4460449219</ele>
        <time>2017-03-17T07:59:40Z</time>
      </trkpt>
      <trkpt lat="45.2223" lon="6.01093">
        <ele>1594.4460449219</ele>
        <time>2017-03-17T07:59:46Z</time>
      </trkpt>
      <trkpt lat="45.22232" lon="6.011">
        <ele>1589.4460449219</ele>
        <time>2017-03-17T07:59:52Z</time>
      </trkpt>
      <trkpt lat="45.22233" lon="6.01108">
        <ele>1588.4460449219</ele>
        <time>2017-03-17T07:59:58Z</time>
      </trkpt>
      <trkpt lat="45.22234" lon="6.01115">
        <ele>1588.4460449219</ele>
        <time>2017-03-17T08:00:03Z</time>
      </trkpt>
      <trkpt lat="45.22235" lon="6.01123">
        <ele>1593.4460449219</ele>
        <time>2017-03-17T08:00:08Z</time>
      </trkpt>
      <trkpt lat="45.22237" lon="6.01129">
        <ele>1599.4460449219</ele>
        <time>2017-03-17T08:00:14Z</time>
      </trkpt>
      <trkpt lat="45.22239" lon="6.01136">
        <ele>1600.4460449219</ele>
        <time>2017-03-17T08:00:18Z</time>
      </trkpt>
      <trkpt lat="45.22241" lon="6.01141">
        <ele>1601.4460449219</ele>
        <time>2017-03-17T08:00:22Z</time>
      </trkpt>
      <trkpt lat="45.22243" lon="6.01148">
        <ele>1604.4460449219</ele>
        <time>2017-03-17T08:00:28Z</time>
      </trkpt>
      <trkpt lat="45.22243" lon="6.01156">
        <ele>1604.4460449219</ele>
        <time>2017-03-17T08:00:33Z</time>
      </trkpt>
      <trkpt lat="45.22246" lon="6.01162">
        <ele>1605.4460449219</ele>
        <time>2017-03-17T08:00:43Z</time>
      </trkpt>
      <trkpt lat="45.22249" lon="6.01169">
        <ele>1609.4460449219</ele>
        <time>2017-03-17T08:00:49Z</time>
      </trkpt>
      <trkpt lat="45.2225" lon="6.01178">
        <ele>1612.4460449219</ele>
        <time>2017-03-17T08:00:54Z</time>
      </trkpt>
      <trkpt lat="45.22253" lon="6.01183">
        <ele>1610.4460449219</ele>
        <time>2017-03-17T08:00:58Z</time>
      </trkpt>
      <trkpt lat="45.22256" lon="6.01189">
        <ele>1610.4460449219</ele>
        <time>2017-03-17T08:01:04Z</time>
      </trkpt>
      <trkpt lat="45.22258" lon="6.01195">
        <ele>1613.4460449219</ele>
        <time>2017-03-17T08:01:10Z</time>
      </trkpt>
      <trkpt lat="45.22259" lon="6.01203">
        <ele>1613.4460449219</ele>
        <time>2017-03-17T08:01:19Z</time>
      </trkpt>
      <trkpt lat="45.22261" lon="6.0121">
        <ele>1615.4460449219</ele>
        <time>2017-03-17T08:01:23Z</time>
      </trkpt>
      <trkpt lat="45.22257" lon="6.01215">
        <ele>1617.4460449219</ele>
        <time>2017-03-17T08:01:25Z</time>
      </trkpt>
      <trkpt lat="45.22254" lon="6.01222">
        <ele>1618.4460449219</ele>
        <time>2017-03-17T08:01:28Z</time>
      </trkpt>
      <trkpt lat="45.22252" lon="6.01231">
        <ele>1620.4460449219</ele>
        <time>2017-03-17T08:01:34Z</time>
      </trkpt>
      <trkpt lat="45.22247" lon="6.01233">
        <ele>1622.4460449219</ele>
        <time>2017-03-17T08:01:39Z</time>
      </trkpt>
      <trkpt lat="45.22243" lon="6.01237">
        <ele>1625.4460449219</ele>
        <time>2017-03-17T08:01:46Z</time>
      </trkpt>
      <trkpt lat="45.22239" lon="6.01241">
        <ele>1625.4460449219</ele>
        <time>2017-03-17T08:01:58Z</time>
      </trkpt>
      <trkpt lat="45.22238" lon="6.0125">
        <ele>1626.4460449219</ele>
        <time>2017-03-17T08:02:01Z</time>
      </trkpt>
      <trkpt lat="45.22236" lon="6.01258">
        <ele>1626.4460449219</ele>
        <time>2017-03-17T08:02:05Z</time>
      </trkpt>
      <trkpt lat="45.22234" lon="6.01263">
        <ele>1629.4460449219</ele>
        <time>2017-03-17T08:02:15Z</time>
      </trkpt>
      <trkpt lat="45.22232" lon="6.0127">
        <ele>1629.4460449219</ele>
        <time>2017-03-17T08:02:18Z</time>
      </trkpt>
      <trkpt lat="45.22231" lon="6.01277">
        <ele>1629.4460449219</ele>
        <time>2017-03-17T08:02:23Z</time>
      </trkpt>
      <trkpt lat="45.22231" lon="6.01284">
        <ele>1628.4460449219</ele>
        <time>2017-03-17T08:02:31Z</time>
      </trkpt>
      <trkpt lat="45.22231" lon="6.01292">
        <ele>1628.4460449219</ele>
        <time>2017-03-17T08:02:36Z</time>
      </trkpt>
      <trkpt lat="45.22233" lon="6.013">
        <ele>1631.4460449219</ele>
        <time>2017-03-17T08:02:42Z</time>
      </trkpt>
      <trkpt lat="45.22236" lon="6.01306">
        <ele>1630.4460449219</ele>
        <time>2017-03-17T08:02:49Z</time>
      </trkpt>
      <trkpt lat="45.22239" lon="6.01312">
        <ele>1632.4460449219</ele>
        <time>2017-03-17T08:02:57Z</time>
      </trkpt>
      <trkpt lat="45.22245" lon="6.01311">
        <ele>1639.4460449219</ele>
        <time>2017-03-17T08:03:05Z</time>
      </trkpt>
      <trkpt lat="45.22251" lon="6.01311">
        <ele>1639.4460449219</ele>
        <time>2017-03-17T08:03:10Z</time>
      </trkpt>
      <trkpt lat="45.22255" lon="6.01313">
        <ele>1638.4460449219</ele>
        <time>2017-03-17T08:03:16Z</time>
      </trkpt>
      <trkpt lat="45.22259" lon="6.01318">
        <ele>1643.4460449219</ele>
        <time>2017-03-17T08:03:25Z</time>
      </trkpt>
      <trkpt lat="45.22264" lon="6.01318">
        <ele>1644.4460449219</ele>
        <time>2017-03-17T08:03:31Z</time>
      </trkpt>
      <trkpt lat="45.22266" lon="6.01324">
        <ele>1645.4460449219</ele>
        <time>2017-03-17T08:03:36Z</time>
      </trkpt>
      <trkpt lat="45.22265" lon="6.0133">
        <ele>1647.4460449219</ele>
        <time>2017-03-17T08:03:43Z</time>
      </trkpt>
      <trkpt lat="45.22267" lon="6.01338">
        <ele>1644.4460449219</ele>
        <time>2017-03-17T08:03:48Z</time>
      </trkpt>
      <trkpt lat="45.22269" lon="6.01345">
        <ele>1643.4460449219</ele>
        <time>2017-03-17T08:03:53Z</time>
      </trkpt>
      <trkpt lat="45.2227" lon="6.01353">
        <ele>1641.4460449219</ele>
        <time>2017-03-17T08:03:59Z</time>
      </trkpt>
      <trkpt lat="45.22271" lon="6.0136">
        <ele>1639.4460449219</ele>
        <time>2017-03-17T08:04:04Z</time>
      </trkpt>
      <trkpt lat="45.22272" lon="6.01366">
        <ele>1643.4460449219</ele>
        <time>2017-03-17T08:04:11Z</time>
      </trkpt>
      <trkpt lat="45.22267" lon="6.01366">
        <ele>1644.4460449219</ele>
        <time>2017-03-17T08:04:17Z</time>
      </trkpt>
      <trkpt lat="45.22263" lon="6.01371">
        <ele>1647.4460449219</ele>
        <time>2017-03-17T08:04:24Z</time>
      </trkpt>
      <trkpt lat="45.22259" lon="6.01377">
        <ele>1652.4460449219</ele>
        <time>2017-03-17T08:04:30Z</time>
      </trkpt>
      <trkpt lat="45.22254" lon="6.01381">
        <ele>1654.4460449219</ele>
        <time>2017-03-17T08:04:34Z</time>
      </trkpt>
      <trkpt lat="45.22249" lon="6.01381">
        <ele>1657.4460449219</ele>
        <time>2017-03-17T08:04:38Z</time>
      </trkpt>
      <trkpt lat="45.22245" lon="6.01385">
        <ele>1659.4460449219</ele>
        <time>2017-03-17T08:04:44Z</time>
      </trkpt>
      <trkpt lat="45.22241" lon="6.0139">
        <ele>1664.4460449219</ele>
        <time>2017-03-17T08:04:51Z</time>
      </trkpt>
      <trkpt lat="45.22239" lon="6.01397">
        <ele>1666.4460449219</ele>
        <time>2017-03-17T08:04:56Z</time>
      </trkpt>
      <trkpt lat="45.22237" lon="6.01404">
        <ele>1666.4460449219</ele>
        <time>2017-03-17T08:05:11Z</time>
      </trkpt>
      <trkpt lat="45.22234" lon="6.0141">
        <ele>1666.4460449219</ele>
        <time>2017-03-17T08:05:15Z</time>
      </trkpt>
      <trkpt lat="45.22233" lon="6.01418">
        <ele>1666.4460449219</ele>
        <time>2017-03-17T08:05:20Z</time>
      </trkpt>
      <trkpt lat="45.2223" lon="6.01424">
        <ele>1670.4460449219</ele>
        <time>2017-03-17T08:05:24Z</time>
      </trkpt>
      <trkpt lat="45.2223" lon="6.01431">
        <ele>1672.4460449219</ele>
        <time>2017-03-17T08:05:28Z</time>
      </trkpt>
      <trkpt lat="45.22231" lon="6.01439">
        <ele>1675.4460449219</ele>
        <time>2017-03-17T08:05:32Z</time>
      </trkpt>
      <trkpt lat="45.22232" lon="6.01447">
        <ele>1675.4460449219</ele>
        <time>2017-03-17T08:05:35Z</time>
      </trkpt>
      <trkpt lat="45.22233" lon="6.01453">
        <ele>1673.4460449219</ele>
        <time>2017-03-17T08:05:38Z</time>
      </trkpt>
      <trkpt lat="45.22234" lon="6.0146">
        <ele>1674.4460449219</ele>
        <time>2017-03-17T08:05:43Z</time>
      </trkpt>
      <trkpt lat="45.22234" lon="6.01466">
        <ele>1676.4470214844</ele>
        <time>2017-03-17T08:05:46Z</time>
      </trkpt>
      <trkpt lat="45.22235" lon="6.01474">
        <ele>1677.4470214844</ele>
        <time>2017-03-17T08:05:50Z</time>
      </trkpt>
      <trkpt lat="45.22236" lon="6.0148">
        <ele>1683.4470214844</ele>
        <time>2017-03-17T08:05:54Z</time>
      </trkpt>
      <trkpt lat="45.22239" lon="6.01487">
        <ele>1680.4470214844</ele>
        <time>2017-03-17T08:05:58Z</time>
      </trkpt>
      <trkpt lat="45.2224" lon="6.01496">
        <ele>1679.4470214844</ele>
        <time>2017-03-17T08:06:02Z</time>
      </trkpt>
      <trkpt lat="45.2224" lon="6.01503">
        <ele>1679.4470214844</ele>
        <time>2017-03-17T08:06:05Z</time>
      </trkpt>
      <trkpt lat="45.22241" lon="6.01512">
        <ele>1678.4470214844</ele>
        <time>2017-03-17T08:06:08Z</time>
      </trkpt>
      <trkpt lat="45.22242" lon="6.01521">
        <ele>1678.4470214844</ele>
        <time>2017-03-17T08:06:12Z</time>
      </trkpt>
      <trkpt lat="45.22243" lon="6.01528">
        <ele>1677.4470214844</ele>
        <time>2017-03-17T08:06:15Z</time>
      </trkpt>
      <trkpt lat="45.22245" lon="6.01535">
        <ele>1679.4470214844</ele>
        <time>2017-03-17T08:06:18Z</time>
      </trkpt>
      <trkpt lat="45.22247" lon="6.01545">
        <ele>1680.4470214844</ele>
        <time>2017-03-17T08:06:21Z</time>
      </trkpt>
      <trkpt lat="45.22249" lon="6.01551">
        <ele>1679.4470214844</ele>
        <time>2017-03-17T08:06:25Z</time>
      </trkpt>
      <trkpt lat="45.22249" lon="6.01561">
        <ele>1680.4470214844</ele>
        <time>2017-03-17T08:06:29Z</time>
      </trkpt>
      <trkpt lat="45.22248" lon="6.0157">
        <ele>1680.4470214844</ele>
        <time>2017-03-17T08:06:32Z</time>
      </trkpt>
      <trkpt lat="45.22248" lon="6.01579">
        <ele>1679.4470214844</ele>
        <time>2017-03-17T08:06:35Z</time>
      </trkpt>
      <trkpt lat="45.22248" lon="6.01588">
        <ele>1681.4470214844</ele>
        <time>2017-03-17T08:06:38Z</time>
      </trkpt>
      <trkpt lat="45.22251" lon="6.01594">
        <ele>1680.4470214844</ele>
        <time>2017-03-17T08:06:42Z</time>
      </trkpt>
      <trkpt lat="45.22251" lon="6.01603">
        <ele>1680.4470214844</ele>
        <time>2017-03-17T08:06:45Z</time>
      </trkpt>
      <trkpt lat="45.22252" lon="6.0161">
        <ele>1681.4470214844</ele>
        <time>2017-03-17T08:06:48Z</time>
      </trkpt>
      <trkpt lat="45.22254" lon="6.01617">
        <ele>1683.4470214844</ele>
        <time>2017-03-17T08:06:53Z</time>
      </trkpt>
      <trkpt lat="45.22257" lon="6.01623">
        <ele>1684.4470214844</ele>
        <time>2017-03-17T08:06:57Z</time>
      </trkpt>
      <trkpt lat="45.22258" lon="6.0163">
        <ele>1684.4470214844</ele>
        <time>2017-03-17T08:06:59Z</time>
      </trkpt>
      <trkpt lat="45.2226" lon="6.01637">
        <ele>1683.4470214844</ele>
        <time>2017-03-17T08:07:03Z</time>
      </trkpt>
      <trkpt lat="45.2226" lon="6.01644">
        <ele>1684.4470214844</ele>
        <time>2017-03-17T08:07:05Z</time>
      </trkpt>
      <trkpt lat="45.2226" lon="6.01651">
        <ele>1684.4470214844</ele>
        <time>2017-03-17T08:07:07Z</time>
      </trkpt>
      <trkpt lat="45.22261" lon="6.01661">
        <ele>1684.4470214844</ele>
        <time>2017-03-17T08:07:10Z</time>
      </trkpt>
      <trkpt lat="45.22263" lon="6.01667">
        <ele>1685.4470214844</ele>
        <time>2017-03-17T08:07:13Z</time>
      </trkpt>
      <trkpt lat="45.22263" lon="6.01675">
        <ele>1684.4470214844</ele>
        <time>2017-03-17T08:07:16Z</time>
      </trkpt>
      <trkpt lat="45.22262" lon="6.01683">
        <ele>1687.4470214844</ele>
        <time>2017-03-17T08:07:19Z</time>
      </trkpt>
      <trkpt lat="45.22263" lon="6.0169">
        <ele>1688.4470214844</ele>
        <time>2017-03-17T08:07:22Z</time>
      </trkpt>
      <trkpt lat="45.22263" lon="6.01699">
        <ele>1687.4470214844</ele>
        <time>2017-03-17T08:07:25Z</time>
      </trkpt>
      <trkpt lat="45.22264" lon="6.01706">
        <ele>1685.4470214844</ele>
        <time>2017-03-17T08:07:28Z</time>
      </trkpt>
      <trkpt lat="45.22263" lon="6.01713">
        <ele>1684.4470214844</ele>
        <time>2017-03-17T08:07:30Z</time>
      </trkpt>
      <trkpt lat="45.22263" lon="6.0172">
        <ele>1684.4470214844</ele>
        <time>2017-03-17T08:07:33Z</time>
      </trkpt>
      <trkpt lat="45.22262" lon="6.01729">
        <ele>1685.4470214844</ele>
        <time>2017-03-17T08:07:36Z</time>
      </trkpt>
      <trkpt lat="45.22262" lon="6.01736">
        <ele>1685.4470214844</ele>
        <time>2017-03-17T08:07:39Z</time>
      </trkpt>
      <trkpt lat="45.22262" lon="6.01743">
        <ele>1683.4470214844</ele>
        <time>2017-03-17T08:07:42Z</time>
      </trkpt>
      <trkpt lat="45.22262" lon="6.0175">
        <ele>1683.4470214844</ele>
        <time>2017-03-17T08:07:45Z</time>
      </trkpt>
      <trkpt lat="45.22263" lon="6.01758">
        <ele>1682.4470214844</ele>
        <time>2017-03-17T08:07:48Z</time>
      </trkpt>
      <trkpt lat="45.22264" lon="6.01767">
        <ele>1683.4470214844</ele>
        <time>2017-03-17T08:07:52Z</time>
      </trkpt>
      <trkpt lat="45.22265" lon="6.01774">
        <ele>1682.4470214844</ele>
        <time>2017-03-17T08:07:56Z</time>
      </trkpt>
      <trkpt lat="45.22266" lon="6.01781">
        <ele>1680.4470214844</ele>
        <time>2017-03-17T08:08:00Z</time>
      </trkpt>
      <trkpt lat="45.22269" lon="6.01787">
        <ele>1681.4470214844</ele>
        <time>2017-03-17T08:08:06Z</time>
      </trkpt>
      <trkpt lat="45.2227" lon="6.01793">
        <ele>1680.4470214844</ele>
        <time>2017-03-17T08:08:10Z</time>
      </trkpt>
      <trkpt lat="45.2227" lon="6.01801">
        <ele>1680.4470214844</ele>
        <time>2017-03-17T08:08:15Z</time>
      </trkpt>
      <trkpt lat="45.22269" lon="6.01808">
        <ele>1685.4470214844</ele>
        <time>2017-03-17T08:08:21Z</time>
      </trkpt>
      <trkpt lat="45.22267" lon="6.01815">
        <ele>1686.4470214844</ele>
        <time>2017-03-17T08:08:26Z</time>
      </trkpt>
      <trkpt lat="45.22263" lon="6.0182">
        <ele>1687.4470214844</ele>
        <time>2017-03-17T08:08:36Z</time>
      </trkpt>
      <trkpt lat="45.22262" lon="6.01826">
        <ele>1687.4470214844</ele>
        <time>2017-03-17T08:08:42Z</time>
      </trkpt>
      <trkpt lat="45.22261" lon="6.01833">
        <ele>1687.4470214844</ele>
        <time>2017-03-17T08:08:47Z</time>
      </trkpt>
      <trkpt lat="45.22261" lon="6.01841">
        <ele>1687.4470214844</ele>
        <time>2017-03-17T08:08:54Z</time>
      </trkpt>
      <trkpt lat="45.2226" lon="6.01847">
        <ele>1687.4470214844</ele>
        <time>2017-03-17T08:08:58Z</time>
      </trkpt>
      <trkpt lat="45.2226" lon="6.01854">
        <ele>1686.4470214844</ele>
        <time>2017-03-17T08:09:02Z</time>
      </trkpt>
      <trkpt lat="45.22259" lon="6.01861">
        <ele>1685.4470214844</ele>
        <time>2017-03-17T08:09:06Z</time>
      </trkpt>
      <trkpt lat="45.22258" lon="6.01869">
        <ele>1683.4470214844</ele>
        <time>2017-03-17T08:09:11Z</time>
      </trkpt>
      <trkpt lat="45.22258" lon="6.01878">
        <ele>1683.4470214844</ele>
        <time>2017-03-17T08:09:15Z</time>
      </trkpt>
      <trkpt lat="45.22257" lon="6.01886">
        <ele>1683.4470214844</ele>
        <time>2017-03-17T08:09:18Z</time>
      </trkpt>
      <trkpt lat="45.22256" lon="6.01892">
        <ele>1684.4470214844</ele>
        <time>2017-03-17T08:09:22Z</time>
      </trkpt>
      <trkpt lat="45.22255" lon="6.01901">
        <ele>1686.4470214844</ele>
        <time>2017-03-17T08:09:26Z</time>
      </trkpt>
      <trkpt lat="45.22253" lon="6.01909">
        <ele>1688.4470214844</ele>
        <time>2017-03-17T08:09:30Z</time>
      </trkpt>
      <trkpt lat="45.22252" lon="6.01915">
        <ele>1686.4470214844</ele>
        <time>2017-03-17T08:09:33Z</time>
      </trkpt>
      <trkpt lat="45.22249" lon="6.01922">
        <ele>1685.4470214844</ele>
        <time>2017-03-17T08:09:38Z</time>
      </trkpt>
      <trkpt lat="45.22247" lon="6.0193">
        <ele>1687.4470214844</ele>
        <time>2017-03-17T08:09:44Z</time>
      </trkpt>
      <trkpt lat="45.22246" lon="6.01937">
        <ele>1685.4470214844</ele>
        <time>2017-03-17T08:09:47Z</time>
      </trkpt>
      <trkpt lat="45.22245" lon="6.01945">
        <ele>1686.4470214844</ele>
        <time>2017-03-17T08:09:51Z</time>
      </trkpt>
      <trkpt lat="45.22246" lon="6.01952">
        <ele>1688.4470214844</ele>
        <time>2017-03-17T08:09:55Z</time>
      </trkpt>
      <trkpt lat="45.22247" lon="6.01958">
        <ele>1691.4470214844</ele>
        <time>2017-03-17T08:10:00Z</time>
      </trkpt>
      <trkpt lat="45.22248" lon="6.01965">
        <ele>1690.4470214844</ele>
        <time>2017-03-17T08:10:04Z</time>
      </trkpt>
      <trkpt lat="45.22249" lon="6.01972">
        <ele>1691.4470214844</ele>
        <time>2017-03-17T08:10:09Z</time>
      </trkpt>
      <trkpt lat="45.22248" lon="6.01982">
        <ele>1691.4470214844</ele>
        <time>2017-03-17T08:10:14Z</time>
      </trkpt>
      <trkpt lat="45.22246" lon="6.01988">
        <ele>1691.4470214844</ele>
        <time>2017-03-17T08:10:16Z</time>
      </trkpt>
      <trkpt lat="45.22245" lon="6.01996">
        <ele>1693.4470214844</ele>
        <time>2017-03-17T08:10:20Z</time>
      </trkpt>
      <trkpt lat="45.22243" lon="6.02003">
        <ele>1696.4470214844</ele>
        <time>2017-03-17T08:10:26Z</time>
      </trkpt>
      <trkpt lat="45.22244" lon="6.02009">
        <ele>1692.4470214844</ele>
        <time>2017-03-17T08:10:31Z</time>
      </trkpt>
      <trkpt lat="45.22246" lon="6.02016">
        <ele>1692.4470214844</ele>
        <time>2017-03-17T08:10:35Z</time>
      </trkpt>
      <trkpt lat="45.22245" lon="6.02023">
        <ele>1695.4470214844</ele>
        <time>2017-03-17T08:10:41Z</time>
      </trkpt>
      <trkpt lat="45.22245" lon="6.02031">
        <ele>1699.4470214844</ele>
        <time>2017-03-17T08:10:48Z</time>
      </trkpt>
      <trkpt lat="45.22246" lon="6.02038">
        <ele>1701.4470214844</ele>
        <time>2017-03-17T08:10:53Z</time>
      </trkpt>
      <trkpt lat="45.22247" lon="6.02045">
        <ele>1702.4470214844</ele>
        <time>2017-03-17T08:10:59Z</time>
      </trkpt>
      <trkpt lat="45.22247" lon="6.02051">
        <ele>1701.4470214844</ele>
        <time>2017-03-17T08:11:05Z</time>
      </trkpt>
      <trkpt lat="45.22247" lon="6.02058">
        <ele>1701.4470214844</ele>
        <time>2017-03-17T08:11:09Z</time>
      </trkpt>
      <trkpt lat="45.22248" lon="6.02065">
        <ele>1705.4470214844</ele>
        <time>2017-03-17T08:11:14Z</time>
      </trkpt>
      <trkpt lat="45.2225" lon="6.02072">
        <ele>1706.4470214844</ele>
        <time>2017-03-17T08:11:20Z</time>
      </trkpt>
      <trkpt lat="45.22252" lon="6.02078">
        <ele>1706.4470214844</ele>
        <time>2017-03-17T08:11:25Z</time>
      </trkpt>
      <trkpt lat="45.22254" lon="6.02084">
        <ele>1710.4470214844</ele>
        <time>2017-03-17T08:11:30Z</time>
      </trkpt>
      <trkpt lat="45.22257" lon="6.02089">
        <ele>1710.4470214844</ele>
        <time>2017-03-17T08:11:36Z</time>
      </trkpt>
      <trkpt lat="45.2226" lon="6.02094">
        <ele>1715.4470214844</ele>
        <time>2017-03-17T08:11:41Z</time>
      </trkpt>
      <trkpt lat="45.22263" lon="6.02099">
        <ele>1718.4470214844</ele>
        <time>2017-03-17T08:11:48Z</time>
      </trkpt>
      <trkpt lat="45.22266" lon="6.02104">
        <ele>1723.4470214844</ele>
        <time>2017-03-17T08:11:52Z</time>
      </trkpt>
      <trkpt lat="45.22267" lon="6.02111">
        <ele>1718.4470214844</ele>
        <time>2017-03-17T08:11:56Z</time>
      </trkpt>
      <trkpt lat="45.2227" lon="6.02118">
        <ele>1717.4470214844</ele>
        <time>2017-03-17T08:12:03Z</time>
      </trkpt>
      <trkpt lat="45.22272" lon="6.02124">
        <ele>1715.4470214844</ele>
        <time>2017-03-17T08:12:07Z</time>
      </trkpt>
      <trkpt lat="45.22274" lon="6.02129">
        <ele>1718.4479980469</ele>
        <time>2017-03-17T08:12:12Z</time>
      </trkpt>
      <trkpt lat="45.22278" lon="6.02134">
        <ele>1720.4479980469</ele>
        <time>2017-03-17T08:12:18Z</time>
      </trkpt>
      <trkpt lat="45.22282" lon="6.02141">
        <ele>1722.4479980469</ele>
        <time>2017-03-17T08:12:23Z</time>
      </trkpt>
      <trkpt lat="45.22287" lon="6.02145">
        <ele>1722.4479980469</ele>
        <time>2017-03-17T08:12:29Z</time>
      </trkpt>
      <trkpt lat="45.22293" lon="6.02149">
        <ele>1721.4479980469</ele>
        <time>2017-03-17T08:12:33Z</time>
      </trkpt>
      <trkpt lat="45.22295" lon="6.02154">
        <ele>1720.4479980469</ele>
        <time>2017-03-17T08:12:38Z</time>
      </trkpt>
      <trkpt lat="45.22298" lon="6.0216">
        <ele>1717.4479980469</ele>
        <time>2017-03-17T08:12:43Z</time>
      </trkpt>
      <trkpt lat="45.22302" lon="6.02164">
        <ele>1720.4479980469</ele>
        <time>2017-03-17T08:12:47Z</time>
      </trkpt>
      <trkpt lat="45.22305" lon="6.02171">
        <ele>1722.4479980469</ele>
        <time>2017-03-17T08:12:51Z</time>
      </trkpt>
      <trkpt lat="45.22308" lon="6.02176">
        <ele>1722.4479980469</ele>
        <time>2017-03-17T08:12:55Z</time>
      </trkpt>
      <trkpt lat="45.22309" lon="6.02184">
        <ele>1721.4479980469</ele>
        <time>2017-03-17T08:12:59Z</time>
      </trkpt>
      <trkpt lat="45.22311" lon="6.0219">
        <ele>1721.4479980469</ele>
        <time>2017-03-17T08:13:10Z</time>
      </trkpt>
      <trkpt lat="45.22314" lon="6.02196">
        <ele>1725.4479980469</ele>
        <time>2017-03-17T08:13:15Z</time>
      </trkpt>
      <trkpt lat="45.22316" lon="6.02203">
        <ele>1726.4479980469</ele>
        <time>2017-03-17T08:13:19Z</time>
      </trkpt>
      <trkpt lat="45.22318" lon="6.02211">
        <ele>1729.4479980469</ele>
        <time>2017-03-17T08:13:25Z</time>
      </trkpt>
      <trkpt lat="45.22321" lon="6.02217">
        <ele>1733.4479980469</ele>
        <time>2017-03-17T08:13:31Z</time>
      </trkpt>
      <trkpt lat="45.22325" lon="6.02221">
        <ele>1740.4479980469</ele>
        <time>2017-03-17T08:13:36Z</time>
      </trkpt>
      <trkpt lat="45.22324" lon="6.02228">
        <ele>1739.4479980469</ele>
        <time>2017-03-17T08:13:41Z</time>
      </trkpt>
      <trkpt lat="45.22327" lon="6.02235">
        <ele>1739.4479980469</ele>
        <time>2017-03-17T08:13:47Z</time>
      </trkpt>
      <trkpt lat="45.22329" lon="6.02241">
        <ele>1738.4479980469</ele>
        <time>2017-03-17T08:13:52Z</time>
      </trkpt>
      <trkpt lat="45.22334" lon="6.02242">
        <ele>1741.4479980469</ele>
        <time>2017-03-17T08:13:59Z</time>
      </trkpt>
      <trkpt lat="45.22336" lon="6.02249">
        <ele>1741.4479980469</ele>
        <time>2017-03-17T08:14:03Z</time>
      </trkpt>
      <trkpt lat="45.22338" lon="6.02255">
        <ele>1746.4479980469</ele>
        <time>2017-03-17T08:14:08Z</time>
      </trkpt>
      <trkpt lat="45.22339" lon="6.02263">
        <ele>1744.4479980469</ele>
        <time>2017-03-17T08:14:18Z</time>
      </trkpt>
      <trkpt lat="45.22342" lon="6.02269">
        <ele>1746.4479980469</ele>
        <time>2017-03-17T08:14:23Z</time>
      </trkpt>
      <trkpt lat="45.22345" lon="6.02276">
        <ele>1749.4479980469</ele>
        <time>2017-03-17T08:14:29Z</time>
      </trkpt>
      <trkpt lat="45.22347" lon="6.02284">
        <ele>1749.4479980469</ele>
        <time>2017-03-17T08:14:37Z</time>
      </trkpt>
      <trkpt lat="45.22344" lon="6.02289">
        <ele>1746.4479980469</ele>
        <time>2017-03-17T08:14:45Z</time>
      </trkpt>
      <trkpt lat="45.22347" lon="6.02295">
        <ele>1747.4479980469</ele>
        <time>2017-03-17T08:14:50Z</time>
      </trkpt>
      <trkpt lat="45.22349" lon="6.02303">
        <ele>1752.4479980469</ele>
        <time>2017-03-17T08:14:54Z</time>
      </trkpt>
      <trkpt lat="45.22352" lon="6.02308">
        <ele>1751.4479980469</ele>
        <time>2017-03-17T08:15:00Z</time>
      </trkpt>
      <trkpt lat="45.22355" lon="6.02314">
        <ele>1755.4479980469</ele>
        <time>2017-03-17T08:15:05Z</time>
      </trkpt>
      <trkpt lat="45.22357" lon="6.0232">
        <ele>1758.4479980469</ele>
        <time>2017-03-17T08:15:12Z</time>
      </trkpt>
      <trkpt lat="45.22362" lon="6.02325">
        <ele>1761.4479980469</ele>
        <time>2017-03-17T08:15:18Z</time>
      </trkpt>
      <trkpt lat="45.22363" lon="6.02332">
        <ele>1760.4479980469</ele>
        <time>2017-03-17T08:15:24Z</time>
      </trkpt>
      <trkpt lat="45.22368" lon="6.02337">
        <ele>1759.4479980469</ele>
        <time>2017-03-17T08:15:27Z</time>
      </trkpt>
      <trkpt lat="45.22371" lon="6.02342">
        <ele>1773.4479980469</ele>
        <time>2017-03-17T08:15:40Z</time>
      </trkpt>
      <trkpt lat="45.22374" lon="6.02348">
        <ele>1774.4479980469</ele>
        <time>2017-03-17T08:15:46Z</time>
      </trkpt>
      <trkpt lat="45.22379" lon="6.02351">
        <ele>1775.4479980469</ele>
        <time>2017-03-17T08:15:51Z</time>
      </trkpt>
      <trkpt lat="45.22383" lon="6.02355">
        <ele>1775.4479980469</ele>
        <time>2017-03-17T08:15:55Z</time>
      </trkpt>
      <trkpt lat="45.22387" lon="6.0236">
        <ele>1776.4479980469</ele>
        <time>2017-03-17T08:16:02Z</time>
      </trkpt>
      <trkpt lat="45.22391" lon="6.02364">
        <ele>1778.4479980469</ele>
        <time>2017-03-17T08:16:11Z</time>
      </trkpt>
      <trkpt lat="45.22396" lon="6.02368">
        <ele>1778.4479980469</ele>
        <time>2017-03-17T08:16:16Z</time>
      </trkpt>
      <trkpt lat="45.22399" lon="6.02373">
        <ele>1781.4479980469</ele>
        <time>2017-03-17T08:16:24Z</time>
      </trkpt>
      <trkpt lat="45.22401" lon="6.02379">
        <ele>1777.4479980469</ele>
        <time>2017-03-17T08:16:31Z</time>
      </trkpt>
      <trkpt lat="45.22406" lon="6.02381">
        <ele>1785.4479980469</ele>
        <time>2017-03-17T08:16:41Z</time>
      </trkpt>
      <trkpt lat="45.22411" lon="6.02382">
        <ele>1790.4479980469</ele>
        <time>2017-03-17T08:16:47Z</time>
      </trkpt>
      <trkpt lat="45.22413" lon="6.02389">
        <ele>1795.4479980469</ele>
        <time>2017-03-17T08:17:11Z</time>
      </trkpt>
      <trkpt lat="45.22419" lon="6.0239">
        <ele>1796.4479980469</ele>
        <time>2017-03-17T08:17:17Z</time>
      </trkpt>
      <trkpt lat="45.22422" lon="6.02396">
        <ele>1797.4479980469</ele>
        <time>2017-03-17T08:17:24Z</time>
      </trkpt>
      <trkpt lat="45.22426" lon="6.02402">
        <ele>1797.4479980469</ele>
        <time>2017-03-17T08:17:28Z</time>
      </trkpt>
      <trkpt lat="45.2243" lon="6.02406">
        <ele>1800.4479980469</ele>
        <time>2017-03-17T08:17:33Z</time>
      </trkpt>
      <trkpt lat="45.22431" lon="6.02412">
        <ele>1801.4479980469</ele>
        <time>2017-03-17T08:17:39Z</time>
      </trkpt>
      <trkpt lat="45.22433" lon="6.02418">
        <ele>1805.4479980469</ele>
        <time>2017-03-17T08:17:47Z</time>
      </trkpt>
      <trkpt lat="45.22438" lon="6.02422">
        <ele>1803.4479980469</ele>
        <time>2017-03-17T08:17:58Z</time>
      </trkpt>
      <trkpt lat="45.22443" lon="6.02424">
        <ele>1803.4479980469</ele>
        <time>2017-03-17T08:18:07Z</time>
      </trkpt>
      <trkpt lat="45.22447" lon="6.02426">
        <ele>1808.4479980469</ele>
        <time>2017-03-17T08:18:17Z</time>
      </trkpt>
      <trkpt lat="45.22449" lon="6.02432">
        <ele>1807.4479980469</ele>
        <time>2017-03-17T08:18:21Z</time>
      </trkpt>
      <trkpt lat="45.2245" lon="6.02439">
        <ele>1806.4479980469</ele>
        <time>2017-03-17T08:18:26Z</time>
      </trkpt>
      <trkpt lat="45.22452" lon="6.02445">
        <ele>1810.4479980469</ele>
        <time>2017-03-17T08:18:35Z</time>
      </trkpt>
      <trkpt lat="45.22453" lon="6.02451">
        <ele>1816.4479980469</ele>
        <time>2017-03-17T08:18:40Z</time>
      </trkpt>
      <trkpt lat="45.22457" lon="6.02455">
        <ele>1816.4479980469</ele>
        <time>2017-03-17T08:18:48Z</time>
      </trkpt>
      <trkpt lat="45.22462" lon="6.02454">
        <ele>1820.4479980469</ele>
        <time>2017-03-17T08:18:56Z</time>
      </trkpt>
      <trkpt lat="45.22467" lon="6.02454">
        <ele>1821.4479980469</ele>
        <time>2017-03-17T08:19:01Z</time>
      </trkpt>
      <trkpt lat="45.22472" lon="6.02455">
        <ele>1819.4479980469</ele>
        <time>2017-03-17T08:19:07Z</time>
      </trkpt>
      <trkpt lat="45.22477" lon="6.02451">
        <ele>1822.4479980469</ele>
        <time>2017-03-17T08:19:20Z</time>
      </trkpt>
      <trkpt lat="45.22481" lon="6.02447">
        <ele>1820.4479980469</ele>
        <time>2017-03-17T08:19:40Z</time>
      </trkpt>
      <trkpt lat="45.22485" lon="6.02445">
        <ele>1822.4479980469</ele>
        <time>2017-03-17T08:19:46Z</time>
      </trkpt>
      <trkpt lat="45.2249" lon="6.02446">
        <ele>1823.4479980469</ele>
        <time>2017-03-17T08:19:52Z</time>
      </trkpt>
      <trkpt lat="45.22495" lon="6.02444">
        <ele>1825.4479980469</ele>
        <time>2017-03-17T08:19:58Z</time>
      </trkpt>
      <trkpt lat="45.22499" lon="6.02441">
        <ele>1827.4479980469</ele>
        <time>2017-03-17T08:20:04Z</time>
      </trkpt>
      <trkpt lat="45.22503" lon="6.02436">
        <ele>1832.4479980469</ele>
        <time>2017-03-17T08:20:10Z</time>
      </trkpt>
      <trkpt lat="45.22509" lon="6.02431">
        <ele>1832.4479980469</ele>
        <time>2017-03-17T08:20:16Z</time>
      </trkpt>
      <trkpt lat="45.22514" lon="6.02427">
        <ele>1833.4479980469</ele>
        <time>2017-03-17T08:20:21Z</time>
      </trkpt>
      <trkpt lat="45.22519" lon="6.02427">
        <ele>1831.4479980469</ele>
        <time>2017-03-17T08:20:24Z</time>
      </trkpt>
      <trkpt lat="45.22524" lon="6.02424">
        <ele>1834.4479980469</ele>
        <time>2017-03-17T08:20:29Z</time>
      </trkpt>
      <trkpt lat="45.22528" lon="6.0242">
        <ele>1835.4479980469</ele>
        <time>2017-03-17T08:20:37Z</time>
      </trkpt>
      <trkpt lat="45.22533" lon="6.0242">
        <ele>1836.4479980469</ele>
        <time>2017-03-17T08:20:46Z</time>
      </trkpt>
      <trkpt lat="45.22538" lon="6.02417">
        <ele>1840.4479980469</ele>
        <time>2017-03-17T08:20:53Z</time>
      </trkpt>
      <trkpt lat="45.22544" lon="6.02417">
        <ele>1840.4479980469</ele>
        <time>2017-03-17T08:20:59Z</time>
      </trkpt>
      <trkpt lat="45.22551" lon="6.02417">
        <ele>1840.4479980469</ele>
        <time>2017-03-17T08:21:07Z</time>
      </trkpt>
      <trkpt lat="45.22556" lon="6.02415">
        <ele>1840.4479980469</ele>
        <time>2017-03-17T08:21:12Z</time>
      </trkpt>
      <trkpt lat="45.22561" lon="6.02412">
        <ele>1843.4479980469</ele>
        <time>2017-03-17T08:21:19Z</time>
      </trkpt>
      <trkpt lat="45.22566" lon="6.02407">
        <ele>1845.4479980469</ele>
        <time>2017-03-17T08:21:24Z</time>
      </trkpt>
      <trkpt lat="45.22571" lon="6.02408">
        <ele>1846.4479980469</ele>
        <time>2017-03-17T08:21:30Z</time>
      </trkpt>
      <trkpt lat="45.22577" lon="6.02404">
        <ele>1849.4479980469</ele>
        <time>2017-03-17T08:21:35Z</time>
      </trkpt>
      <trkpt lat="45.22581" lon="6.02398">
        <ele>1853.4479980469</ele>
        <time>2017-03-17T08:21:41Z</time>
      </trkpt>
      <trkpt lat="45.2258" lon="6.02389">
        <ele>1851.4479980469</ele>
        <time>2017-03-17T08:21:47Z</time>
      </trkpt>
      <trkpt lat="45.22579" lon="6.02383">
        <ele>1853.4479980469</ele>
        <time>2017-03-17T08:21:51Z</time>
      </trkpt>
      <trkpt lat="45.22577" lon="6.02375">
        <ele>1856.4479980469</ele>
        <time>2017-03-17T08:21:59Z</time>
      </trkpt>
      <trkpt lat="45.22579" lon="6.02369">
        <ele>1860.4479980469</ele>
        <time>2017-03-17T08:22:07Z</time>
      </trkpt>
      <trkpt lat="45.22581" lon="6.02363">
        <ele>1860.4479980469</ele>
        <time>2017-03-17T08:22:31Z</time>
      </trkpt>
      <trkpt lat="45.22585" lon="6.02359">
        <ele>1861.4479980469</ele>
        <time>2017-03-17T08:22:37Z</time>
      </trkpt>
      <trkpt lat="45.22591" lon="6.02355">
        <ele>1862.4479980469</ele>
        <time>2017-03-17T08:22:46Z</time>
      </trkpt>
      <trkpt lat="45.22593" lon="6.02349">
        <ele>1871.4479980469</ele>
        <time>2017-03-17T08:22:51Z</time>
      </trkpt>
      <trkpt lat="45.22594" lon="6.02341">
        <ele>1870.4479980469</ele>
        <time>2017-03-17T08:22:58Z</time>
      </trkpt>
      <trkpt lat="45.22594" lon="6.02334">
        <ele>1874.4479980469</ele>
        <time>2017-03-17T08:23:07Z</time>
      </trkpt>
      <trkpt lat="45.22595" lon="6.02327">
        <ele>1874.4479980469</ele>
        <time>2017-03-17T08:23:11Z</time>
      </trkpt>
      <trkpt lat="45.22596" lon="6.0232">
        <ele>1874.4479980469</ele>
        <time>2017-03-17T08:23:15Z</time>
      </trkpt>
      <trkpt lat="45.22597" lon="6.02314">
        <ele>1875.4479980469</ele>
        <time>2017-03-17T08:23:20Z</time>
      </trkpt>
      <trkpt lat="45.22599" lon="6.02305">
        <ele>1880.4479980469</ele>
        <time>2017-03-17T08:23:30Z</time>
      </trkpt>
      <trkpt lat="45.22601" lon="6.02299">
        <ele>1885.4479980469</ele>
        <time>2017-03-17T08:23:36Z</time>
      </trkpt>
      <trkpt lat="45.22604" lon="6.02292">
        <ele>1884.4479980469</ele>
        <time>2017-03-17T08:23:41Z</time>
      </trkpt>
      <trkpt lat="45.22607" lon="6.02289">
        <ele>1881.4479980469</ele>
        <time>2017-03-17T08:23:49Z</time>
      </trkpt>
      <trkpt lat="45.22611" lon="6.02285">
        <ele>1884.4479980469</ele>
        <time>2017-03-17T08:23:59Z</time>
      </trkpt>
      <trkpt lat="45.22614" lon="6.0228">
        <ele>1885.4479980469</ele>
        <time>2017-03-17T08:24:03Z</time>
      </trkpt>
      <trkpt lat="45.22619" lon="6.02279">
        <ele>1885.4479980469</ele>
        <time>2017-03-17T08:24:09Z</time>
      </trkpt>
      <trkpt lat="45.22624" lon="6.0228">
        <ele>1883.4479980469</ele>
        <time>2017-03-17T08:24:13Z</time>
      </trkpt>
      <trkpt lat="45.22629" lon="6.02282">
        <ele>1883.4479980469</ele>
        <time>2017-03-17T08:24:17Z</time>
      </trkpt>
      <trkpt lat="45.22632" lon="6.02276">
        <ele>1883.4479980469</ele>
        <time>2017-03-17T08:24:23Z</time>
      </trkpt>
      <trkpt lat="45.22638" lon="6.0227">
        <ele>1889.4479980469</ele>
        <time>2017-03-17T08:24:29Z</time>
      </trkpt>
      <trkpt lat="45.22639" lon="6.02264">
        <ele>1894.4479980469</ele>
        <time>2017-03-17T08:24:34Z</time>
      </trkpt>
      <trkpt lat="45.22642" lon="6.02258">
        <ele>1893.4479980469</ele>
        <time>2017-03-17T08:24:38Z</time>
      </trkpt>
      <trkpt lat="45.22644" lon="6.02252">
        <ele>1896.4479980469</ele>
        <time>2017-03-17T08:24:44Z</time>
      </trkpt>
      <trkpt lat="45.22647" lon="6.02246">
        <ele>1899.4479980469</ele>
        <time>2017-03-17T08:24:52Z</time>
      </trkpt>
      <trkpt lat="45.22649" lon="6.0224">
        <ele>1902.4479980469</ele>
        <time>2017-03-17T08:24:58Z</time>
      </trkpt>
      <trkpt lat="45.22652" lon="6.02235">
        <ele>1904.4479980469</ele>
        <time>2017-03-17T08:25:03Z</time>
      </trkpt>
      <trkpt lat="45.22657" lon="6.02237">
        <ele>1903.4479980469</ele>
        <time>2017-03-17T08:25:10Z</time>
      </trkpt>
      <trkpt lat="45.22661" lon="6.02234">
        <ele>1905.4479980469</ele>
        <time>2017-03-17T08:25:20Z</time>
      </trkpt>
      <trkpt lat="45.22665" lon="6.0223">
        <ele>1918.4479980469</ele>
        <time>2017-03-17T08:29:05Z</time>
      </trkpt>
      <trkpt lat="45.22669" lon="6.02226">
        <ele>1918.4479980469</ele>
        <time>2017-03-17T08:29:10Z</time>
      </trkpt>
      <trkpt lat="45.22672" lon="6.0222">
        <ele>1917.4479980469</ele>
        <time>2017-03-17T08:29:16Z</time>
      </trkpt>
      <trkpt lat="45.22676" lon="6.02215">
        <ele>1916.4479980469</ele>
        <time>2017-03-17T08:29:23Z</time>
      </trkpt>
      <trkpt lat="45.22679" lon="6.02209">
        <ele>1919.4479980469</ele>
        <time>2017-03-17T08:29:31Z</time>
      </trkpt>
      <trkpt lat="45.2268" lon="6.02202">
        <ele>1919.4479980469</ele>
        <time>2017-03-17T08:29:40Z</time>
      </trkpt>
      <trkpt lat="45.22682" lon="6.02196">
        <ele>1920.4479980469</ele>
        <time>2017-03-17T08:29:45Z</time>
      </trkpt>
      <trkpt lat="45.22684" lon="6.02189">
        <ele>1921.4479980469</ele>
        <time>2017-03-17T08:29:51Z</time>
      </trkpt>
      <trkpt lat="45.22685" lon="6.02183">
        <ele>1924.4479980469</ele>
        <time>2017-03-17T08:30:01Z</time>
      </trkpt>
      <trkpt lat="45.22688" lon="6.02178">
        <ele>1925.4479980469</ele>
        <time>2017-03-17T08:30:10Z</time>
      </trkpt>
      <trkpt lat="45.22687" lon="6.02171">
        <ele>1924.4479980469</ele>
        <time>2017-03-17T08:30:17Z</time>
      </trkpt>
      <trkpt lat="45.22691" lon="6.02168">
        <ele>1928.4479980469</ele>
        <time>2017-03-17T08:30:26Z</time>
      </trkpt>
      <trkpt lat="45.22697" lon="6.02171">
        <ele>1929.4479980469</ele>
        <time>2017-03-17T08:30:32Z</time>
      </trkpt>
      <trkpt lat="45.22701" lon="6.02174">
        <ele>1927.4479980469</ele>
        <time>2017-03-17T08:30:37Z</time>
      </trkpt>
      <trkpt lat="45.22702" lon="6.02167">
        <ele>1923.4479980469</ele>
        <time>2017-03-17T08:30:47Z</time>
      </trkpt>
      <trkpt lat="45.227" lon="6.0216">
        <ele>1924.4479980469</ele>
        <time>2017-03-17T08:30:54Z</time>
      </trkpt>
      <trkpt lat="45.22697" lon="6.02154">
        <ele>1926.4479980469</ele>
        <time>2017-03-17T08:30:59Z</time>
      </trkpt>
      <trkpt lat="45.22696" lon="6.02148">
        <ele>1931.4479980469</ele>
        <time>2017-03-17T08:31:10Z</time>
      </trkpt>
      <trkpt lat="45.22693" lon="6.02142">
        <ele>1932.4479980469</ele>
        <time>2017-03-17T08:31:15Z</time>
      </trkpt>
      <trkpt lat="45.22697" lon="6.02137">
        <ele>1932.4479980469</ele>
        <time>2017-03-17T08:31:22Z</time>
      </trkpt>
      <trkpt lat="45.22701" lon="6.02135">
        <ele>1932.4479980469</ele>
        <time>2017-03-17T08:31:30Z</time>
      </trkpt>
      <trkpt lat="45.22706" lon="6.02133">
        <ele>1931.4479980469</ele>
        <time>2017-03-17T08:31:38Z</time>
      </trkpt>
      <trkpt lat="45.22711" lon="6.02131">
        <ele>1935.4479980469</ele>
        <time>2017-03-17T08:31:44Z</time>
      </trkpt>
      <trkpt lat="45.22716" lon="6.0213">
        <ele>1940.4479980469</ele>
        <time>2017-03-17T08:31:51Z</time>
      </trkpt>
      <trkpt lat="45.22721" lon="6.02132">
        <ele>1935.4479980469</ele>
        <time>2017-03-17T08:31:58Z</time>
      </trkpt>
      <trkpt lat="45.22726" lon="6.02134">
        <ele>1940.4479980469</ele>
        <time>2017-03-17T08:32:06Z</time>
      </trkpt>
      <trkpt lat="45.2273" lon="6.02135">
        <ele>1947.4479980469</ele>
        <time>2017-03-17T08:32:17Z</time>
      </trkpt>
      <trkpt lat="45.22735" lon="6.02136">
        <ele>1950.4479980469</ele>
        <time>2017-03-17T08:32:21Z</time>
      </trkpt>
      <trkpt lat="45.22739" lon="6.0214">
        <ele>1955.4479980469</ele>
        <time>2017-03-17T08:32:30Z</time>
      </trkpt>
      <trkpt lat="45.22741" lon="6.02146">
        <ele>1959.4479980469</ele>
        <time>2017-03-17T08:32:36Z</time>
      </trkpt>
      <trkpt lat="45.22743" lon="6.02153">
        <ele>1960.4479980469</ele>
        <time>2017-03-17T08:32:42Z</time>
      </trkpt>
      <trkpt lat="45.22746" lon="6.02147">
        <ele>1963.4479980469</ele>
        <time>2017-03-17T08:32:56Z</time>
      </trkpt>
      <trkpt lat="45.22749" lon="6.02142">
        <ele>1962.4479980469</ele>
        <time>2017-03-17T08:33:01Z</time>
      </trkpt>
      <trkpt lat="45.22752" lon="6.02137">
        <ele>1959.4479980469</ele>
        <time>2017-03-17T08:33:06Z</time>
      </trkpt>
      <trkpt lat="45.22753" lon="6.02131">
        <ele>1962.4479980469</ele>
        <time>2017-03-17T08:33:13Z</time>
      </trkpt>
      <trkpt lat="45.22759" lon="6.02129">
        <ele>1967.4479980469</ele>
        <time>2017-03-17T08:33:22Z</time>
      </trkpt>
      <trkpt lat="45.22764" lon="6.0213">
        <ele>1966.4479980469</ele>
        <time>2017-03-17T08:33:34Z</time>
      </trkpt>
      <trkpt lat="45.22764" lon="6.02123">
        <ele>1972.4479980469</ele>
        <time>2017-03-17T08:33:42Z</time>
      </trkpt>
      <trkpt lat="45.22767" lon="6.02117">
        <ele>1974.4479980469</ele>
        <time>2017-03-17T08:33:51Z</time>
      </trkpt>
      <trkpt lat="45.22766" lon="6.0211">
        <ele>1972.4479980469</ele>
        <time>2017-03-17T08:34:00Z</time>
      </trkpt>
      <trkpt lat="45.22764" lon="6.02105">
        <ele>1973.4479980469</ele>
        <time>2017-03-17T08:34:08Z</time>
      </trkpt>
      <trkpt lat="45.22762" lon="6.02099">
        <ele>1975.4479980469</ele>
        <time>2017-03-17T08:34:15Z</time>
      </trkpt>
      <trkpt lat="45.22758" lon="6.02096">
        <ele>1979.4479980469</ele>
        <time>2017-03-17T08:34:21Z</time>
      </trkpt>
      <trkpt lat="45.22757" lon="6.02089">
        <ele>1982.4479980469</ele>
        <time>2017-03-17T08:34:27Z</time>
      </trkpt>
      <trkpt lat="45.22756" lon="6.02083">
        <ele>1984.4479980469</ele>
        <time>2017-03-17T08:34:34Z</time>
      </trkpt>
      <trkpt lat="45.22759" lon="6.02077">
        <ele>1983.4479980469</ele>
        <time>2017-03-17T08:34:48Z</time>
      </trkpt>
      <trkpt lat="45.22764" lon="6.02078">
        <ele>1985.4479980469</ele>
        <time>2017-03-17T08:35:00Z</time>
      </trkpt>
      <trkpt lat="45.22769" lon="6.02081">
        <ele>1984.4479980469</ele>
        <time>2017-03-17T08:35:04Z</time>
      </trkpt>
      <trkpt lat="45.22773" lon="6.02081">
        <ele>1984.4479980469</ele>
        <time>2017-03-17T08:35:10Z</time>
      </trkpt>
      <trkpt lat="45.22778" lon="6.0208">
        <ele>1983.4479980469</ele>
        <time>2017-03-17T08:35:14Z</time>
      </trkpt>
      <trkpt lat="45.22781" lon="6.02075">
        <ele>1989.4479980469</ele>
        <time>2017-03-17T08:35:21Z</time>
      </trkpt>
      <trkpt lat="45.22786" lon="6.02074">
        <ele>1987.4479980469</ele>
        <time>2017-03-17T08:35:25Z</time>
      </trkpt>
      <trkpt lat="45.22791" lon="6.02074">
        <ele>1991.4479980469</ele>
        <time>2017-03-17T08:35:30Z</time>
      </trkpt>
      <trkpt lat="45.22796" lon="6.02074">
        <ele>1991.4479980469</ele>
        <time>2017-03-17T08:35:37Z</time>
      </trkpt>
      <trkpt lat="45.228" lon="6.0207">
        <ele>1991.4479980469</ele>
        <time>2017-03-17T08:35:41Z</time>
      </trkpt>
      <trkpt lat="45.22803" lon="6.02064">
        <ele>1994.4479980469</ele>
        <time>2017-03-17T08:35:46Z</time>
      </trkpt>
      <trkpt lat="45.22801" lon="6.02059">
        <ele>1999.4479980469</ele>
        <time>2017-03-17T08:35:56Z</time>
      </trkpt>
      <trkpt lat="45.22799" lon="6.02052">
        <ele>2001.4479980469</ele>
        <time>2017-03-17T08:36:04Z</time>
      </trkpt>
      <trkpt lat="45.22801" lon="6.02046">
        <ele>2005.4479980469</ele>
        <time>2017-03-17T08:36:21Z</time>
      </trkpt>
      <trkpt lat="45.22804" lon="6.02042">
        <ele>2003.4479980469</ele>
        <time>2017-03-17T08:36:32Z</time>
      </trkpt>
      <trkpt lat="45.22809" lon="6.02038">
        <ele>2005.4479980469</ele>
        <time>2017-03-17T08:36:44Z</time>
      </trkpt>
      <trkpt lat="45.22813" lon="6.02033">
        <ele>2010.4479980469</ele>
        <time>2017-03-17T08:36:53Z</time>
      </trkpt>
      <trkpt lat="45.22817" lon="6.02029">
        <ele>2009.4479980469</ele>
        <time>2017-03-17T08:36:58Z</time>
      </trkpt>
      <trkpt lat="45.22821" lon="6.02026">
        <ele>2010.4479980469</ele>
        <time>2017-03-17T08:37:04Z</time>
      </trkpt>
      <trkpt lat="45.22823" lon="6.02019">
        <ele>2015.4479980469</ele>
        <time>2017-03-17T08:37:13Z</time>
      </trkpt>
      <trkpt lat="45.22825" lon="6.02013">
        <ele>2019.4479980469</ele>
        <time>2017-03-17T08:37:22Z</time>
      </trkpt>
      <trkpt lat="45.22823" lon="6.02006">
        <ele>2022.4479980469</ele>
        <time>2017-03-17T08:37:27Z</time>
      </trkpt>
      <trkpt lat="45.22821" lon="6.01999">
        <ele>2023.4479980469</ele>
        <time>2017-03-17T08:37:34Z</time>
      </trkpt>
      <trkpt lat="45.2282" lon="6.01993">
        <ele>2023.4479980469</ele>
        <time>2017-03-17T08:37:46Z</time>
      </trkpt>
      <trkpt lat="45.22816" lon="6.01988">
        <ele>2023.4479980469</ele>
        <time>2017-03-17T08:37:51Z</time>
      </trkpt>
      <trkpt lat="45.22812" lon="6.01982">
        <ele>2025.4479980469</ele>
        <time>2017-03-17T08:37:55Z</time>
      </trkpt>
      <trkpt lat="45.2281" lon="6.01975">
        <ele>2026.4479980469</ele>
        <time>2017-03-17T08:38:03Z</time>
      </trkpt>
      <trkpt lat="45.2281" lon="6.01968">
        <ele>2025.4479980469</ele>
        <time>2017-03-17T08:38:09Z</time>
      </trkpt>
      <trkpt lat="45.22809" lon="6.01962">
        <ele>2025.4479980469</ele>
        <time>2017-03-17T08:38:14Z</time>
      </trkpt>
      <trkpt lat="45.22807" lon="6.01955">
        <ele>2025.4479980469</ele>
        <time>2017-03-17T08:38:18Z</time>
      </trkpt>
      <trkpt lat="45.22806" lon="6.01948">
        <ele>2028.4479980469</ele>
        <time>2017-03-17T08:38:24Z</time>
      </trkpt>
      <trkpt lat="45.22806" lon="6.0194">
        <ele>2030.4479980469</ele>
        <time>2017-03-17T08:38:31Z</time>
      </trkpt>
      <trkpt lat="45.22805" lon="6.01932">
        <ele>2031.4479980469</ele>
        <time>2017-03-17T08:38:36Z</time>
      </trkpt>
      <trkpt lat="45.22806" lon="6.01925">
        <ele>2033.4479980469</ele>
        <time>2017-03-17T08:38:46Z</time>
      </trkpt>
      <trkpt lat="45.22803" lon="6.0192">
        <ele>2037.4479980469</ele>
        <time>2017-03-17T08:38:52Z</time>
      </trkpt>
      <trkpt lat="45.22803" lon="6.01914">
        <ele>2041.4479980469</ele>
        <time>2017-03-17T08:38:59Z</time>
      </trkpt>
      <trkpt lat="45.22805" lon="6.01908">
        <ele>2045.4479980469</ele>
        <time>2017-03-17T08:39:22Z</time>
      </trkpt>
      <trkpt lat="45.2281" lon="6.01906">
        <ele>2046.4479980469</ele>
        <time>2017-03-17T08:39:38Z</time>
      </trkpt>
      <trkpt lat="45.22814" lon="6.01902">
        <ele>2057.4479980469</ele>
        <time>2017-03-17T08:40:09Z</time>
      </trkpt>
      <trkpt lat="45.22815" lon="6.01895">
        <ele>2060.4479980469</ele>
        <time>2017-03-17T08:40:19Z</time>
      </trkpt>
      <trkpt lat="45.22817" lon="6.0189">
        <ele>2059.4479980469</ele>
        <time>2017-03-17T08:40:39Z</time>
      </trkpt>
      <trkpt lat="45.22819" lon="6.01884">
        <ele>2062.4479980469</ele>
        <time>2017-03-17T08:40:53Z</time>
      </trkpt>
      <trkpt lat="45.2282" lon="6.01877">
        <ele>2062.4479980469</ele>
        <time>2017-03-17T08:41:03Z</time>
      </trkpt>
      <trkpt lat="45.2282" lon="6.0187">
        <ele>2069.4479980469</ele>
        <time>2017-03-17T08:41:30Z</time>
      </trkpt>
      <trkpt lat="45.22819" lon="6.01863">
        <ele>2072.4479980469</ele>
        <time>2017-03-17T08:41:37Z</time>
      </trkpt>
      <trkpt lat="45.2282" lon="6.01855">
        <ele>2069.4479980469</ele>
        <time>2017-03-17T08:41:42Z</time>
      </trkpt>
      <trkpt lat="45.22817" lon="6.01847">
        <ele>2068.4479980469</ele>
        <time>2017-03-17T08:41:50Z</time>
      </trkpt>
      <trkpt lat="45.22815" lon="6.01841">
        <ele>2073.4479980469</ele>
        <time>2017-03-17T08:41:59Z</time>
      </trkpt>
      <trkpt lat="45.22813" lon="6.01835">
        <ele>2076.4479980469</ele>
        <time>2017-03-17T08:42:18Z</time>
      </trkpt>
      <trkpt lat="45.2281" lon="6.0183">
        <ele>2077.4479980469</ele>
        <time>2017-03-17T08:42:22Z</time>
      </trkpt>
      <trkpt lat="45.22808" lon="6.01824">
        <ele>2078.4479980469</ele>
        <time>2017-03-17T08:42:26Z</time>
      </trkpt>
      <trkpt lat="45.22805" lon="6.01819">
        <ele>2082.4479980469</ele>
        <time>2017-03-17T08:42:37Z</time>
      </trkpt>
      <trkpt lat="45.2281" lon="6.01814">
        <ele>2083.4479980469</ele>
        <time>2017-03-17T08:42:44Z</time>
      </trkpt>
      <trkpt lat="45.22815" lon="6.0181">
        <ele>2083.4479980469</ele>
        <time>2017-03-17T08:42:55Z</time>
      </trkpt>
      <trkpt lat="45.2282" lon="6.0181">
        <ele>2087.4479980469</ele>
        <time>2017-03-17T08:43:09Z</time>
      </trkpt>
      <trkpt lat="45.22823" lon="6.01815">
        <ele>2091.4479980469</ele>
        <time>2017-03-17T08:43:30Z</time>
      </trkpt>
      <trkpt lat="45.22829" lon="6.01816">
        <ele>2093.4479980469</ele>
        <time>2017-03-17T08:43:40Z</time>
      </trkpt>
      <trkpt lat="45.22833" lon="6.01811">
        <ele>2092.4479980469</ele>
        <time>2017-03-17T08:43:45Z</time>
      </trkpt>
      <trkpt lat="45.22835" lon="6.01818">
        <ele>2099.4479980469</ele>
        <time>2017-03-17T08:43:59Z</time>
      </trkpt>
      <trkpt lat="45.2284" lon="6.01822">
        <ele>2098.4479980469</ele>
        <time>2017-03-17T08:44:05Z</time>
      </trkpt>
      <trkpt lat="45.22845" lon="6.01821">
        <ele>2101.4479980469</ele>
        <time>2017-03-17T08:44:09Z</time>
      </trkpt>
      <trkpt lat="45.22848" lon="6.01825">
        <ele>2102.4479980469</ele>
        <time>2017-03-17T08:44:15Z</time>
      </trkpt>
      <trkpt lat="45.22847" lon="6.01818">
        <ele>2103.4479980469</ele>
        <time>2017-03-17T08:44:24Z</time>
      </trkpt>
      <trkpt lat="45.22853" lon="6.01819">
        <ele>2105.4479980469</ele>
        <time>2017-03-17T08:44:34Z</time>
      </trkpt>
      <trkpt lat="45.22857" lon="6.01821">
        <ele>2107.4479980469</ele>
        <time>2017-03-17T08:44:40Z</time>
      </trkpt>
      <trkpt lat="45.22854" lon="6.01815">
        <ele>2109.4479980469</ele>
        <time>2017-03-17T08:44:53Z</time>
      </trkpt>
      <trkpt lat="45.22859" lon="6.01816">
        <ele>2112.4479980469</ele>
        <time>2017-03-17T08:45:08Z</time>
      </trkpt>
      <trkpt lat="45.22863" lon="6.01819">
        <ele>2115.4479980469</ele>
        <time>2017-03-17T08:45:16Z</time>
      </trkpt>
      <trkpt lat="45.22868" lon="6.01822">
        <ele>2118.4479980469</ele>
        <time>2017-03-17T08:45:24Z</time>
      </trkpt>
      <trkpt lat="45.22867" lon="6.01816">
        <ele>2118.4479980469</ele>
        <time>2017-03-17T08:45:32Z</time>
      </trkpt>
      <trkpt lat="45.22871" lon="6.01819">
        <ele>2116.4479980469</ele>
        <time>2017-03-17T08:45:45Z</time>
      </trkpt>
      <trkpt lat="45.22874" lon="6.01824">
        <ele>2116.4479980469</ele>
        <time>2017-03-17T08:45:52Z</time>
      </trkpt>
      <trkpt lat="45.22878" lon="6.0182">
        <ele>2119.4479980469</ele>
        <time>2017-03-17T08:46:05Z</time>
      </trkpt>
      <trkpt lat="45.22881" lon="6.01815">
        <ele>2117.4479980469</ele>
        <time>2017-03-17T08:46:11Z</time>
      </trkpt>
      <trkpt lat="45.22881" lon="6.01807">
        <ele>2122.4479980469</ele>
        <time>2017-03-17T08:46:46Z</time>
      </trkpt>
      <trkpt lat="45.22885" lon="6.01803">
        <ele>2125.4479980469</ele>
        <time>2017-03-17T08:47:03Z</time>
      </trkpt>
      <trkpt lat="45.2289" lon="6.01803">
        <ele>2126.4479980469</ele>
        <time>2017-03-17T08:47:11Z</time>
      </trkpt>
      <trkpt lat="45.22895" lon="6.01801">
        <ele>2129.4479980469</ele>
        <time>2017-03-17T08:47:22Z</time>
      </trkpt>
      <trkpt lat="45.229" lon="6.01798">
        <ele>2134.4479980469</ele>
        <time>2017-03-17T08:47:41Z</time>
      </trkpt>
      <trkpt lat="45.22903" lon="6.01793">
        <ele>2136.4479980469</ele>
        <time>2017-03-17T08:49:41Z</time>
      </trkpt>
      <trkpt lat="45.22904" lon="6.01787">
        <ele>2140.4479980469</ele>
        <time>2017-03-17T08:49:47Z</time>
      </trkpt>
      <trkpt lat="45.22903" lon="6.01794">
        <ele>2144.4479980469</ele>
        <time>2017-03-17T08:49:58Z</time>
      </trkpt>
      <trkpt lat="45.22907" lon="6.01798">
        <ele>2146.4479980469</ele>
        <time>2017-03-17T08:50:04Z</time>
      </trkpt>
      <trkpt lat="45.22912" lon="6.01802">
        <ele>2146.4479980469</ele>
        <time>2017-03-17T08:50:12Z</time>
      </trkpt>
      <trkpt lat="45.22916" lon="6.01803">
        <ele>2146.4479980469</ele>
        <time>2017-03-17T08:50:16Z</time>
      </trkpt>
      <trkpt lat="45.22917" lon="6.01796">
        <ele>2149.4479980469</ele>
        <time>2017-03-17T08:50:23Z</time>
      </trkpt>
      <trkpt lat="45.2292" lon="6.01791">
        <ele>2151.4479980469</ele>
        <time>2017-03-17T08:50:29Z</time>
      </trkpt>
      <trkpt lat="45.22923" lon="6.01785">
        <ele>2153.4479980469</ele>
        <time>2017-03-17T08:50:37Z</time>
      </trkpt>
      <trkpt lat="45.22924" lon="6.01779">
        <ele>2154.4479980469</ele>
        <time>2017-03-17T08:50:43Z</time>
      </trkpt>
      <trkpt lat="45.22927" lon="6.01772">
        <ele>2153.4479980469</ele>
        <time>2017-03-17T08:50:55Z</time>
      </trkpt>
      <trkpt lat="45.22931" lon="6.01767">
        <ele>2153.4479980469</ele>
        <time>2017-03-17T08:51:00Z</time>
      </trkpt>
      <trkpt lat="45.22931" lon="6.01774">
        <ele>2157.4479980469</ele>
        <time>2017-03-17T08:51:10Z</time>
      </trkpt>
      <trkpt lat="45.2293" lon="6.0178">
        <ele>2161.4479980469</ele>
        <time>2017-03-17T08:51:25Z</time>
      </trkpt>
      <trkpt lat="45.22935" lon="6.01778">
        <ele>2161.4479980469</ele>
        <time>2017-03-17T08:51:32Z</time>
      </trkpt>
      <trkpt lat="45.22937" lon="6.01772">
        <ele>2167.4479980469</ele>
        <time>2017-03-17T08:51:39Z</time>
      </trkpt>
      <trkpt lat="45.2294" lon="6.01766">
        <ele>2168.4479980469</ele>
        <time>2017-03-17T08:51:44Z</time>
      </trkpt>
      <trkpt lat="45.22943" lon="6.0176">
        <ele>2171.4479980469</ele>
        <time>2017-03-17T08:51:52Z</time>
      </trkpt>
      <trkpt lat="45.22943" lon="6.01767">
        <ele>2172.4479980469</ele>
        <time>2017-03-17T08:52:09Z</time>
      </trkpt>
      <trkpt lat="45.22946" lon="6.01773">
        <ele>2173.4479980469</ele>
        <time>2017-03-17T08:52:16Z</time>
      </trkpt>
      <trkpt lat="45.22951" lon="6.01772">
        <ele>2173.4479980469</ele>
        <time>2017-03-17T08:52:27Z</time>
      </trkpt>
      <trkpt lat="45.22954" lon="6.01767">
        <ele>2173.4479980469</ele>
        <time>2017-03-17T08:52:38Z</time>
      </trkpt>
      <trkpt lat="45.22955" lon="6.0176">
        <ele>2179.4479980469</ele>
        <time>2017-03-17T08:52:46Z</time>
      </trkpt>
      <trkpt lat="45.2296" lon="6.01759">
        <ele>2180.4479980469</ele>
        <time>2017-03-17T08:53:04Z</time>
      </trkpt>
      <trkpt lat="45.22964" lon="6.01755">
        <ele>2181.4479980469</ele>
        <time>2017-03-17T08:53:10Z</time>
      </trkpt>
      <trkpt lat="45.22967" lon="6.0175">
        <ele>2182.4479980469</ele>
        <time>2017-03-17T08:53:22Z</time>
      </trkpt>
      <trkpt lat="45.2297" lon="6.01755">
        <ele>2186.4479980469</ele>
        <time>2017-03-17T08:53:34Z</time>
      </trkpt>
      <trkpt lat="45.22969" lon="6.01763">
        <ele>2188.4479980469</ele>
        <time>2017-03-17T08:53:41Z</time>
      </trkpt>
      <trkpt lat="45.2297" lon="6.0177">
        <ele>2192.4479980469</ele>
        <time>2017-03-17T08:53:51Z</time>
      </trkpt>
      <trkpt lat="45.22975" lon="6.01774">
        <ele>2192.4479980469</ele>
        <time>2017-03-17T08:54:12Z</time>
      </trkpt>
      <trkpt lat="45.2298" lon="6.01771">
        <ele>2195.4479980469</ele>
        <time>2017-03-17T08:54:21Z</time>
      </trkpt>
      <trkpt lat="45.22984" lon="6.01765">
        <ele>2198.4479980469</ele>
        <time>2017-03-17T08:54:32Z</time>
      </trkpt>
      <trkpt lat="45.22987" lon="6.01759">
        <ele>2199.4479980469</ele>
        <time>2017-03-17T08:54:37Z</time>
      </trkpt>
      <trkpt lat="45.22989" lon="6.01753">
        <ele>2200.4479980469</ele>
        <time>2017-03-17T08:54:41Z</time>
      </trkpt>
      <trkpt lat="45.22993" lon="6.01747">
        <ele>2199.4479980469</ele>
        <time>2017-03-17T08:54:46Z</time>
      </trkpt>
      <trkpt lat="45.22995" lon="6.01741">
        <ele>2203.4479980469</ele>
        <time>2017-03-17T08:54:57Z</time>
      </trkpt>
      <trkpt lat="45.22999" lon="6.01735">
        <ele>2202.4479980469</ele>
        <time>2017-03-17T08:55:04Z</time>
      </trkpt>
      <trkpt lat="45.23003" lon="6.01731">
        <ele>2204.4479980469</ele>
        <time>2017-03-17T08:55:09Z</time>
      </trkpt>
      <trkpt lat="45.23007" lon="6.01726">
        <ele>2204.4479980469</ele>
        <time>2017-03-17T08:55:17Z</time>
      </trkpt>
      <trkpt lat="45.23007" lon="6.01734">
        <ele>2212.4479980469</ele>
        <time>2017-03-17T08:55:39Z</time>
      </trkpt>
      <trkpt lat="45.23008" lon="6.01741">
        <ele>2214.4479980469</ele>
        <time>2017-03-17T08:55:47Z</time>
      </trkpt>
      <trkpt lat="45.23009" lon="6.01747">
        <ele>2214.4479980469</ele>
        <time>2017-03-17T08:55:52Z</time>
      </trkpt>
      <trkpt lat="45.23008" lon="6.01754">
        <ele>2216.4479980469</ele>
        <time>2017-03-17T08:56:18Z</time>
      </trkpt>
      <trkpt lat="45.2301" lon="6.01761">
        <ele>2217.4479980469</ele>
        <time>2017-03-17T08:56:22Z</time>
      </trkpt>
      <trkpt lat="45.23012" lon="6.01768">
        <ele>2218.4479980469</ele>
        <time>2017-03-17T08:56:28Z</time>
      </trkpt>
      <trkpt lat="45.2302" lon="6.01764">
        <ele>2216.4479980469</ele>
        <time>2017-03-17T08:56:39Z</time>
      </trkpt>
      <trkpt lat="45.23022" lon="6.01758">
        <ele>2222.4479980469</ele>
        <time>2017-03-17T08:56:46Z</time>
      </trkpt>
      <trkpt lat="45.23026" lon="6.01754">
        <ele>2223.4479980469</ele>
        <time>2017-03-17T08:56:51Z</time>
      </trkpt>
      <trkpt lat="45.2303" lon="6.0175">
        <ele>2224.4479980469</ele>
        <time>2017-03-17T08:56:56Z</time>
      </trkpt>
      <trkpt lat="45.23033" lon="6.01755">
        <ele>2232.4479980469</ele>
        <time>2017-03-17T08:57:17Z</time>
      </trkpt>
      <trkpt lat="45.23034" lon="6.01762">
        <ele>2235.4489746094</ele>
        <time>2017-03-17T08:57:25Z</time>
      </trkpt>
      <trkpt lat="45.23037" lon="6.01767">
        <ele>2236.4489746094</ele>
        <time>2017-03-17T08:57:30Z</time>
      </trkpt>
      <trkpt lat="45.23038" lon="6.01774">
        <ele>2237.4489746094</ele>
        <time>2017-03-17T08:57:38Z</time>
      </trkpt>
      <trkpt lat="45.2304" lon="6.01781">
        <ele>2237.4489746094</ele>
        <time>2017-03-17T08:57:52Z</time>
      </trkpt>
      <trkpt lat="45.23044" lon="6.01778">
        <ele>2240.4489746094</ele>
        <time>2017-03-17T08:58:43Z</time>
      </trkpt>
      <trkpt lat="45.23047" lon="6.01773">
        <ele>2243.4489746094</ele>
        <time>2017-03-17T08:58:50Z</time>
      </trkpt>
      <trkpt lat="45.2305" lon="6.01766">
        <ele>2246.4489746094</ele>
        <time>2017-03-17T08:59:02Z</time>
      </trkpt>
      <trkpt lat="45.23053" lon="6.01762">
        <ele>2247.4489746094</ele>
        <time>2017-03-17T08:59:09Z</time>
      </trkpt>
      <trkpt lat="45.23056" lon="6.01756">
        <ele>2245.4489746094</ele>
        <time>2017-03-17T08:59:14Z</time>
      </trkpt>
      <trkpt lat="45.23059" lon="6.01751">
        <ele>2247.4489746094</ele>
        <time>2017-03-17T08:59:20Z</time>
      </trkpt>
      <trkpt lat="45.23061" lon="6.01745">
        <ele>2250.4489746094</ele>
        <time>2017-03-17T08:59:28Z</time>
      </trkpt>
      <trkpt lat="45.23064" lon="6.0174">
        <ele>2252.4489746094</ele>
        <time>2017-03-17T08:59:33Z</time>
      </trkpt>
      <trkpt lat="45.23067" lon="6.01734">
        <ele>2256.4489746094</ele>
        <time>2017-03-17T08:59:42Z</time>
      </trkpt>
      <trkpt lat="45.23072" lon="6.01728">
        <ele>2256.4489746094</ele>
        <time>2017-03-17T08:59:47Z</time>
      </trkpt>
      <trkpt lat="45.23075" lon="6.01724">
        <ele>2256.4489746094</ele>
        <time>2017-03-17T08:59:53Z</time>
      </trkpt>
      <trkpt lat="45.23078" lon="6.01719">
        <ele>2256.4489746094</ele>
        <time>2017-03-17T09:00:02Z</time>
      </trkpt>
      <trkpt lat="45.23082" lon="6.01711">
        <ele>2256.4489746094</ele>
        <time>2017-03-17T09:00:09Z</time>
      </trkpt>
      <trkpt lat="45.23085" lon="6.01706">
        <ele>2262.4489746094</ele>
        <time>2017-03-17T09:00:17Z</time>
      </trkpt>
      <trkpt lat="45.23089" lon="6.01702">
        <ele>2261.4489746094</ele>
        <time>2017-03-17T09:00:22Z</time>
      </trkpt>
      <trkpt lat="45.23092" lon="6.01698">
        <ele>2262.4489746094</ele>
        <time>2017-03-17T09:00:28Z</time>
      </trkpt>
      <trkpt lat="45.23096" lon="6.01694">
        <ele>2264.4489746094</ele>
        <time>2017-03-17T09:00:38Z</time>
      </trkpt>
      <trkpt lat="45.23095" lon="6.01702">
        <ele>2270.4489746094</ele>
        <time>2017-03-17T09:00:47Z</time>
      </trkpt>
      <trkpt lat="45.23094" lon="6.01708">
        <ele>2270.4489746094</ele>
        <time>2017-03-17T09:00:53Z</time>
      </trkpt>
      <trkpt lat="45.23096" lon="6.01715">
        <ele>2270.4489746094</ele>
        <time>2017-03-17T09:01:02Z</time>
      </trkpt>
      <trkpt lat="45.23097" lon="6.01722">
        <ele>2272.4489746094</ele>
        <time>2017-03-17T09:01:08Z</time>
      </trkpt>
      <trkpt lat="45.23096" lon="6.01728">
        <ele>2277.4489746094</ele>
        <time>2017-03-17T09:01:18Z</time>
      </trkpt>
      <trkpt lat="45.23095" lon="6.01736">
        <ele>2277.4489746094</ele>
        <time>2017-03-17T09:01:30Z</time>
      </trkpt>
      <trkpt lat="45.23094" lon="6.01743">
        <ele>2277.4489746094</ele>
        <time>2017-03-17T09:01:34Z</time>
      </trkpt>
      <trkpt lat="45.23098" lon="6.01749">
        <ele>2280.4489746094</ele>
        <time>2017-03-17T09:01:41Z</time>
      </trkpt>
      <trkpt lat="45.23098" lon="6.01755">
        <ele>2281.4489746094</ele>
        <time>2017-03-17T09:01:47Z</time>
      </trkpt>
      <trkpt lat="45.23102" lon="6.01762">
        <ele>2280.4489746094</ele>
        <time>2017-03-17T09:01:53Z</time>
      </trkpt>
      <trkpt lat="45.23105" lon="6.01766">
        <ele>2282.4489746094</ele>
        <time>2017-03-17T09:02:04Z</time>
      </trkpt>
      <trkpt lat="45.23108" lon="6.0176">
        <ele>2284.4489746094</ele>
        <time>2017-03-17T09:02:12Z</time>
      </trkpt>
      <trkpt lat="45.23111" lon="6.01756">
        <ele>2281.4489746094</ele>
        <time>2017-03-17T09:02:20Z</time>
      </trkpt>
      <trkpt lat="45.23112" lon="6.01748">
        <ele>2286.4489746094</ele>
        <time>2017-03-17T09:02:26Z</time>
      </trkpt>
      <trkpt lat="45.23115" lon="6.01743">
        <ele>2285.4489746094</ele>
        <time>2017-03-17T09:02:30Z</time>
      </trkpt>
      <trkpt lat="45.2312" lon="6.01737">
        <ele>2287.4489746094</ele>
        <time>2017-03-17T09:02:35Z</time>
      </trkpt>
      <trkpt lat="45.23123" lon="6.01731">
        <ele>2289.4489746094</ele>
        <time>2017-03-17T09:02:43Z</time>
      </trkpt>
      <trkpt lat="45.23126" lon="6.01725">
        <ele>2293.4489746094</ele>
        <time>2017-03-17T09:02:49Z</time>
      </trkpt>
      <trkpt lat="45.23131" lon="6.01721">
        <ele>2295.4489746094</ele>
        <time>2017-03-17T09:02:55Z</time>
      </trkpt>
      <trkpt lat="45.23134" lon="6.01716">
        <ele>2295.4489746094</ele>
        <time>2017-03-17T09:02:59Z</time>
      </trkpt>
      <trkpt lat="45.23136" lon="6.0171">
        <ele>2295.4489746094</ele>
        <time>2017-03-17T09:03:04Z</time>
      </trkpt>
      <trkpt lat="45.2314" lon="6.01706">
        <ele>2296.4489746094</ele>
        <time>2017-03-17T09:03:09Z</time>
      </trkpt>
      <trkpt lat="45.23144" lon="6.017">
        <ele>2299.4489746094</ele>
        <time>2017-03-17T09:03:17Z</time>
      </trkpt>
      <trkpt lat="45.23146" lon="6.01694">
        <ele>2299.4489746094</ele>
        <time>2017-03-17T09:03:25Z</time>
      </trkpt>
      <trkpt lat="45.2315" lon="6.0169">
        <ele>2298.4489746094</ele>
        <time>2017-03-17T09:03:32Z</time>
      </trkpt>
      <trkpt lat="45.23153" lon="6.01684">
        <ele>2299.4489746094</ele>
        <time>2017-03-17T09:03:37Z</time>
      </trkpt>
      <trkpt lat="45.23157" lon="6.01681">
        <ele>2298.4489746094</ele>
        <time>2017-03-17T09:03:41Z</time>
      </trkpt>
      <trkpt lat="45.2316" lon="6.01676">
        <ele>2301.4489746094</ele>
        <time>2017-03-17T09:03:47Z</time>
      </trkpt>
      <trkpt lat="45.23164" lon="6.01669">
        <ele>2302.4489746094</ele>
        <time>2017-03-17T09:03:53Z</time>
      </trkpt>
      <trkpt lat="45.23167" lon="6.01664">
        <ele>2304.4489746094</ele>
        <time>2017-03-17T09:03:59Z</time>
      </trkpt>
      <trkpt lat="45.23168" lon="6.01657">
        <ele>2308.4489746094</ele>
        <time>2017-03-17T09:04:16Z</time>
      </trkpt>
      <trkpt lat="45.2317" lon="6.01665">
        <ele>2308.4489746094</ele>
        <time>2017-03-17T09:04:28Z</time>
      </trkpt>
      <trkpt lat="45.23169" lon="6.01671">
        <ele>2309.4489746094</ele>
        <time>2017-03-17T09:04:33Z</time>
      </trkpt>
      <trkpt lat="45.23169" lon="6.01678">
        <ele>2310.4489746094</ele>
        <time>2017-03-17T09:04:39Z</time>
      </trkpt>
      <trkpt lat="45.23169" lon="6.01685">
        <ele>2310.4489746094</ele>
        <time>2017-03-17T09:04:48Z</time>
      </trkpt>
      <trkpt lat="45.23169" lon="6.01692">
        <ele>2313.4489746094</ele>
        <time>2017-03-17T09:04:54Z</time>
      </trkpt>
      <trkpt lat="45.2317" lon="6.01699">
        <ele>2314.4489746094</ele>
        <time>2017-03-17T09:04:59Z</time>
      </trkpt>
      <trkpt lat="45.23171" lon="6.01705">
        <ele>2316.4489746094</ele>
        <time>2017-03-17T09:05:03Z</time>
      </trkpt>
      <trkpt lat="45.23172" lon="6.01712">
        <ele>2319.4489746094</ele>
        <time>2017-03-17T09:05:08Z</time>
      </trkpt>
      <trkpt lat="45.23172" lon="6.01718">
        <ele>2321.4489746094</ele>
        <time>2017-03-17T09:05:14Z</time>
      </trkpt>
      <trkpt lat="45.23175" lon="6.01724">
        <ele>2321.4489746094</ele>
        <time>2017-03-17T09:05:21Z</time>
      </trkpt>
      <trkpt lat="45.23179" lon="6.01727">
        <ele>2325.4489746094</ele>
        <time>2017-03-17T09:05:29Z</time>
      </trkpt>
      <trkpt lat="45.23185" lon="6.01724">
        <ele>2326.4489746094</ele>
        <time>2017-03-17T09:05:38Z</time>
      </trkpt>
      <trkpt lat="45.23189" lon="6.0172">
        <ele>2327.4489746094</ele>
        <time>2017-03-17T09:05:42Z</time>
      </trkpt>
      <trkpt lat="45.23194" lon="6.01719">
        <ele>2329.4489746094</ele>
        <time>2017-03-17T09:05:53Z</time>
      </trkpt>
      <trkpt lat="45.23197" lon="6.01724">
        <ele>2329.4489746094</ele>
        <time>2017-03-17T09:05:59Z</time>
      </trkpt>
      <trkpt lat="45.232" lon="6.01729">
        <ele>2330.4489746094</ele>
        <time>2017-03-17T09:06:10Z</time>
      </trkpt>
      <trkpt lat="45.23204" lon="6.01732">
        <ele>2331.4489746094</ele>
        <time>2017-03-17T09:06:14Z</time>
      </trkpt>
      <trkpt lat="45.23209" lon="6.01735">
        <ele>2331.4489746094</ele>
        <time>2017-03-17T09:06:17Z</time>
      </trkpt>
      <trkpt lat="45.23215" lon="6.01744">
        <ele>2329.4489746094</ele>
        <time>2017-03-17T09:06:21Z</time>
      </trkpt>
      <trkpt lat="45.23218" lon="6.01751">
        <ele>2329.4489746094</ele>
        <time>2017-03-17T09:06:23Z</time>
      </trkpt>
      <trkpt lat="45.23222" lon="6.01756">
        <ele>2328.4489746094</ele>
        <time>2017-03-17T09:06:26Z</time>
      </trkpt>
      <trkpt lat="45.23223" lon="6.01762">
        <ele>2326.4489746094</ele>
        <time>2017-03-17T09:06:30Z</time>
      </trkpt>
      <trkpt lat="45.23226" lon="6.01768">
        <ele>2327.4489746094</ele>
        <time>2017-03-17T09:06:34Z</time>
      </trkpt>
      <trkpt lat="45.23228" lon="6.01774">
        <ele>2327.4489746094</ele>
        <time>2017-03-17T09:06:37Z</time>
      </trkpt>
      <trkpt lat="45.23231" lon="6.01779">
        <ele>2335.4489746094</ele>
        <time>2017-03-17T09:06:56Z</time>
      </trkpt>
      <trkpt lat="45.23234" lon="6.01784">
        <ele>2328.4489746094</ele>
        <time>2017-03-17T09:07:45Z</time>
      </trkpt>
      <trkpt lat="45.23232" lon="6.01779">
        <ele>2334.4489746094</ele>
        <time>2017-03-17T09:10:44Z</time>
      </trkpt>
      <trkpt lat="45.23231" lon="6.01786">
        <ele>2333.4489746094</ele>
        <time>2017-03-17T09:11:49Z</time>
      </trkpt>
      <trkpt lat="45.23232" lon="6.01794">
        <ele>2331.4489746094</ele>
        <time>2017-03-17T09:11:55Z</time>
      </trkpt>
      <trkpt lat="45.23235" lon="6.01798">
        <ele>2329.4489746094</ele>
        <time>2017-03-17T09:12:11Z</time>
      </trkpt>
      <trkpt lat="45.23239" lon="6.01803">
        <ele>2325.4489746094</ele>
        <time>2017-03-17T09:12:22Z</time>
      </trkpt>
      <trkpt lat="45.23241" lon="6.01809">
        <ele>2320.4489746094</ele>
        <time>2017-03-17T09:12:52Z</time>
      </trkpt>
      <trkpt lat="45.23245" lon="6.01814">
        <ele>2318.4489746094</ele>
        <time>2017-03-17T09:12:58Z</time>
      </trkpt>
      <trkpt lat="45.23248" lon="6.01819">
        <ele>2315.4489746094</ele>
        <time>2017-03-17T09:13:15Z</time>
      </trkpt>
      <trkpt lat="45.2325" lon="6.01826">
        <ele>2315.4489746094</ele>
        <time>2017-03-17T09:13:26Z</time>
      </trkpt>
      <trkpt lat="45.23255" lon="6.01828">
        <ele>2316.4489746094</ele>
        <time>2017-03-17T09:13:32Z</time>
      </trkpt>
      <trkpt lat="45.23259" lon="6.01831">
        <ele>2317.4489746094</ele>
        <time>2017-03-17T09:13:47Z</time>
      </trkpt>
      <trkpt lat="45.23264" lon="6.01832">
        <ele>2314.4489746094</ele>
        <time>2017-03-17T09:13:55Z</time>
      </trkpt>
      <trkpt lat="45.23265" lon="6.01838">
        <ele>2317.4489746094</ele>
        <time>2017-03-17T09:14:01Z</time>
      </trkpt>
      <trkpt lat="45.2327" lon="6.01839">
        <ele>2321.4489746094</ele>
        <time>2017-03-17T09:14:19Z</time>
      </trkpt>
      <trkpt lat="45.23275" lon="6.01837">
        <ele>2322.4489746094</ele>
        <time>2017-03-17T09:14:25Z</time>
      </trkpt>
      <trkpt lat="45.23279" lon="6.01836">
        <ele>2318.4489746094</ele>
        <time>2017-03-17T09:14:35Z</time>
      </trkpt>
      <trkpt lat="45.23283" lon="6.01846">
        <ele>2317.4489746094</ele>
        <time>2017-03-17T09:16:31Z</time>
      </trkpt>
      <trkpt lat="45.23281" lon="6.01853">
        <ele>2315.4489746094</ele>
        <time>2017-03-17T09:16:33Z</time>
      </trkpt>
      <trkpt lat="45.23279" lon="6.01861">
        <ele>2314.4489746094</ele>
        <time>2017-03-17T09:16:35Z</time>
      </trkpt>
      <trkpt lat="45.23269" lon="6.01864">
        <ele>2311.4489746094</ele>
        <time>2017-03-17T09:16:37Z</time>
      </trkpt>
      <trkpt lat="45.23262" lon="6.01874">
        <ele>2304.4489746094</ele>
        <time>2017-03-17T09:16:42Z</time>
      </trkpt>
      <trkpt lat="45.2325" lon="6.01868">
        <ele>2304.4489746094</ele>
        <time>2017-03-17T09:16:44Z</time>
      </trkpt>
      <trkpt lat="45.23239" lon="6.01872">
        <ele>2306.4489746094</ele>
        <time>2017-03-17T09:16:46Z</time>
      </trkpt>
      <trkpt lat="45.2323" lon="6.01876">
        <ele>2304.4489746094</ele>
        <time>2017-03-17T09:16:48Z</time>
      </trkpt>
      <trkpt lat="45.23227" lon="6.01871">
        <ele>2301.4489746094</ele>
        <time>2017-03-17T09:16:49Z</time>
      </trkpt>
      <trkpt lat="45.23222" lon="6.01867">
        <ele>2295.4489746094</ele>
        <time>2017-03-17T09:16:58Z</time>
      </trkpt>
      <trkpt lat="45.23216" lon="6.0187">
        <ele>2292.4489746094</ele>
        <time>2017-03-17T09:17:00Z</time>
      </trkpt>
      <trkpt lat="45.23207" lon="6.01884">
        <ele>2288.4489746094</ele>
        <time>2017-03-17T09:17:03Z</time>
      </trkpt>
      <trkpt lat="45.23201" lon="6.01901">
        <ele>2286.4489746094</ele>
        <time>2017-03-17T09:17:05Z</time>
      </trkpt>
      <trkpt lat="45.23192" lon="6.01907">
        <ele>2281.4489746094</ele>
        <time>2017-03-17T09:17:07Z</time>
      </trkpt>
      <trkpt lat="45.23178" lon="6.0192">
        <ele>2279.4489746094</ele>
        <time>2017-03-17T09:17:09Z</time>
      </trkpt>
      <trkpt lat="45.2317" lon="6.01933">
        <ele>2277.4489746094</ele>
        <time>2017-03-17T09:17:11Z</time>
      </trkpt>
      <trkpt lat="45.23159" lon="6.01926">
        <ele>2273.4489746094</ele>
        <time>2017-03-17T09:17:12Z</time>
      </trkpt>
      <trkpt lat="45.23148" lon="6.01918">
        <ele>2270.4489746094</ele>
        <time>2017-03-17T09:17:14Z</time>
      </trkpt>
      <trkpt lat="45.23142" lon="6.01912">
        <ele>2269.4489746094</ele>
        <time>2017-03-17T09:17:15Z</time>
      </trkpt>
      <trkpt lat="45.23133" lon="6.01907">
        <ele>2267.4489746094</ele>
        <time>2017-03-17T09:17:17Z</time>
      </trkpt>
      <trkpt lat="45.23129" lon="6.01905">
        <ele>2253.4489746094</ele>
        <time>2017-03-17T09:17:28Z</time>
      </trkpt>
      <trkpt lat="45.23122" lon="6.01912">
        <ele>2247.4489746094</ele>
        <time>2017-03-17T09:17:30Z</time>
      </trkpt>
      <trkpt lat="45.2312" lon="6.01931">
        <ele>2246.4489746094</ele>
        <time>2017-03-17T09:17:32Z</time>
      </trkpt>
      <trkpt lat="45.23108" lon="6.01949">
        <ele>2243.4489746094</ele>
        <time>2017-03-17T09:17:34Z</time>
      </trkpt>
      <trkpt lat="45.23104" lon="6.01977">
        <ele>2241.4489746094</ele>
        <time>2017-03-17T09:17:36Z</time>
      </trkpt>
      <trkpt lat="45.23093" lon="6.01983">
        <ele>2240.4489746094</ele>
        <time>2017-03-17T09:17:37Z</time>
      </trkpt>
      <trkpt lat="45.2308" lon="6.01998">
        <ele>2236.4489746094</ele>
        <time>2017-03-17T09:17:39Z</time>
      </trkpt>
      <trkpt lat="45.23073" lon="6.02011">
        <ele>2232.4489746094</ele>
        <time>2017-03-17T09:17:41Z</time>
      </trkpt>
      <trkpt lat="45.2306" lon="6.02009">
        <ele>2224.4489746094</ele>
        <time>2017-03-17T09:17:43Z</time>
      </trkpt>
      <trkpt lat="45.23057" lon="6.02022">
        <ele>2220.4489746094</ele>
        <time>2017-03-17T09:17:45Z</time>
      </trkpt>
      <trkpt lat="45.23057" lon="6.02029">
        <ele>2219.4489746094</ele>
        <time>2017-03-17T09:17:46Z</time>
      </trkpt>
      <trkpt lat="45.23051" lon="6.02033">
        <ele>2216.4489746094</ele>
        <time>2017-03-17T09:17:48Z</time>
      </trkpt>
      <trkpt lat="45.23039" lon="6.02032">
        <ele>2205.4489746094</ele>
        <time>2017-03-17T09:17:50Z</time>
      </trkpt>
      <trkpt lat="45.23034" lon="6.02047">
        <ele>2202.4489746094</ele>
        <time>2017-03-17T09:17:52Z</time>
      </trkpt>
      <trkpt lat="45.23024" lon="6.02033">
        <ele>2187.4489746094</ele>
        <time>2017-03-17T09:17:53Z</time>
      </trkpt>
      <trkpt lat="45.2302" lon="6.02039">
        <ele>2183.4489746094</ele>
        <time>2017-03-17T09:17:54Z</time>
      </trkpt>
      <trkpt lat="45.23018" lon="6.02051">
        <ele>2175.4489746094</ele>
        <time>2017-03-17T09:17:55Z</time>
      </trkpt>
      <trkpt lat="45.2301" lon="6.02064">
        <ele>2166.4489746094</ele>
        <time>2017-03-17T09:17:57Z</time>
      </trkpt>
      <trkpt lat="45.23001" lon="6.02084">
        <ele>2161.4489746094</ele>
        <time>2017-03-17T09:17:59Z</time>
      </trkpt>
      <trkpt lat="45.22988" lon="6.02097">
        <ele>2154.4489746094</ele>
        <time>2017-03-17T09:18:01Z</time>
      </trkpt>
      <trkpt lat="45.22984" lon="6.02108">
        <ele>2151.4489746094</ele>
        <time>2017-03-17T09:18:02Z</time>
      </trkpt>
      <trkpt lat="45.22971" lon="6.02133">
        <ele>2147.4489746094</ele>
        <time>2017-03-17T09:18:04Z</time>
      </trkpt>
      <trkpt lat="45.22955" lon="6.02139">
        <ele>2141.4489746094</ele>
        <time>2017-03-17T09:18:06Z</time>
      </trkpt>
      <trkpt lat="45.22944" lon="6.02156">
        <ele>2134.4489746094</ele>
        <time>2017-03-17T09:18:08Z</time>
      </trkpt>
      <trkpt lat="45.22926" lon="6.02173">
        <ele>2128.4489746094</ele>
        <time>2017-03-17T09:18:10Z</time>
      </trkpt>
      <trkpt lat="45.22921" lon="6.02185">
        <ele>2122.4489746094</ele>
        <time>2017-03-17T09:18:11Z</time>
      </trkpt>
      <trkpt lat="45.22904" lon="6.02207">
        <ele>2116.4489746094</ele>
        <time>2017-03-17T09:18:13Z</time>
      </trkpt>
      <trkpt lat="45.22889" lon="6.02221">
        <ele>2105.4489746094</ele>
        <time>2017-03-17T09:18:15Z</time>
      </trkpt>
      <trkpt lat="45.22879" lon="6.02245">
        <ele>2098.4489746094</ele>
        <time>2017-03-17T09:18:17Z</time>
      </trkpt>
      <trkpt lat="45.22882" lon="6.02259">
        <ele>2095.4489746094</ele>
        <time>2017-03-17T09:18:18Z</time>
      </trkpt>
      <trkpt lat="45.2288" lon="6.0227">
        <ele>2093.4489746094</ele>
        <time>2017-03-17T09:18:19Z</time>
      </trkpt>
      <trkpt lat="45.22878" lon="6.02287">
        <ele>2088.4489746094</ele>
        <time>2017-03-17T09:18:21Z</time>
      </trkpt>
      <trkpt lat="45.2288" lon="6.02294">
        <ele>2084.4489746094</ele>
        <time>2017-03-17T09:18:23Z</time>
      </trkpt>
      <trkpt lat="45.22885" lon="6.02293">
        <ele>2078.4489746094</ele>
        <time>2017-03-17T09:18:28Z</time>
      </trkpt>
      <trkpt lat="45.2289" lon="6.02293">
        <ele>2063.4489746094</ele>
        <time>2017-03-17T09:19:10Z</time>
      </trkpt>
      <trkpt lat="45.22895" lon="6.02292">
        <ele>2045.4489746094</ele>
        <time>2017-03-17T09:23:13Z</time>
      </trkpt>
      <trkpt lat="45.22899" lon="6.02292">
        <ele>2040.4489746094</ele>
        <time>2017-03-17T09:23:25Z</time>
      </trkpt>
      <trkpt lat="45.22905" lon="6.02293">
        <ele>2039.4489746094</ele>
        <time>2017-03-17T09:23:32Z</time>
      </trkpt>
      <trkpt lat="45.22909" lon="6.02293">
        <ele>2034.4489746094</ele>
        <time>2017-03-17T09:23:39Z</time>
      </trkpt>
      <trkpt lat="45.22915" lon="6.02294">
        <ele>2027.4489746094</ele>
        <time>2017-03-17T09:23:50Z</time>
      </trkpt>
      <trkpt lat="45.2292" lon="6.02296">
        <ele>2024.4489746094</ele>
        <time>2017-03-17T09:23:54Z</time>
      </trkpt>
      <trkpt lat="45.22926" lon="6.02295">
        <ele>2023.4489746094</ele>
        <time>2017-03-17T09:23:57Z</time>
      </trkpt>
      <trkpt lat="45.22932" lon="6.02295">
        <ele>2023.4489746094</ele>
        <time>2017-03-17T09:24:04Z</time>
      </trkpt>
      <trkpt lat="45.22937" lon="6.02295">
        <ele>2020.4489746094</ele>
        <time>2017-03-17T09:24:09Z</time>
      </trkpt>
      <trkpt lat="45.22941" lon="6.02294">
        <ele>2023.4489746094</ele>
        <time>2017-03-17T09:24:22Z</time>
      </trkpt>
      <trkpt lat="45.22946" lon="6.02291">
        <ele>2023.4489746094</ele>
        <time>2017-03-17T09:24:28Z</time>
      </trkpt>
      <trkpt lat="45.22947" lon="6.02284">
        <ele>2026.4489746094</ele>
        <time>2017-03-17T09:24:58Z</time>
      </trkpt>
      <trkpt lat="45.22951" lon="6.0228">
        <ele>2028.4489746094</ele>
        <time>2017-03-17T09:25:08Z</time>
      </trkpt>
      <trkpt lat="45.22956" lon="6.02283">
        <ele>2028.4489746094</ele>
        <time>2017-03-17T09:25:16Z</time>
      </trkpt>
      <trkpt lat="45.2296" lon="6.02284">
        <ele>2029.4489746094</ele>
        <time>2017-03-17T09:25:19Z</time>
      </trkpt>
      <trkpt lat="45.22965" lon="6.02283">
        <ele>2033.4489746094</ele>
        <time>2017-03-17T09:25:37Z</time>
      </trkpt>
      <trkpt lat="45.22968" lon="6.02278">
        <ele>2034.4489746094</ele>
        <time>2017-03-17T09:25:43Z</time>
      </trkpt>
      <trkpt lat="45.22972" lon="6.02282">
        <ele>2036.4489746094</ele>
        <time>2017-03-17T09:25:56Z</time>
      </trkpt>
      <trkpt lat="45.22976" lon="6.02285">
        <ele>2038.4489746094</ele>
        <time>2017-03-17T09:26:03Z</time>
      </trkpt>
      <trkpt lat="45.22981" lon="6.02289">
        <ele>2038.4489746094</ele>
        <time>2017-03-17T09:26:10Z</time>
      </trkpt>
      <trkpt lat="45.22986" lon="6.02294">
        <ele>2036.4489746094</ele>
        <time>2017-03-17T09:26:21Z</time>
      </trkpt>
      <trkpt lat="45.2299" lon="6.02299">
        <ele>2035.4489746094</ele>
        <time>2017-03-17T09:26:29Z</time>
      </trkpt>
      <trkpt lat="45.22993" lon="6.02306">
        <ele>2034.4489746094</ele>
        <time>2017-03-17T09:26:34Z</time>
      </trkpt>
      <trkpt lat="45.22997" lon="6.0231">
        <ele>2045.4489746094</ele>
        <time>2017-03-17T09:26:55Z</time>
      </trkpt>
      <trkpt lat="45.23001" lon="6.02315">
        <ele>2046.4489746094</ele>
        <time>2017-03-17T09:27:01Z</time>
      </trkpt>
      <trkpt lat="45.23006" lon="6.02318">
        <ele>2049.4489746094</ele>
        <time>2017-03-17T09:27:09Z</time>
      </trkpt>
      <trkpt lat="45.2301" lon="6.02323">
        <ele>2051.4489746094</ele>
        <time>2017-03-17T09:27:13Z</time>
      </trkpt>
      <trkpt lat="45.23014" lon="6.02325">
        <ele>2052.4489746094</ele>
        <time>2017-03-17T09:27:18Z</time>
      </trkpt>
      <trkpt lat="45.23018" lon="6.02328">
        <ele>2053.4489746094</ele>
        <time>2017-03-17T09:27:25Z</time>
      </trkpt>
      <trkpt lat="45.23022" lon="6.02332">
        <ele>2056.4489746094</ele>
        <time>2017-03-17T09:27:33Z</time>
      </trkpt>
      <trkpt lat="45.23026" lon="6.02336">
        <ele>2060.4489746094</ele>
        <time>2017-03-17T09:27:40Z</time>
      </trkpt>
      <trkpt lat="45.23029" lon="6.0233">
        <ele>2060.4489746094</ele>
        <time>2017-03-17T09:27:46Z</time>
      </trkpt>
      <trkpt lat="45.23033" lon="6.02326">
        <ele>2063.4489746094</ele>
        <time>2017-03-17T09:27:54Z</time>
      </trkpt>
      <trkpt lat="45.23038" lon="6.02322">
        <ele>2064.4489746094</ele>
        <time>2017-03-17T09:27:59Z</time>
      </trkpt>
      <trkpt lat="45.23042" lon="6.02319">
        <ele>2064.4489746094</ele>
        <time>2017-03-17T09:28:03Z</time>
      </trkpt>
      <trkpt lat="45.23045" lon="6.02314">
        <ele>2062.4489746094</ele>
        <time>2017-03-17T09:28:12Z</time>
      </trkpt>
      <trkpt lat="45.23049" lon="6.02318">
        <ele>2065.4489746094</ele>
        <time>2017-03-17T09:28:23Z</time>
      </trkpt>
      <trkpt lat="45.23055" lon="6.0232">
        <ele>2065.4489746094</ele>
        <time>2017-03-17T09:28:34Z</time>
      </trkpt>
      <trkpt lat="45.2306" lon="6.02323">
        <ele>2071.4489746094</ele>
        <time>2017-03-17T09:28:44Z</time>
      </trkpt>
      <trkpt lat="45.23063" lon="6.02327">
        <ele>2070.4489746094</ele>
        <time>2017-03-17T09:28:54Z</time>
      </trkpt>
      <trkpt lat="45.2307" lon="6.0233">
        <ele>2072.4489746094</ele>
        <time>2017-03-17T09:29:03Z</time>
      </trkpt>
      <trkpt lat="45.23074" lon="6.02333">
        <ele>2070.4489746094</ele>
        <time>2017-03-17T09:29:08Z</time>
      </trkpt>
      <trkpt lat="45.23079" lon="6.02336">
        <ele>2082.4489746094</ele>
        <time>2017-03-17T09:29:17Z</time>
      </trkpt>
      <trkpt lat="45.23085" lon="6.02339">
        <ele>2083.4489746094</ele>
        <time>2017-03-17T09:29:22Z</time>
      </trkpt>
      <trkpt lat="45.23089" lon="6.02341">
        <ele>2086.4489746094</ele>
        <time>2017-03-17T09:29:28Z</time>
      </trkpt>
      <trkpt lat="45.23093" lon="6.02342">
        <ele>2085.4489746094</ele>
        <time>2017-03-17T09:29:39Z</time>
      </trkpt>
      <trkpt lat="45.23098" lon="6.02337">
        <ele>2085.4489746094</ele>
        <time>2017-03-17T09:29:47Z</time>
      </trkpt>
      <trkpt lat="45.23099" lon="6.02329">
        <ele>2085.4489746094</ele>
        <time>2017-03-17T09:29:54Z</time>
      </trkpt>
      <trkpt lat="45.23102" lon="6.02322">
        <ele>2088.4489746094</ele>
        <time>2017-03-17T09:30:05Z</time>
      </trkpt>
      <trkpt lat="45.23099" lon="6.02316">
        <ele>2097.4489746094</ele>
        <time>2017-03-17T09:30:17Z</time>
      </trkpt>
      <trkpt lat="45.23103" lon="6.02312">
        <ele>2097.4489746094</ele>
        <time>2017-03-17T09:30:27Z</time>
      </trkpt>
      <trkpt lat="45.23105" lon="6.02306">
        <ele>2097.4489746094</ele>
        <time>2017-03-17T09:30:36Z</time>
      </trkpt>
      <trkpt lat="45.23109" lon="6.02305">
        <ele>2094.4489746094</ele>
        <time>2017-03-17T09:30:42Z</time>
      </trkpt>
      <trkpt lat="45.23114" lon="6.02307">
        <ele>2095.4489746094</ele>
        <time>2017-03-17T09:30:47Z</time>
      </trkpt>
      <trkpt lat="45.23118" lon="6.0231">
        <ele>2097.4489746094</ele>
        <time>2017-03-17T09:30:51Z</time>
      </trkpt>
      <trkpt lat="45.23123" lon="6.02313">
        <ele>2101.4489746094</ele>
        <time>2017-03-17T09:31:00Z</time>
      </trkpt>
      <trkpt lat="45.23128" lon="6.02313">
        <ele>2097.4489746094</ele>
        <time>2017-03-17T09:31:13Z</time>
      </trkpt>
      <trkpt lat="45.23134" lon="6.02317">
        <ele>2099.4489746094</ele>
        <time>2017-03-17T09:31:20Z</time>
      </trkpt>
      <trkpt lat="45.23138" lon="6.02321">
        <ele>2104.4489746094</ele>
        <time>2017-03-17T09:31:28Z</time>
      </trkpt>
      <trkpt lat="45.23142" lon="6.02324">
        <ele>2111.4499511719</ele>
        <time>2017-03-17T09:31:34Z</time>
      </trkpt>
      <trkpt lat="45.23147" lon="6.02328">
        <ele>2108.4499511719</ele>
        <time>2017-03-17T09:31:44Z</time>
      </trkpt>
      <trkpt lat="45.23149" lon="6.02334">
        <ele>2108.4499511719</ele>
        <time>2017-03-17T09:31:51Z</time>
      </trkpt>
      <trkpt lat="45.23152" lon="6.02339">
        <ele>2113.4499511719</ele>
        <time>2017-03-17T09:31:58Z</time>
      </trkpt>
      <trkpt lat="45.23155" lon="6.02345">
        <ele>2115.4499511719</ele>
        <time>2017-03-17T09:32:05Z</time>
      </trkpt>
      <trkpt lat="45.23158" lon="6.0235">
        <ele>2110.4499511719</ele>
        <time>2017-03-17T09:32:14Z</time>
      </trkpt>
      <trkpt lat="45.23163" lon="6.02354">
        <ele>2110.4499511719</ele>
        <time>2017-03-17T09:32:23Z</time>
      </trkpt>
      <trkpt lat="45.23168" lon="6.02357">
        <ele>2112.4499511719</ele>
        <time>2017-03-17T09:32:30Z</time>
      </trkpt>
      <trkpt lat="45.23173" lon="6.02361">
        <ele>2116.4499511719</ele>
        <time>2017-03-17T09:32:35Z</time>
      </trkpt>
      <trkpt lat="45.23178" lon="6.02361">
        <ele>2118.4499511719</ele>
        <time>2017-03-17T09:32:41Z</time>
      </trkpt>
      <trkpt lat="45.23182" lon="6.02364">
        <ele>2120.4499511719</ele>
        <time>2017-03-17T09:32:46Z</time>
      </trkpt>
      <trkpt lat="45.23188" lon="6.02365">
        <ele>2123.4499511719</ele>
        <time>2017-03-17T09:32:56Z</time>
      </trkpt>
      <trkpt lat="45.23192" lon="6.02369">
        <ele>2128.4499511719</ele>
        <time>2017-03-17T09:33:08Z</time>
      </trkpt>
      <trkpt lat="45.23197" lon="6.02372">
        <ele>2125.4499511719</ele>
        <time>2017-03-17T09:33:14Z</time>
      </trkpt>
      <trkpt lat="45.23202" lon="6.02376">
        <ele>2128.4499511719</ele>
        <time>2017-03-17T09:33:22Z</time>
      </trkpt>
      <trkpt lat="45.23206" lon="6.02379">
        <ele>2132.4499511719</ele>
        <time>2017-03-17T09:33:30Z</time>
      </trkpt>
      <trkpt lat="45.23209" lon="6.02383">
        <ele>2132.4499511719</ele>
        <time>2017-03-17T09:33:38Z</time>
      </trkpt>
      <trkpt lat="45.23214" lon="6.02387">
        <ele>2139.4499511719</ele>
        <time>2017-03-17T09:33:55Z</time>
      </trkpt>
      <trkpt lat="45.23218" lon="6.02383">
        <ele>2142.4499511719</ele>
        <time>2017-03-17T09:34:01Z</time>
      </trkpt>
      <trkpt lat="45.23221" lon="6.02377">
        <ele>2147.4499511719</ele>
        <time>2017-03-17T09:34:08Z</time>
      </trkpt>
      <trkpt lat="45.23224" lon="6.02372">
        <ele>2148.4499511719</ele>
        <time>2017-03-17T09:34:13Z</time>
      </trkpt>
      <trkpt lat="45.23228" lon="6.02377">
        <ele>2150.4499511719</ele>
        <time>2017-03-17T09:34:23Z</time>
      </trkpt>
      <trkpt lat="45.23232" lon="6.02381">
        <ele>2151.4499511719</ele>
        <time>2017-03-17T09:34:31Z</time>
      </trkpt>
      <trkpt lat="45.23235" lon="6.02387">
        <ele>2154.4499511719</ele>
        <time>2017-03-17T09:34:39Z</time>
      </trkpt>
      <trkpt lat="45.23238" lon="6.02391">
        <ele>2161.4499511719</ele>
        <time>2017-03-17T09:34:51Z</time>
      </trkpt>
      <trkpt lat="45.23245" lon="6.02391">
        <ele>2162.4499511719</ele>
        <time>2017-03-17T09:35:00Z</time>
      </trkpt>
      <trkpt lat="45.2325" lon="6.02393">
        <ele>2163.4499511719</ele>
        <time>2017-03-17T09:35:11Z</time>
      </trkpt>
      <trkpt lat="45.23256" lon="6.02395">
        <ele>2160.4499511719</ele>
        <time>2017-03-17T09:35:14Z</time>
      </trkpt>
      <trkpt lat="45.2326" lon="6.02398">
        <ele>2157.4499511719</ele>
        <time>2017-03-17T09:35:25Z</time>
      </trkpt>
      <trkpt lat="45.23263" lon="6.02403">
        <ele>2159.4499511719</ele>
        <time>2017-03-17T09:35:37Z</time>
      </trkpt>
      <trkpt lat="45.23267" lon="6.02406">
        <ele>2162.4499511719</ele>
        <time>2017-03-17T09:35:41Z</time>
      </trkpt>
      <trkpt lat="45.23273" lon="6.0241">
        <ele>2159.4499511719</ele>
        <time>2017-03-17T09:35:52Z</time>
      </trkpt>
      <trkpt lat="45.23278" lon="6.02414">
        <ele>2163.4499511719</ele>
        <time>2017-03-17T09:36:07Z</time>
      </trkpt>
      <trkpt lat="45.23282" lon="6.02415">
        <ele>2162.4499511719</ele>
        <time>2017-03-17T09:36:13Z</time>
      </trkpt>
      <trkpt lat="45.23287" lon="6.02416">
        <ele>2167.4499511719</ele>
        <time>2017-03-17T09:36:17Z</time>
      </trkpt>
      <trkpt lat="45.23291" lon="6.02419">
        <ele>2172.4499511719</ele>
        <time>2017-03-17T09:36:25Z</time>
      </trkpt>
      <trkpt lat="45.23295" lon="6.02422">
        <ele>2177.4499511719</ele>
        <time>2017-03-17T09:36:35Z</time>
      </trkpt>
      <trkpt lat="45.23301" lon="6.02427">
        <ele>2177.4499511719</ele>
        <time>2017-03-17T09:36:42Z</time>
      </trkpt>
      <trkpt lat="45.23305" lon="6.02423">
        <ele>2196.4499511719</ele>
        <time>2017-03-17T09:37:03Z</time>
      </trkpt>
      <trkpt lat="45.23307" lon="6.02417">
        <ele>2196.4499511719</ele>
        <time>2017-03-17T09:37:13Z</time>
      </trkpt>
      <trkpt lat="45.23308" lon="6.02411">
        <ele>2195.4499511719</ele>
        <time>2017-03-17T09:40:05Z</time>
      </trkpt>
      <trkpt lat="45.23311" lon="6.02404">
        <ele>2196.4499511719</ele>
        <time>2017-03-17T09:40:08Z</time>
      </trkpt>
      <trkpt lat="45.23315" lon="6.02403">
        <ele>2192.4499511719</ele>
        <time>2017-03-17T09:40:22Z</time>
      </trkpt>
      <trkpt lat="45.23319" lon="6.02398">
        <ele>2192.4499511719</ele>
        <time>2017-03-17T09:40:37Z</time>
      </trkpt>
      <trkpt lat="45.23316" lon="6.0239">
        <ele>2194.4499511719</ele>
        <time>2017-03-17T09:40:43Z</time>
      </trkpt>
      <trkpt lat="45.23319" lon="6.02384">
        <ele>2197.4499511719</ele>
        <time>2017-03-17T09:40:51Z</time>
      </trkpt>
      <trkpt lat="45.23321" lon="6.02378">
        <ele>2202.4499511719</ele>
        <time>2017-03-17T09:40:56Z</time>
      </trkpt>
      <trkpt lat="45.23324" lon="6.02385">
        <ele>2203.4499511719</ele>
        <time>2017-03-17T09:41:09Z</time>
      </trkpt>
      <trkpt lat="45.23328" lon="6.02388">
        <ele>2204.4499511719</ele>
        <time>2017-03-17T09:41:16Z</time>
      </trkpt>
      <trkpt lat="45.23331" lon="6.02393">
        <ele>2210.4499511719</ele>
        <time>2017-03-17T09:41:23Z</time>
      </trkpt>
      <trkpt lat="45.23335" lon="6.02394">
        <ele>2209.4499511719</ele>
        <time>2017-03-17T09:41:29Z</time>
      </trkpt>
      <trkpt lat="45.23339" lon="6.02398">
        <ele>2211.4499511719</ele>
        <time>2017-03-17T09:41:34Z</time>
      </trkpt>
      <trkpt lat="45.23343" lon="6.02403">
        <ele>2209.4499511719</ele>
        <time>2017-03-17T09:41:42Z</time>
      </trkpt>
      <trkpt lat="45.23347" lon="6.02406">
        <ele>2205.4499511719</ele>
        <time>2017-03-17T09:41:57Z</time>
      </trkpt>
      <trkpt lat="45.23347" lon="6.02398">
        <ele>2210.4499511719</ele>
        <time>2017-03-17T09:42:15Z</time>
      </trkpt>
      <trkpt lat="45.23349" lon="6.02391">
        <ele>2216.4499511719</ele>
        <time>2017-03-17T09:42:23Z</time>
      </trkpt>
      <trkpt lat="45.23354" lon="6.02389">
        <ele>2222.4499511719</ele>
        <time>2017-03-17T09:42:50Z</time>
      </trkpt>
      <trkpt lat="45.23358" lon="6.02393">
        <ele>2221.4499511719</ele>
        <time>2017-03-17T09:42:55Z</time>
      </trkpt>
      <trkpt lat="45.23358" lon="6.02386">
        <ele>2234.4499511719</ele>
        <time>2017-03-17T09:43:22Z</time>
      </trkpt>
      <trkpt lat="45.23362" lon="6.02382">
        <ele>2233.4499511719</ele>
        <time>2017-03-17T09:43:46Z</time>
      </trkpt>
      <trkpt lat="45.23367" lon="6.02384">
        <ele>2234.4499511719</ele>
        <time>2017-03-17T09:43:53Z</time>
      </trkpt>
      <trkpt lat="45.2337" lon="6.02379">
        <ele>2239.4499511719</ele>
        <time>2017-03-17T09:44:23Z</time>
      </trkpt>
      <trkpt lat="45.23375" lon="6.02384">
        <ele>2244.4499511719</ele>
        <time>2017-03-17T09:44:46Z</time>
      </trkpt>
      <trkpt lat="45.23377" lon="6.02391">
        <ele>2246.4499511719</ele>
        <time>2017-03-17T09:44:52Z</time>
      </trkpt>
      <trkpt lat="45.23378" lon="6.02397">
        <ele>2247.4499511719</ele>
        <time>2017-03-17T09:45:01Z</time>
      </trkpt>
      <trkpt lat="45.23379" lon="6.02404">
        <ele>2246.4499511719</ele>
        <time>2017-03-17T09:45:06Z</time>
      </trkpt>
      <trkpt lat="45.23382" lon="6.02412">
        <ele>2246.4499511719</ele>
        <time>2017-03-17T09:45:13Z</time>
      </trkpt>
      <trkpt lat="45.23385" lon="6.02417">
        <ele>2245.4499511719</ele>
        <time>2017-03-17T09:45:19Z</time>
      </trkpt>
      <trkpt lat="45.23387" lon="6.02423">
        <ele>2247.4499511719</ele>
        <time>2017-03-17T09:45:24Z</time>
      </trkpt>
      <trkpt lat="45.23389" lon="6.02429">
        <ele>2247.4499511719</ele>
        <time>2017-03-17T09:45:42Z</time>
      </trkpt>
      <trkpt lat="45.23395" lon="6.02429">
        <ele>2249.4499511719</ele>
        <time>2017-03-17T09:45:54Z</time>
      </trkpt>
      <trkpt lat="45.23395" lon="6.02422">
        <ele>2255.4499511719</ele>
        <time>2017-03-17T09:46:05Z</time>
      </trkpt>
      <trkpt lat="45.234" lon="6.02419">
        <ele>2259.4499511719</ele>
        <time>2017-03-17T09:46:22Z</time>
      </trkpt>
      <trkpt lat="45.23405" lon="6.02418">
        <ele>2260.4499511719</ele>
        <time>2017-03-17T09:46:31Z</time>
      </trkpt>
      <trkpt lat="45.2341" lon="6.02417">
        <ele>2263.4499511719</ele>
        <time>2017-03-17T09:46:44Z</time>
      </trkpt>
      <trkpt lat="45.23414" lon="6.02419">
        <ele>2269.4499511719</ele>
        <time>2017-03-17T09:47:00Z</time>
      </trkpt>
      <trkpt lat="45.23419" lon="6.02416">
        <ele>2267.4499511719</ele>
        <time>2017-03-17T09:47:06Z</time>
      </trkpt>
      <trkpt lat="45.23421" lon="6.02409">
        <ele>2268.4499511719</ele>
        <time>2017-03-17T09:47:12Z</time>
      </trkpt>
      <trkpt lat="45.2342" lon="6.02402">
        <ele>2270.4499511719</ele>
        <time>2017-03-17T09:47:26Z</time>
      </trkpt>
      <trkpt lat="45.23418" lon="6.02395">
        <ele>2272.4499511719</ele>
        <time>2017-03-17T09:47:34Z</time>
      </trkpt>
      <trkpt lat="45.23416" lon="6.02389">
        <ele>2276.4499511719</ele>
        <time>2017-03-17T09:47:41Z</time>
      </trkpt>
      <trkpt lat="45.2342" lon="6.02389">
        <ele>2275.4499511719</ele>
        <time>2017-03-17T09:47:57Z</time>
      </trkpt>
      <trkpt lat="45.23426" lon="6.02391">
        <ele>2278.4499511719</ele>
        <time>2017-03-17T09:48:09Z</time>
      </trkpt>
      <trkpt lat="45.2343" lon="6.02393">
        <ele>2280.4499511719</ele>
        <time>2017-03-17T09:48:24Z</time>
      </trkpt>
      <trkpt lat="45.23435" lon="6.02395">
        <ele>2282.4499511719</ele>
        <time>2017-03-17T09:48:37Z</time>
      </trkpt>
      <trkpt lat="45.2344" lon="6.02395">
        <ele>2286.4499511719</ele>
        <time>2017-03-17T09:49:14Z</time>
      </trkpt>
      <trkpt lat="45.23445" lon="6.02395">
        <ele>2294.4499511719</ele>
        <time>2017-03-17T09:50:12Z</time>
      </trkpt>
      <trkpt lat="45.23449" lon="6.02397">
        <ele>2297.4499511719</ele>
        <time>2017-03-17T09:50:23Z</time>
      </trkpt>
      <trkpt lat="45.23451" lon="6.02391">
        <ele>2296.4499511719</ele>
        <time>2017-03-17T09:51:17Z</time>
      </trkpt>
      <trkpt lat="45.23455" lon="6.02394">
        <ele>2300.4499511719</ele>
        <time>2017-03-17T09:51:33Z</time>
      </trkpt>
      <trkpt lat="45.23458" lon="6.02389">
        <ele>2305.4499511719</ele>
        <time>2017-03-17T09:52:01Z</time>
      </trkpt>
      <trkpt lat="45.23461" lon="6.02384">
        <ele>2305.4499511719</ele>
        <time>2017-03-17T09:52:34Z</time>
      </trkpt>
      <trkpt lat="45.23465" lon="6.02384">
        <ele>2306.4499511719</ele>
        <time>2017-03-17T09:53:01Z</time>
      </trkpt>
      <trkpt lat="45.23469" lon="6.02389">
        <ele>2309.4499511719</ele>
        <time>2017-03-17T09:53:15Z</time>
      </trkpt>
      <trkpt lat="45.23473" lon="6.0239">
        <ele>2309.4499511719</ele>
        <time>2017-03-17T09:53:25Z</time>
      </trkpt>
      <trkpt lat="45.23479" lon="6.02391">
        <ele>2316.4499511719</ele>
        <time>2017-03-17T09:54:07Z</time>
      </trkpt>
      <trkpt lat="45.23479" lon="6.02384">
        <ele>2318.4499511719</ele>
        <time>2017-03-17T09:54:40Z</time>
      </trkpt>
      <trkpt lat="45.2348" lon="6.02378">
        <ele>2317.4499511719</ele>
        <time>2017-03-17T09:55:04Z</time>
      </trkpt>
      <trkpt lat="45.23485" lon="6.02377">
        <ele>2325.4499511719</ele>
        <time>2017-03-17T09:55:18Z</time>
      </trkpt>
      <trkpt lat="45.2349" lon="6.02376">
        <ele>2326.4499511719</ele>
        <time>2017-03-17T09:55:32Z</time>
      </trkpt>
      <trkpt lat="45.23491" lon="6.0237">
        <ele>2330.4499511719</ele>
        <time>2017-03-17T09:55:42Z</time>
      </trkpt>
      <trkpt lat="45.23496" lon="6.02366">
        <ele>2333.4499511719</ele>
        <time>2017-03-17T09:56:24Z</time>
      </trkpt>
      <trkpt lat="45.235" lon="6.02362">
        <ele>2336.4499511719</ele>
        <time>2017-03-17T09:56:49Z</time>
      </trkpt>
      <trkpt lat="45.23497" lon="6.02356">
        <ele>2337.4499511719</ele>
        <time>2017-03-17T09:57:09Z</time>
      </trkpt>
      <trkpt lat="45.23501" lon="6.02351">
        <ele>2341.4499511719</ele>
        <time>2017-03-17T09:57:31Z</time>
      </trkpt>
      <trkpt lat="45.23505" lon="6.02351">
        <ele>2344.4499511719</ele>
        <time>2017-03-17T09:57:51Z</time>
      </trkpt>
      <trkpt lat="45.2351" lon="6.02352">
        <ele>2348.4499511719</ele>
        <time>2017-03-17T09:58:14Z</time>
      </trkpt>
      <trkpt lat="45.23516" lon="6.02354">
        <ele>2349.4499511719</ele>
        <time>2017-03-17T09:58:31Z</time>
      </trkpt>
      <trkpt lat="45.23521" lon="6.02353">
        <ele>2347.4499511719</ele>
        <time>2017-03-17T09:58:46Z</time>
      </trkpt>
      <trkpt lat="45.23525" lon="6.02355">
        <ele>2351.4499511719</ele>
        <time>2017-03-17T09:59:10Z</time>
      </trkpt>
      <trkpt lat="45.2353" lon="6.02356">
        <ele>2354.4499511719</ele>
        <time>2017-03-17T09:59:34Z</time>
      </trkpt>
      <trkpt lat="45.23535" lon="6.02357">
        <ele>2357.4499511719</ele>
        <time>2017-03-17T09:59:58Z</time>
      </trkpt>
      <trkpt lat="45.23542" lon="6.02359">
        <ele>2360.4499511719</ele>
        <time>2017-03-17T10:00:10Z</time>
      </trkpt>
      <trkpt lat="45.23546" lon="6.02359">
        <ele>2361.4499511719</ele>
        <time>2017-03-17T10:00:14Z</time>
      </trkpt>
      <trkpt lat="45.23547" lon="6.02353">
        <ele>2364.4499511719</ele>
        <time>2017-03-17T10:00:47Z</time>
      </trkpt>
      <trkpt lat="45.23544" lon="6.02347">
        <ele>2369.4499511719</ele>
        <time>2017-03-17T10:00:53Z</time>
      </trkpt>
      <trkpt lat="45.23541" lon="6.02342">
        <ele>2369.4499511719</ele>
        <time>2017-03-17T10:00:59Z</time>
      </trkpt>
      <trkpt lat="45.23546" lon="6.02341">
        <ele>2371.4499511719</ele>
        <time>2017-03-17T10:01:12Z</time>
      </trkpt>
      <trkpt lat="45.23551" lon="6.02339">
        <ele>2371.4499511719</ele>
        <time>2017-03-17T10:01:26Z</time>
      </trkpt>
      <trkpt lat="45.23552" lon="6.02333">
        <ele>2379.4499511719</ele>
        <time>2017-03-17T10:01:54Z</time>
      </trkpt>
      <trkpt lat="45.23553" lon="6.02326">
        <ele>2379.4499511719</ele>
        <time>2017-03-17T10:02:24Z</time>
      </trkpt>
      <trkpt lat="45.23551" lon="6.02321">
        <ele>2381.4499511719</ele>
        <time>2017-03-17T10:02:43Z</time>
      </trkpt>
      <trkpt lat="45.23555" lon="6.02319">
        <ele>2385.4499511719</ele>
        <time>2017-03-17T10:02:52Z</time>
      </trkpt>
      <trkpt lat="45.23559" lon="6.02315">
        <ele>2391.4499511719</ele>
        <time>2017-03-17T10:03:01Z</time>
      </trkpt>
      <trkpt lat="45.23555" lon="6.02312">
        <ele>2392.4499511719</ele>
        <time>2017-03-17T10:03:11Z</time>
      </trkpt>
      <trkpt lat="45.23559" lon="6.02308">
        <ele>2395.4499511719</ele>
        <time>2017-03-17T10:03:42Z</time>
      </trkpt>
      <trkpt lat="45.23562" lon="6.02303">
        <ele>2398.4499511719</ele>
        <time>2017-03-17T10:03:59Z</time>
      </trkpt>
      <trkpt lat="45.23565" lon="6.02299">
        <ele>2403.4499511719</ele>
        <time>2017-03-17T10:04:32Z</time>
      </trkpt>
      <trkpt lat="45.23566" lon="6.02292">
        <ele>2404.4499511719</ele>
        <time>2017-03-17T10:04:51Z</time>
      </trkpt>
      <trkpt lat="45.23567" lon="6.02285">
        <ele>2409.4499511719</ele>
        <time>2017-03-17T10:05:01Z</time>
      </trkpt>
      <trkpt lat="45.23566" lon="6.02278">
        <ele>2408.4499511719</ele>
        <time>2017-03-17T10:05:07Z</time>
      </trkpt>
      <trkpt lat="45.23564" lon="6.02271">
        <ele>2410.4499511719</ele>
        <time>2017-03-17T10:05:14Z</time>
      </trkpt>
      <trkpt lat="45.23568" lon="6.02269">
        <ele>2413.4499511719</ele>
        <time>2017-03-17T10:05:24Z</time>
      </trkpt>
      <trkpt lat="45.23573" lon="6.02271">
        <ele>2413.4499511719</ele>
        <time>2017-03-17T10:05:29Z</time>
      </trkpt>
      <trkpt lat="45.23577" lon="6.02275">
        <ele>2413.4499511719</ele>
        <time>2017-03-17T10:05:40Z</time>
      </trkpt>
      <trkpt lat="45.2358" lon="6.02282">
        <ele>2412.4499511719</ele>
        <time>2017-03-17T10:05:43Z</time>
      </trkpt>
      <trkpt lat="45.23582" lon="6.0229">
        <ele>2413.4499511719</ele>
        <time>2017-03-17T10:05:48Z</time>
      </trkpt>
      <trkpt lat="45.23584" lon="6.02296">
        <ele>2416.4499511719</ele>
        <time>2017-03-17T10:05:53Z</time>
      </trkpt>
      <trkpt lat="45.23586" lon="6.02302">
        <ele>2417.4499511719</ele>
        <time>2017-03-17T10:06:03Z</time>
      </trkpt>
      <trkpt lat="45.23591" lon="6.02305">
        <ele>2417.4499511719</ele>
        <time>2017-03-17T10:06:29Z</time>
      </trkpt>
      <trkpt lat="45.23586" lon="6.02306">
        <ele>2416.4499511719</ele>
        <time>2017-03-17T10:09:38Z</time>
      </trkpt>
      <trkpt lat="45.23585" lon="6.02297">
        <ele>2414.4499511719</ele>
        <time>2017-03-17T10:11:04Z</time>
      </trkpt>
      <trkpt lat="45.23577" lon="6.02289">
        <ele>2414.4499511719</ele>
        <time>2017-03-17T10:11:07Z</time>
      </trkpt>
      <trkpt lat="45.23574" lon="6.02296">
        <ele>2412.4499511719</ele>
        <time>2017-03-17T10:11:13Z</time>
      </trkpt>
      <trkpt lat="45.23571" lon="6.02307">
        <ele>2408.4499511719</ele>
        <time>2017-03-17T10:11:15Z</time>
      </trkpt>
      <trkpt lat="45.23558" lon="6.02305">
        <ele>2403.4499511719</ele>
        <time>2017-03-17T10:11:17Z</time>
      </trkpt>
      <trkpt lat="45.23552" lon="6.02312">
        <ele>2399.4499511719</ele>
        <time>2017-03-17T10:11:19Z</time>
      </trkpt>
      <trkpt lat="45.23556" lon="6.02317">
        <ele>2399.4499511719</ele>
        <time>2017-03-17T10:11:25Z</time>
      </trkpt>
      <trkpt lat="45.23554" lon="6.02323">
        <ele>2398.4499511719</ele>
        <time>2017-03-17T10:11:27Z</time>
      </trkpt>
      <trkpt lat="45.2355" lon="6.02337">
        <ele>2390.4499511719</ele>
        <time>2017-03-17T10:11:29Z</time>
      </trkpt>
      <trkpt lat="45.23539" lon="6.02341">
        <ele>2386.4499511719</ele>
        <time>2017-03-17T10:11:31Z</time>
      </trkpt>
      <trkpt lat="45.23533" lon="6.02347">
        <ele>2375.4499511719</ele>
        <time>2017-03-17T10:11:33Z</time>
      </trkpt>
      <trkpt lat="45.23523" lon="6.02344">
        <ele>2371.4499511719</ele>
        <time>2017-03-17T10:11:35Z</time>
      </trkpt>
      <trkpt lat="45.23519" lon="6.02343">
        <ele>2367.4499511719</ele>
        <time>2017-03-17T10:11:52Z</time>
      </trkpt>
      <trkpt lat="45.23514" lon="6.0234">
        <ele>2365.4499511719</ele>
        <time>2017-03-17T10:12:00Z</time>
      </trkpt>
      <trkpt lat="45.23508" lon="6.02348">
        <ele>2363.4499511719</ele>
        <time>2017-03-17T10:12:05Z</time>
      </trkpt>
      <trkpt lat="45.23506" lon="6.02362">
        <ele>2358.4499511719</ele>
        <time>2017-03-17T10:12:07Z</time>
      </trkpt>
      <trkpt lat="45.23496" lon="6.02367">
        <ele>2346.4499511719</ele>
        <time>2017-03-17T10:12:09Z</time>
      </trkpt>
      <trkpt lat="45.2349" lon="6.02378">
        <ele>2334.4499511719</ele>
        <time>2017-03-17T10:12:11Z</time>
      </trkpt>
      <trkpt lat="45.2348" lon="6.0238">
        <ele>2326.4499511719</ele>
        <time>2017-03-17T10:12:13Z</time>
      </trkpt>
      <trkpt lat="45.23473" lon="6.02389">
        <ele>2320.4499511719</ele>
        <time>2017-03-17T10:12:15Z</time>
      </trkpt>
      <trkpt lat="45.2346" lon="6.02389">
        <ele>2315.4499511719</ele>
        <time>2017-03-17T10:12:18Z</time>
      </trkpt>
      <trkpt lat="45.23447" lon="6.02389">
        <ele>2308.4499511719</ele>
        <time>2017-03-17T10:12:21Z</time>
      </trkpt>
      <trkpt lat="45.23439" lon="6.02392">
        <ele>2297.4499511719</ele>
        <time>2017-03-17T10:12:23Z</time>
      </trkpt>
      <trkpt lat="45.23426" lon="6.02405">
        <ele>2277.4499511719</ele>
        <time>2017-03-17T10:12:26Z</time>
      </trkpt>
      <trkpt lat="45.23412" lon="6.02411">
        <ele>2267.4499511719</ele>
        <time>2017-03-17T10:12:29Z</time>
      </trkpt>
      <trkpt lat="45.23402" lon="6.02414">
        <ele>2263.4499511719</ele>
        <time>2017-03-17T10:12:32Z</time>
      </trkpt>
      <trkpt lat="45.23398" lon="6.02415">
        <ele>2257.4499511719</ele>
        <time>2017-03-17T10:13:15Z</time>
      </trkpt>
      <trkpt lat="45.23393" lon="6.02419">
        <ele>2255.4499511719</ele>
        <time>2017-03-17T10:13:17Z</time>
      </trkpt>
      <trkpt lat="45.23385" lon="6.02422">
        <ele>2253.4499511719</ele>
        <time>2017-03-17T10:13:19Z</time>
      </trkpt>
      <trkpt lat="45.23373" lon="6.02421">
        <ele>2249.4499511719</ele>
        <time>2017-03-17T10:13:22Z</time>
      </trkpt>
      <trkpt lat="45.23362" lon="6.02425">
        <ele>2239.4499511719</ele>
        <time>2017-03-17T10:13:24Z</time>
      </trkpt>
      <trkpt lat="45.23352" lon="6.02431">
        <ele>2227.4499511719</ele>
        <time>2017-03-17T10:13:26Z</time>
      </trkpt>
      <trkpt lat="45.23338" lon="6.02435">
        <ele>2212.4499511719</ele>
        <time>2017-03-17T10:13:28Z</time>
      </trkpt>
      <trkpt lat="45.23324" lon="6.02442">
        <ele>2198.4499511719</ele>
        <time>2017-03-17T10:13:30Z</time>
      </trkpt>
      <trkpt lat="45.23316" lon="6.02432">
        <ele>2197.4499511719</ele>
        <time>2017-03-17T10:13:32Z</time>
      </trkpt>
      <trkpt lat="45.23308" lon="6.02412">
        <ele>2200.4499511719</ele>
        <time>2017-03-17T10:13:33Z</time>
      </trkpt>
      <trkpt lat="45.23303" lon="6.02405">
        <ele>2199.4499511719</ele>
        <time>2017-03-17T10:13:34Z</time>
      </trkpt>
      <trkpt lat="45.2329" lon="6.02398">
        <ele>2195.4499511719</ele>
        <time>2017-03-17T10:13:36Z</time>
      </trkpt>
      <trkpt lat="45.23273" lon="6.02402">
        <ele>2190.4499511719</ele>
        <time>2017-03-17T10:13:38Z</time>
      </trkpt>
      <trkpt lat="45.23252" lon="6.024">
        <ele>2185.4499511719</ele>
        <time>2017-03-17T10:13:40Z</time>
      </trkpt>
      <trkpt lat="45.23243" lon="6.02399">
        <ele>2182.4499511719</ele>
        <time>2017-03-17T10:13:41Z</time>
      </trkpt>
      <trkpt lat="45.23225" lon="6.02399">
        <ele>2176.4499511719</ele>
        <time>2017-03-17T10:13:43Z</time>
      </trkpt>
      <trkpt lat="45.23219" lon="6.02415">
        <ele>2171.4499511719</ele>
        <time>2017-03-17T10:13:44Z</time>
      </trkpt>
      <trkpt lat="45.23202" lon="6.0242">
        <ele>2165.4499511719</ele>
        <time>2017-03-17T10:13:46Z</time>
      </trkpt>
      <trkpt lat="45.23194" lon="6.02412">
        <ele>2162.4499511719</ele>
        <time>2017-03-17T10:13:48Z</time>
      </trkpt>
      <trkpt lat="45.23176" lon="6.02411">
        <ele>2159.4499511719</ele>
        <time>2017-03-17T10:13:50Z</time>
      </trkpt>
      <trkpt lat="45.23156" lon="6.02405">
        <ele>2154.4499511719</ele>
        <time>2017-03-17T10:13:52Z</time>
      </trkpt>
      <trkpt lat="45.2315" lon="6.0238">
        <ele>2150.4499511719</ele>
        <time>2017-03-17T10:13:54Z</time>
      </trkpt>
      <trkpt lat="45.23151" lon="6.02374">
        <ele>2144.4499511719</ele>
        <time>2017-03-17T10:13:58Z</time>
      </trkpt>
      <trkpt lat="45.23151" lon="6.02367">
        <ele>2141.4499511719</ele>
        <time>2017-03-17T10:14:08Z</time>
      </trkpt>
      <trkpt lat="45.23149" lon="6.02358">
        <ele>2138.4499511719</ele>
        <time>2017-03-17T10:14:41Z</time>
      </trkpt>
      <trkpt lat="45.23144" lon="6.02353">
        <ele>2135.4499511719</ele>
        <time>2017-03-17T10:14:42Z</time>
      </trkpt>
      <trkpt lat="45.23134" lon="6.02343">
        <ele>2131.4499511719</ele>
        <time>2017-03-17T10:14:44Z</time>
      </trkpt>
      <trkpt lat="45.23116" lon="6.02328">
        <ele>2126.4489746094</ele>
        <time>2017-03-17T10:14:46Z</time>
      </trkpt>
      <trkpt lat="45.23089" lon="6.02329">
        <ele>2116.4489746094</ele>
        <time>2017-03-17T10:14:48Z</time>
      </trkpt>
      <trkpt lat="45.23077" lon="6.02323">
        <ele>2109.4489746094</ele>
        <time>2017-03-17T10:14:49Z</time>
      </trkpt>
      <trkpt lat="45.23065" lon="6.02324">
        <ele>2102.4489746094</ele>
        <time>2017-03-17T10:14:50Z</time>
      </trkpt>
      <trkpt lat="45.23041" lon="6.02314">
        <ele>2089.4489746094</ele>
        <time>2017-03-17T10:14:52Z</time>
      </trkpt>
      <trkpt lat="45.23026" lon="6.02283">
        <ele>2074.4489746094</ele>
        <time>2017-03-17T10:14:54Z</time>
      </trkpt>
      <trkpt lat="45.2301" lon="6.02272">
        <ele>2054.4489746094</ele>
        <time>2017-03-17T10:14:56Z</time>
      </trkpt>
      <trkpt lat="45.22998" lon="6.02265">
        <ele>2053.4489746094</ele>
        <time>2017-03-17T10:14:57Z</time>
      </trkpt>
      <trkpt lat="45.22992" lon="6.02259">
        <ele>2049.4489746094</ele>
        <time>2017-03-17T10:14:58Z</time>
      </trkpt>
      <trkpt lat="45.22976" lon="6.02253">
        <ele>2043.4489746094</ele>
        <time>2017-03-17T10:15:00Z</time>
      </trkpt>
      <trkpt lat="45.22977" lon="6.0226">
        <ele>2039.4489746094</ele>
        <time>2017-03-17T10:15:03Z</time>
      </trkpt>
      <trkpt lat="45.22978" lon="6.02266">
        <ele>2040.4489746094</ele>
        <time>2017-03-17T10:15:07Z</time>
      </trkpt>
      <trkpt lat="45.22978" lon="6.02274">
        <ele>2041.4489746094</ele>
        <time>2017-03-17T10:15:23Z</time>
      </trkpt>
      <trkpt lat="45.22978" lon="6.02281">
        <ele>2040.4489746094</ele>
        <time>2017-03-17T10:15:26Z</time>
      </trkpt>
      <trkpt lat="45.22973" lon="6.02285">
        <ele>2037.4489746094</ele>
        <time>2017-03-17T10:15:28Z</time>
      </trkpt>
      <trkpt lat="45.22967" lon="6.02283">
        <ele>2032.4489746094</ele>
        <time>2017-03-17T10:15:35Z</time>
      </trkpt>
      <trkpt lat="45.22958" lon="6.0228">
        <ele>2025.4489746094</ele>
        <time>2017-03-17T10:15:37Z</time>
      </trkpt>
      <trkpt lat="45.22942" lon="6.02288">
        <ele>2015.4489746094</ele>
        <time>2017-03-17T10:15:39Z</time>
      </trkpt>
      <trkpt lat="45.22927" lon="6.02302">
        <ele>2007.4489746094</ele>
        <time>2017-03-17T10:15:41Z</time>
      </trkpt>
      <trkpt lat="45.22917" lon="6.02302">
        <ele>2006.4489746094</ele>
        <time>2017-03-17T10:15:42Z</time>
      </trkpt>
      <trkpt lat="45.22907" lon="6.02309">
        <ele>2005.4489746094</ele>
        <time>2017-03-17T10:15:44Z</time>
      </trkpt>
      <trkpt lat="45.22903" lon="6.02304">
        <ele>2004.4489746094</ele>
        <time>2017-03-17T10:15:47Z</time>
      </trkpt>
      <trkpt lat="45.22899" lon="6.02304">
        <ele>2003.4489746094</ele>
        <time>2017-03-17T10:15:53Z</time>
      </trkpt>
      <trkpt lat="45.22891" lon="6.02298">
        <ele>2002.4489746094</ele>
        <time>2017-03-17T10:15:55Z</time>
      </trkpt>
      <trkpt lat="45.22885" lon="6.02294">
        <ele>2001.4489746094</ele>
        <time>2017-03-17T10:15:56Z</time>
      </trkpt>
      <trkpt lat="45.22876" lon="6.02285">
        <ele>2000.4489746094</ele>
        <time>2017-03-17T10:15:58Z</time>
      </trkpt>
      <trkpt lat="45.22865" lon="6.02287">
        <ele>1998.4489746094</ele>
        <time>2017-03-17T10:16:00Z</time>
      </trkpt>
      <trkpt lat="45.22858" lon="6.02288">
        <ele>1998.4489746094</ele>
        <time>2017-03-17T10:16:01Z</time>
      </trkpt>
      <trkpt lat="45.22843" lon="6.02293">
        <ele>1999.4489746094</ele>
        <time>2017-03-17T10:16:03Z</time>
      </trkpt>
      <trkpt lat="45.22827" lon="6.02304">
        <ele>1996.4489746094</ele>
        <time>2017-03-17T10:16:05Z</time>
      </trkpt>
      <trkpt lat="45.22816" lon="6.02309">
        <ele>1991.4489746094</ele>
        <time>2017-03-17T10:16:06Z</time>
      </trkpt>
      <trkpt lat="45.22799" lon="6.02323">
        <ele>1984.4489746094</ele>
        <time>2017-03-17T10:16:08Z</time>
      </trkpt>
      <trkpt lat="45.22791" lon="6.02344">
        <ele>1979.4489746094</ele>
        <time>2017-03-17T10:16:10Z</time>
      </trkpt>
      <trkpt lat="45.22786" lon="6.02356">
        <ele>1976.4489746094</ele>
        <time>2017-03-17T10:16:11Z</time>
      </trkpt>
      <trkpt lat="45.22772" lon="6.02367">
        <ele>1973.4489746094</ele>
        <time>2017-03-17T10:16:13Z</time>
      </trkpt>
      <trkpt lat="45.22759" lon="6.02365">
        <ele>1967.4489746094</ele>
        <time>2017-03-17T10:16:15Z</time>
      </trkpt>
      <trkpt lat="45.22761" lon="6.02357">
        <ele>1963.4489746094</ele>
        <time>2017-03-17T10:16:16Z</time>
      </trkpt>
      <trkpt lat="45.2276" lon="6.02351">
        <ele>1957.4489746094</ele>
        <time>2017-03-17T10:16:18Z</time>
      </trkpt>
      <trkpt lat="45.22758" lon="6.02343">
        <ele>1951.4489746094</ele>
        <time>2017-03-17T10:16:22Z</time>
      </trkpt>
      <trkpt lat="45.22756" lon="6.02338">
        <ele>1946.4489746094</ele>
        <time>2017-03-17T10:16:26Z</time>
      </trkpt>
      <trkpt lat="45.22751" lon="6.02333">
        <ele>1943.4489746094</ele>
        <time>2017-03-17T10:16:28Z</time>
      </trkpt>
      <trkpt lat="45.22744" lon="6.02326">
        <ele>1940.4489746094</ele>
        <time>2017-03-17T10:16:30Z</time>
      </trkpt>
      <trkpt lat="45.22731" lon="6.0232">
        <ele>1935.4489746094</ele>
        <time>2017-03-17T10:16:33Z</time>
      </trkpt>
      <trkpt lat="45.22716" lon="6.02322">
        <ele>1932.4489746094</ele>
        <time>2017-03-17T10:16:35Z</time>
      </trkpt>
      <trkpt lat="45.22708" lon="6.02328">
        <ele>1932.4489746094</ele>
        <time>2017-03-17T10:16:36Z</time>
      </trkpt>
      <trkpt lat="45.22695" lon="6.02322">
        <ele>1929.4489746094</ele>
        <time>2017-03-17T10:16:37Z</time>
      </trkpt>
      <trkpt lat="45.2268" lon="6.02318">
        <ele>1926.4489746094</ele>
        <time>2017-03-17T10:16:39Z</time>
      </trkpt>
      <trkpt lat="45.22667" lon="6.02332">
        <ele>1925.4489746094</ele>
        <time>2017-03-17T10:16:41Z</time>
      </trkpt>
      <trkpt lat="45.22654" lon="6.02332">
        <ele>1924.4489746094</ele>
        <time>2017-03-17T10:16:43Z</time>
      </trkpt>
      <trkpt lat="45.22637" lon="6.02318">
        <ele>1919.4479980469</ele>
        <time>2017-03-17T10:16:46Z</time>
      </trkpt>
      <trkpt lat="45.22612" lon="6.02324">
        <ele>1918.4479980469</ele>
        <time>2017-03-17T10:16:48Z</time>
      </trkpt>
      <trkpt lat="45.22594" lon="6.02308">
        <ele>1917.4479980469</ele>
        <time>2017-03-17T10:16:50Z</time>
      </trkpt>
      <trkpt lat="45.22584" lon="6.02299">
        <ele>1917.4479980469</ele>
        <time>2017-03-17T10:16:51Z</time>
      </trkpt>
      <trkpt lat="45.22573" lon="6.023">
        <ele>1916.4479980469</ele>
        <time>2017-03-17T10:16:52Z</time>
      </trkpt>
      <trkpt lat="45.22546" lon="6.02307">
        <ele>1914.4479980469</ele>
        <time>2017-03-17T10:16:54Z</time>
      </trkpt>
      <trkpt lat="45.22527" lon="6.02304">
        <ele>1910.4479980469</ele>
        <time>2017-03-17T10:16:56Z</time>
      </trkpt>
      <trkpt lat="45.22548" lon="6.02319">
        <ele>1902.4479980469</ele>
        <time>2017-03-17T10:16:58Z</time>
      </trkpt>
      <trkpt lat="45.22554" lon="6.02327">
        <ele>1899.4479980469</ele>
        <time>2017-03-17T10:16:59Z</time>
      </trkpt>
      <trkpt lat="45.22557" lon="6.02333">
        <ele>1898.4479980469</ele>
        <time>2017-03-17T10:17:07Z</time>
      </trkpt>
      <trkpt lat="45.22556" lon="6.0234">
        <ele>1895.4479980469</ele>
        <time>2017-03-17T10:17:17Z</time>
      </trkpt>
      <trkpt lat="45.22548" lon="6.0234">
        <ele>1892.4479980469</ele>
        <time>2017-03-17T10:17:19Z</time>
      </trkpt>
      <trkpt lat="45.22534" lon="6.02338">
        <ele>1889.4479980469</ele>
        <time>2017-03-17T10:17:21Z</time>
      </trkpt>
      <trkpt lat="45.22522" lon="6.02355">
        <ele>1879.4479980469</ele>
        <time>2017-03-17T10:17:23Z</time>
      </trkpt>
      <trkpt lat="45.2251" lon="6.02361">
        <ele>1861.4479980469</ele>
        <time>2017-03-17T10:17:25Z</time>
      </trkpt>
      <trkpt lat="45.22506" lon="6.02345">
        <ele>1860.4479980469</ele>
        <time>2017-03-17T10:17:26Z</time>
      </trkpt>
      <trkpt lat="45.22498" lon="6.02332">
        <ele>1855.4479980469</ele>
        <time>2017-03-17T10:17:28Z</time>
      </trkpt>
      <trkpt lat="45.22491" lon="6.02327">
        <ele>1852.4479980469</ele>
        <time>2017-03-17T10:17:29Z</time>
      </trkpt>
      <trkpt lat="45.22478" lon="6.02323">
        <ele>1848.4479980469</ele>
        <time>2017-03-17T10:17:31Z</time>
      </trkpt>
      <trkpt lat="45.22462" lon="6.02322">
        <ele>1842.4479980469</ele>
        <time>2017-03-17T10:17:33Z</time>
      </trkpt>
      <trkpt lat="45.22456" lon="6.02324">
        <ele>1831.4479980469</ele>
        <time>2017-03-17T10:17:38Z</time>
      </trkpt>
      <trkpt lat="45.22451" lon="6.0233">
        <ele>1825.4479980469</ele>
        <time>2017-03-17T10:17:43Z</time>
      </trkpt>
      <trkpt lat="45.22449" lon="6.02336">
        <ele>1823.4479980469</ele>
        <time>2017-03-17T10:17:45Z</time>
      </trkpt>
      <trkpt lat="45.22447" lon="6.02345">
        <ele>1822.4479980469</ele>
        <time>2017-03-17T10:17:47Z</time>
      </trkpt>
      <trkpt lat="45.22445" lon="6.02357">
        <ele>1820.4479980469</ele>
        <time>2017-03-17T10:17:49Z</time>
      </trkpt>
      <trkpt lat="45.22439" lon="6.02368">
        <ele>1817.4479980469</ele>
        <time>2017-03-17T10:17:51Z</time>
      </trkpt>
      <trkpt lat="45.22427" lon="6.02375">
        <ele>1814.4479980469</ele>
        <time>2017-03-17T10:17:53Z</time>
      </trkpt>
      <trkpt lat="45.22417" lon="6.02384">
        <ele>1809.4479980469</ele>
        <time>2017-03-17T10:17:55Z</time>
      </trkpt>
      <trkpt lat="45.22411" lon="6.02385">
        <ele>1806.4479980469</ele>
        <time>2017-03-17T10:17:57Z</time>
      </trkpt>
      <trkpt lat="45.22406" lon="6.02388">
        <ele>1803.4479980469</ele>
        <time>2017-03-17T10:17:59Z</time>
      </trkpt>
      <trkpt lat="45.22388" lon="6.02384">
        <ele>1796.4479980469</ele>
        <time>2017-03-17T10:18:02Z</time>
      </trkpt>
      <trkpt lat="45.22371" lon="6.02381">
        <ele>1793.4479980469</ele>
        <time>2017-03-17T10:18:04Z</time>
      </trkpt>
      <trkpt lat="45.22361" lon="6.0238">
        <ele>1791.4479980469</ele>
        <time>2017-03-17T10:18:05Z</time>
      </trkpt>
      <trkpt lat="45.22345" lon="6.02375">
        <ele>1785.4479980469</ele>
        <time>2017-03-17T10:18:07Z</time>
      </trkpt>
      <trkpt lat="45.22334" lon="6.02381">
        <ele>1781.4479980469</ele>
        <time>2017-03-17T10:18:10Z</time>
      </trkpt>
      <trkpt lat="45.22324" lon="6.02379">
        <ele>1777.4479980469</ele>
        <time>2017-03-17T10:18:12Z</time>
      </trkpt>
      <trkpt lat="45.22315" lon="6.02368">
        <ele>1774.4479980469</ele>
        <time>2017-03-17T10:18:14Z</time>
      </trkpt>
      <trkpt lat="45.22303" lon="6.02363">
        <ele>1772.4479980469</ele>
        <time>2017-03-17T10:18:16Z</time>
      </trkpt>
      <trkpt lat="45.2229" lon="6.02363">
        <ele>1771.4479980469</ele>
        <time>2017-03-17T10:18:19Z</time>
      </trkpt>
      <trkpt lat="45.22285" lon="6.02362">
        <ele>1769.4479980469</ele>
        <time>2017-03-17T10:18:20Z</time>
      </trkpt>
      <trkpt lat="45.2228" lon="6.02359">
        <ele>1771.4479980469</ele>
        <time>2017-03-17T10:18:27Z</time>
      </trkpt>
      <trkpt lat="45.22279" lon="6.02349">
        <ele>1770.4479980469</ele>
        <time>2017-03-17T10:18:36Z</time>
      </trkpt>
      <trkpt lat="45.22279" lon="6.02342">
        <ele>1771.4479980469</ele>
        <time>2017-03-17T10:18:37Z</time>
      </trkpt>
      <trkpt lat="45.22279" lon="6.02325">
        <ele>1770.4479980469</ele>
        <time>2017-03-17T10:18:39Z</time>
      </trkpt>
      <trkpt lat="45.2228" lon="6.02317">
        <ele>1771.4479980469</ele>
        <time>2017-03-17T10:18:40Z</time>
      </trkpt>
      <trkpt lat="45.2228" lon="6.02303">
        <ele>1769.4479980469</ele>
        <time>2017-03-17T10:18:42Z</time>
      </trkpt>
      <trkpt lat="45.22277" lon="6.02295">
        <ele>1766.4479980469</ele>
        <time>2017-03-17T10:18:43Z</time>
      </trkpt>
      <trkpt lat="45.22273" lon="6.0228">
        <ele>1764.4479980469</ele>
        <time>2017-03-17T10:18:45Z</time>
      </trkpt>
      <trkpt lat="45.2227" lon="6.02265">
        <ele>1762.4479980469</ele>
        <time>2017-03-17T10:18:47Z</time>
      </trkpt>
      <trkpt lat="45.22258" lon="6.02255">
        <ele>1759.4479980469</ele>
        <time>2017-03-17T10:18:50Z</time>
      </trkpt>
      <trkpt lat="45.22248" lon="6.02255">
        <ele>1757.4479980469</ele>
        <time>2017-03-17T10:18:52Z</time>
      </trkpt>
      <trkpt lat="45.22241" lon="6.02246">
        <ele>1751.4479980469</ele>
        <time>2017-03-17T10:18:54Z</time>
      </trkpt>
      <trkpt lat="45.22232" lon="6.02231">
        <ele>1745.4479980469</ele>
        <time>2017-03-17T10:18:56Z</time>
      </trkpt>
      <trkpt lat="45.2223" lon="6.02221">
        <ele>1744.4479980469</ele>
        <time>2017-03-17T10:18:57Z</time>
      </trkpt>
      <trkpt lat="45.22227" lon="6.022">
        <ele>1743.4479980469</ele>
        <time>2017-03-17T10:18:59Z</time>
      </trkpt>
      <trkpt lat="45.2223" lon="6.02187">
        <ele>1744.4479980469</ele>
        <time>2017-03-17T10:19:01Z</time>
      </trkpt>
      <trkpt lat="45.22234" lon="6.02174">
        <ele>1743.4470214844</ele>
        <time>2017-03-17T10:19:03Z</time>
      </trkpt>
      <trkpt lat="45.22235" lon="6.02159">
        <ele>1741.4470214844</ele>
        <time>2017-03-17T10:19:05Z</time>
      </trkpt>
      <trkpt lat="45.22241" lon="6.0215">
        <ele>1740.4470214844</ele>
        <time>2017-03-17T10:19:06Z</time>
      </trkpt>
      <trkpt lat="45.2224" lon="6.02127">
        <ele>1737.4470214844</ele>
        <time>2017-03-17T10:19:08Z</time>
      </trkpt>
      <trkpt lat="45.22246" lon="6.02111">
        <ele>1734.4470214844</ele>
        <time>2017-03-17T10:19:11Z</time>
      </trkpt>
      <trkpt lat="45.2225" lon="6.02104">
        <ele>1727.4470214844</ele>
        <time>2017-03-17T10:19:13Z</time>
      </trkpt>
      <trkpt lat="45.22251" lon="6.02097">
        <ele>1724.4470214844</ele>
        <time>2017-03-17T10:19:14Z</time>
      </trkpt>
      <trkpt lat="45.22247" lon="6.02086">
        <ele>1721.4470214844</ele>
        <time>2017-03-17T10:19:16Z</time>
      </trkpt>
      <trkpt lat="45.22245" lon="6.02068">
        <ele>1718.4470214844</ele>
        <time>2017-03-17T10:19:18Z</time>
      </trkpt>
      <trkpt lat="45.22248" lon="6.02049">
        <ele>1716.4470214844</ele>
        <time>2017-03-17T10:19:20Z</time>
      </trkpt>
      <trkpt lat="45.22248" lon="6.02027">
        <ele>1713.4470214844</ele>
        <time>2017-03-17T10:19:22Z</time>
      </trkpt>
      <trkpt lat="45.22248" lon="6.01994">
        <ele>1709.4470214844</ele>
        <time>2017-03-17T10:19:25Z</time>
      </trkpt>
      <trkpt lat="45.22252" lon="6.01968">
        <ele>1709.4470214844</ele>
        <time>2017-03-17T10:19:27Z</time>
      </trkpt>
      <trkpt lat="45.22251" lon="6.01948">
        <ele>1706.4470214844</ele>
        <time>2017-03-17T10:19:29Z</time>
      </trkpt>
      <trkpt lat="45.22251" lon="6.01928">
        <ele>1701.4470214844</ele>
        <time>2017-03-17T10:19:31Z</time>
      </trkpt>
      <trkpt lat="45.22255" lon="6.01907">
        <ele>1698.4470214844</ele>
        <time>2017-03-17T10:19:33Z</time>
      </trkpt>
      <trkpt lat="45.22261" lon="6.01884">
        <ele>1696.4470214844</ele>
        <time>2017-03-17T10:19:35Z</time>
      </trkpt>
      <trkpt lat="45.22264" lon="6.01867">
        <ele>1696.4470214844</ele>
        <time>2017-03-17T10:19:37Z</time>
      </trkpt>
      <trkpt lat="45.22262" lon="6.01854">
        <ele>1697.4470214844</ele>
        <time>2017-03-17T10:19:47Z</time>
      </trkpt>
      <trkpt lat="45.22262" lon="6.01846">
        <ele>1696.4470214844</ele>
        <time>2017-03-17T10:19:52Z</time>
      </trkpt>
      <trkpt lat="45.22261" lon="6.01839">
        <ele>1695.4470214844</ele>
        <time>2017-03-17T10:19:54Z</time>
      </trkpt>
      <trkpt lat="45.22263" lon="6.01832">
        <ele>1691.4470214844</ele>
        <time>2017-03-17T10:20:07Z</time>
      </trkpt>
      <trkpt lat="45.22268" lon="6.01824">
        <ele>1689.4470214844</ele>
        <time>2017-03-17T10:20:09Z</time>
      </trkpt>
      <trkpt lat="45.22273" lon="6.01811">
        <ele>1688.4470214844</ele>
        <time>2017-03-17T10:20:11Z</time>
      </trkpt>
      <trkpt lat="45.22272" lon="6.01798">
        <ele>1686.4470214844</ele>
        <time>2017-03-17T10:20:13Z</time>
      </trkpt>
      <trkpt lat="45.22268" lon="6.01775">
        <ele>1683.4470214844</ele>
        <time>2017-03-17T10:20:15Z</time>
      </trkpt>
      <trkpt lat="45.22267" lon="6.01757">
        <ele>1683.4470214844</ele>
        <time>2017-03-17T10:20:16Z</time>
      </trkpt>
      <trkpt lat="45.22268" lon="6.01731">
        <ele>1683.4470214844</ele>
        <time>2017-03-17T10:20:18Z</time>
      </trkpt>
      <trkpt lat="45.22267" lon="6.01709">
        <ele>1683.4470214844</ele>
        <time>2017-03-17T10:20:20Z</time>
      </trkpt>
      <trkpt lat="45.22268" lon="6.01701">
        <ele>1683.4470214844</ele>
        <time>2017-03-17T10:20:21Z</time>
      </trkpt>
      <trkpt lat="45.22268" lon="6.01687">
        <ele>1683.4470214844</ele>
        <time>2017-03-17T10:20:23Z</time>
      </trkpt>
      <trkpt lat="45.22267" lon="6.01676">
        <ele>1684.4470214844</ele>
        <time>2017-03-17T10:20:25Z</time>
      </trkpt>
      <trkpt lat="45.22266" lon="6.01666">
        <ele>1683.4470214844</ele>
        <time>2017-03-17T10:20:28Z</time>
      </trkpt>
      <trkpt lat="45.22265" lon="6.01659">
        <ele>1685.4470214844</ele>
        <time>2017-03-17T10:20:30Z</time>
      </trkpt>
      <trkpt lat="45.22266" lon="6.01652">
        <ele>1685.4470214844</ele>
        <time>2017-03-17T10:20:34Z</time>
      </trkpt>
      <trkpt lat="45.22265" lon="6.01644">
        <ele>1686.4470214844</ele>
        <time>2017-03-17T10:20:38Z</time>
      </trkpt>
      <trkpt lat="45.22265" lon="6.01638">
        <ele>1688.4470214844</ele>
        <time>2017-03-17T10:20:43Z</time>
      </trkpt>
      <trkpt lat="45.22266" lon="6.0163">
        <ele>1688.4470214844</ele>
        <time>2017-03-17T10:20:46Z</time>
      </trkpt>
      <trkpt lat="45.22264" lon="6.01624">
        <ele>1690.4470214844</ele>
        <time>2017-03-17T10:20:50Z</time>
      </trkpt>
      <trkpt lat="45.22263" lon="6.01616">
        <ele>1689.4470214844</ele>
        <time>2017-03-17T10:20:59Z</time>
      </trkpt>
      <trkpt lat="45.22264" lon="6.0161">
        <ele>1691.4470214844</ele>
        <time>2017-03-17T10:21:04Z</time>
      </trkpt>
      <trkpt lat="45.22263" lon="6.01602">
        <ele>1691.4470214844</ele>
        <time>2017-03-17T10:21:08Z</time>
      </trkpt>
      <trkpt lat="45.22261" lon="6.01596">
        <ele>1689.4470214844</ele>
        <time>2017-03-17T10:21:12Z</time>
      </trkpt>
      <trkpt lat="45.22259" lon="6.01587">
        <ele>1689.4470214844</ele>
        <time>2017-03-17T10:21:16Z</time>
      </trkpt>
      <trkpt lat="45.22257" lon="6.0158">
        <ele>1688.4470214844</ele>
        <time>2017-03-17T10:21:19Z</time>
      </trkpt>
      <trkpt lat="45.22256" lon="6.01573">
        <ele>1689.4470214844</ele>
        <time>2017-03-17T10:21:22Z</time>
      </trkpt>
      <trkpt lat="45.22255" lon="6.01565">
        <ele>1690.4470214844</ele>
        <time>2017-03-17T10:21:25Z</time>
      </trkpt>
      <trkpt lat="45.22253" lon="6.01557">
        <ele>1695.4470214844</ele>
        <time>2017-03-17T10:21:28Z</time>
      </trkpt>
      <trkpt lat="45.22251" lon="6.01549">
        <ele>1693.4470214844</ele>
        <time>2017-03-17T10:21:31Z</time>
      </trkpt>
      <trkpt lat="45.22249" lon="6.01543">
        <ele>1692.4470214844</ele>
        <time>2017-03-17T10:21:33Z</time>
      </trkpt>
      <trkpt lat="45.22248" lon="6.01535">
        <ele>1693.4470214844</ele>
        <time>2017-03-17T10:21:36Z</time>
      </trkpt>
      <trkpt lat="45.22248" lon="6.01526">
        <ele>1693.4470214844</ele>
        <time>2017-03-17T10:21:38Z</time>
      </trkpt>
      <trkpt lat="45.22247" lon="6.0152">
        <ele>1693.4470214844</ele>
        <time>2017-03-17T10:21:40Z</time>
      </trkpt>
      <trkpt lat="45.22244" lon="6.01513">
        <ele>1688.4470214844</ele>
        <time>2017-03-17T10:21:43Z</time>
      </trkpt>
      <trkpt lat="45.22242" lon="6.01507">
        <ele>1690.4470214844</ele>
        <time>2017-03-17T10:21:46Z</time>
      </trkpt>
      <trkpt lat="45.22243" lon="6.015">
        <ele>1693.4470214844</ele>
        <time>2017-03-17T10:21:51Z</time>
      </trkpt>
      <trkpt lat="45.2224" lon="6.01493">
        <ele>1692.4470214844</ele>
        <time>2017-03-17T10:21:54Z</time>
      </trkpt>
      <trkpt lat="45.22241" lon="6.01486">
        <ele>1693.4470214844</ele>
        <time>2017-03-17T10:21:56Z</time>
      </trkpt>
      <trkpt lat="45.22242" lon="6.01478">
        <ele>1687.4470214844</ele>
        <time>2017-03-17T10:21:58Z</time>
      </trkpt>
      <trkpt lat="45.2224" lon="6.01467">
        <ele>1686.4470214844</ele>
        <time>2017-03-17T10:22:00Z</time>
      </trkpt>
      <trkpt lat="45.22238" lon="6.01456">
        <ele>1683.4470214844</ele>
        <time>2017-03-17T10:22:02Z</time>
      </trkpt>
      <trkpt lat="45.22233" lon="6.01447">
        <ele>1682.4460449219</ele>
        <time>2017-03-17T10:22:04Z</time>
      </trkpt>
      <trkpt lat="45.2223" lon="6.01439">
        <ele>1679.4460449219</ele>
        <time>2017-03-17T10:22:06Z</time>
      </trkpt>
      <trkpt lat="45.22231" lon="6.01427">
        <ele>1678.4460449219</ele>
        <time>2017-03-17T10:22:08Z</time>
      </trkpt>
      <trkpt lat="45.22231" lon="6.01416">
        <ele>1676.4460449219</ele>
        <time>2017-03-17T10:22:10Z</time>
      </trkpt>
      <trkpt lat="45.22232" lon="6.01397">
        <ele>1675.4460449219</ele>
        <time>2017-03-17T10:22:12Z</time>
      </trkpt>
      <trkpt lat="45.22236" lon="6.01384">
        <ele>1676.4460449219</ele>
        <time>2017-03-17T10:22:14Z</time>
      </trkpt>
      <trkpt lat="45.2224" lon="6.01373">
        <ele>1676.4460449219</ele>
        <time>2017-03-17T10:22:16Z</time>
      </trkpt>
      <trkpt lat="45.22245" lon="6.01374">
        <ele>1675.4460449219</ele>
        <time>2017-03-17T10:22:17Z</time>
      </trkpt>
      <trkpt lat="45.22254" lon="6.01375">
        <ele>1674.4460449219</ele>
        <time>2017-03-17T10:22:20Z</time>
      </trkpt>
      <trkpt lat="45.22261" lon="6.0137">
        <ele>1672.4460449219</ele>
        <time>2017-03-17T10:22:23Z</time>
      </trkpt>
      <trkpt lat="45.22271" lon="6.01366">
        <ele>1670.4460449219</ele>
        <time>2017-03-17T10:22:25Z</time>
      </trkpt>
      <trkpt lat="45.22274" lon="6.0136">
        <ele>1671.4460449219</ele>
        <time>2017-03-17T10:22:27Z</time>
      </trkpt>
      <trkpt lat="45.22274" lon="6.01353">
        <ele>1671.4460449219</ele>
        <time>2017-03-17T10:22:29Z</time>
      </trkpt>
      <trkpt lat="45.22271" lon="6.01344">
        <ele>1668.4460449219</ele>
        <time>2017-03-17T10:22:30Z</time>
      </trkpt>
      <trkpt lat="45.22274" lon="6.01329">
        <ele>1666.4460449219</ele>
        <time>2017-03-17T10:22:33Z</time>
      </trkpt>
      <trkpt lat="45.22279" lon="6.01318">
        <ele>1665.4460449219</ele>
        <time>2017-03-17T10:22:35Z</time>
      </trkpt>
      <trkpt lat="45.22284" lon="6.01304">
        <ele>1662.4460449219</ele>
        <time>2017-03-17T10:22:37Z</time>
      </trkpt>
      <trkpt lat="45.22276" lon="6.013">
        <ele>1660.4460449219</ele>
        <time>2017-03-17T10:22:41Z</time>
      </trkpt>
      <trkpt lat="45.22271" lon="6.01302">
        <ele>1659.4460449219</ele>
        <time>2017-03-17T10:22:42Z</time>
      </trkpt>
      <trkpt lat="45.22262" lon="6.01305">
        <ele>1657.4460449219</ele>
        <time>2017-03-17T10:22:44Z</time>
      </trkpt>
      <trkpt lat="45.22247" lon="6.01303">
        <ele>1657.4460449219</ele>
        <time>2017-03-17T10:22:46Z</time>
      </trkpt>
      <trkpt lat="45.2224" lon="6.01301">
        <ele>1658.4460449219</ele>
        <time>2017-03-17T10:22:47Z</time>
      </trkpt>
      <trkpt lat="45.22236" lon="6.01296">
        <ele>1658.4460449219</ele>
        <time>2017-03-17T10:22:48Z</time>
      </trkpt>
      <trkpt lat="45.22234" lon="6.01278">
        <ele>1654.4460449219</ele>
        <time>2017-03-17T10:22:50Z</time>
      </trkpt>
      <trkpt lat="45.22235" lon="6.01269">
        <ele>1651.4460449219</ele>
        <time>2017-03-17T10:22:51Z</time>
      </trkpt>
      <trkpt lat="45.22239" lon="6.01256">
        <ele>1643.4460449219</ele>
        <time>2017-03-17T10:22:55Z</time>
      </trkpt>
      <trkpt lat="45.22238" lon="6.01248">
        <ele>1641.4460449219</ele>
        <time>2017-03-17T10:23:06Z</time>
      </trkpt>
      <trkpt lat="45.22239" lon="6.01238">
        <ele>1639.4460449219</ele>
        <time>2017-03-17T10:23:08Z</time>
      </trkpt>
      <trkpt lat="45.22243" lon="6.01233">
        <ele>1638.4460449219</ele>
        <time>2017-03-17T10:23:10Z</time>
      </trkpt>
      <trkpt lat="45.22244" lon="6.01227">
        <ele>1637.4460449219</ele>
        <time>2017-03-17T10:23:14Z</time>
      </trkpt>
      <trkpt lat="45.22243" lon="6.01217">
        <ele>1634.4460449219</ele>
        <time>2017-03-17T10:23:16Z</time>
      </trkpt>
      <trkpt lat="45.22243" lon="6.01203">
        <ele>1631.4460449219</ele>
        <time>2017-03-17T10:23:18Z</time>
      </trkpt>
      <trkpt lat="45.22242" lon="6.01187">
        <ele>1629.4460449219</ele>
        <time>2017-03-17T10:23:20Z</time>
      </trkpt>
      <trkpt lat="45.22242" lon="6.0118">
        <ele>1628.4460449219</ele>
        <time>2017-03-17T10:23:21Z</time>
      </trkpt>
      <trkpt lat="45.22241" lon="6.01169">
        <ele>1628.4460449219</ele>
        <time>2017-03-17T10:23:23Z</time>
      </trkpt>
      <trkpt lat="45.22237" lon="6.01158">
        <ele>1628.4460449219</ele>
        <time>2017-03-17T10:23:25Z</time>
      </trkpt>
      <trkpt lat="45.22237" lon="6.01151">
        <ele>1626.4460449219</ele>
        <time>2017-03-17T10:23:26Z</time>
      </trkpt>
      <trkpt lat="45.22239" lon="6.01135">
        <ele>1627.4460449219</ele>
        <time>2017-03-17T10:23:28Z</time>
      </trkpt>
      <trkpt lat="45.22241" lon="6.01124">
        <ele>1627.4460449219</ele>
        <time>2017-03-17T10:23:29Z</time>
      </trkpt>
      <trkpt lat="45.22242" lon="6.01104">
        <ele>1626.4460449219</ele>
        <time>2017-03-17T10:23:31Z</time>
      </trkpt>
      <trkpt lat="45.2224" lon="6.0109">
        <ele>1624.4460449219</ele>
        <time>2017-03-17T10:23:32Z</time>
      </trkpt>
      <trkpt lat="45.22235" lon="6.01068">
        <ele>1621.4460449219</ele>
        <time>2017-03-17T10:23:34Z</time>
      </trkpt>
      <trkpt lat="45.22235" lon="6.01061">
        <ele>1619.4460449219</ele>
        <time>2017-03-17T10:23:35Z</time>
      </trkpt>
      <trkpt lat="45.22235" lon="6.01042">
        <ele>1617.4460449219</ele>
        <time>2017-03-17T10:23:37Z</time>
      </trkpt>
      <trkpt lat="45.22237" lon="6.01027">
        <ele>1614.4460449219</ele>
        <time>2017-03-17T10:23:39Z</time>
      </trkpt>
      <trkpt lat="45.22238" lon="6.01008">
        <ele>1611.4460449219</ele>
        <time>2017-03-17T10:23:41Z</time>
      </trkpt>
      <trkpt lat="45.22241" lon="6.00986">
        <ele>1609.4460449219</ele>
        <time>2017-03-17T10:23:43Z</time>
      </trkpt>
      <trkpt lat="45.22247" lon="6.00984">
        <ele>1609.4460449219</ele>
        <time>2017-03-17T10:23:45Z</time>
      </trkpt>
      <trkpt lat="45.22251" lon="6.00974">
        <ele>1599.4460449219</ele>
        <time>2017-03-17T10:24:14Z</time>
      </trkpt>
      <trkpt lat="45.22255" lon="6.00969">
        <ele>1595.4460449219</ele>
        <time>2017-03-17T10:24:16Z</time>
      </trkpt>
      <trkpt lat="45.22251" lon="6.00965">
        <ele>1589.4460449219</ele>
        <time>2017-03-17T10:24:28Z</time>
      </trkpt>
      <trkpt lat="45.22249" lon="6.00959">
        <ele>1589.4460449219</ele>
        <time>2017-03-17T10:24:30Z</time>
      </trkpt>
      <trkpt lat="45.22248" lon="6.00952">
        <ele>1587.4460449219</ele>
        <time>2017-03-17T10:24:32Z</time>
      </trkpt>
      <trkpt lat="45.22249" lon="6.00944">
        <ele>1585.4460449219</ele>
        <time>2017-03-17T10:24:34Z</time>
      </trkpt>
      <trkpt lat="45.22249" lon="6.00936">
        <ele>1583.4460449219</ele>
        <time>2017-03-17T10:24:36Z</time>
      </trkpt>
      <trkpt lat="45.22248" lon="6.00929">
        <ele>1581.4460449219</ele>
        <time>2017-03-17T10:24:39Z</time>
      </trkpt>
      <trkpt lat="45.22246" lon="6.00919">
        <ele>1579.4460449219</ele>
        <time>2017-03-17T10:24:41Z</time>
      </trkpt>
      <trkpt lat="45.22243" lon="6.0091">
        <ele>1577.4460449219</ele>
        <time>2017-03-17T10:24:43Z</time>
      </trkpt>
      <trkpt lat="45.22242" lon="6.00897">
        <ele>1573.4460449219</ele>
        <time>2017-03-17T10:24:45Z</time>
      </trkpt>
      <trkpt lat="45.22239" lon="6.00879">
        <ele>1572.4460449219</ele>
        <time>2017-03-17T10:24:47Z</time>
      </trkpt>
      <trkpt lat="45.22237" lon="6.00858">
        <ele>1573.4460449219</ele>
        <time>2017-03-17T10:24:49Z</time>
      </trkpt>
      <trkpt lat="45.22234" lon="6.00844">
        <ele>1568.4460449219</ele>
        <time>2017-03-17T10:24:52Z</time>
      </trkpt>
      <trkpt lat="45.2223" lon="6.00829">
        <ele>1566.4460449219</ele>
        <time>2017-03-17T10:24:55Z</time>
      </trkpt>
      <trkpt lat="45.22225" lon="6.00826">
        <ele>1566.4460449219</ele>
        <time>2017-03-17T10:24:57Z</time>
      </trkpt>
      <trkpt lat="45.22218" lon="6.0082">
        <ele>1554.4460449219</ele>
        <time>2017-03-17T10:25:13Z</time>
      </trkpt>
      <trkpt lat="45.22212" lon="6.0081">
        <ele>1554.4460449219</ele>
        <time>2017-03-17T10:25:15Z</time>
      </trkpt>
      <trkpt lat="45.22206" lon="6.00795">
        <ele>1553.4460449219</ele>
        <time>2017-03-17T10:25:17Z</time>
      </trkpt>
      <trkpt lat="45.22203" lon="6.00784">
        <ele>1552.4449462891</ele>
        <time>2017-03-17T10:25:18Z</time>
      </trkpt>
      <trkpt lat="45.22196" lon="6.00769">
        <ele>1550.4449462891</ele>
        <time>2017-03-17T10:25:21Z</time>
      </trkpt>
      <trkpt lat="45.22195" lon="6.0076">
        <ele>1544.4449462891</ele>
        <time>2017-03-17T10:25:24Z</time>
      </trkpt>
      <trkpt lat="45.22193" lon="6.0075">
        <ele>1543.4449462891</ele>
        <time>2017-03-17T10:25:26Z</time>
      </trkpt>
      <trkpt lat="45.22193" lon="6.00733">
        <ele>1538.4449462891</ele>
        <time>2017-03-17T10:25:30Z</time>
      </trkpt>
      <trkpt lat="45.22192" lon="6.00723">
        <ele>1537.4449462891</ele>
        <time>2017-03-17T10:25:32Z</time>
      </trkpt>
      <trkpt lat="45.22196" lon="6.00727">
        <ele>1538.4449462891</ele>
        <time>2017-03-17T10:26:03Z</time>
      </trkpt>
      <trkpt lat="45.22204" lon="6.0073">
        <ele>1536.4449462891</ele>
        <time>2017-03-17T10:26:05Z</time>
      </trkpt>
      <trkpt lat="45.22211" lon="6.00721">
        <ele>1532.4449462891</ele>
        <time>2017-03-17T10:26:09Z</time>
      </trkpt>
      <trkpt lat="45.22213" lon="6.00713">
        <ele>1531.4449462891</ele>
        <time>2017-03-17T10:26:11Z</time>
      </trkpt>
      <trkpt lat="45.22215" lon="6.00703">
        <ele>1530.4449462891</ele>
        <time>2017-03-17T10:26:12Z</time>
      </trkpt>
      <trkpt lat="45.22213" lon="6.0069">
        <ele>1530.4449462891</ele>
        <time>2017-03-17T10:26:14Z</time>
      </trkpt>
      <trkpt lat="45.22216" lon="6.00684">
        <ele>1530.4449462891</ele>
        <time>2017-03-17T10:26:17Z</time>
      </trkpt>
      <trkpt lat="45.22214" lon="6.00678">
        <ele>1529.4449462891</ele>
        <time>2017-03-17T10:26:19Z</time>
      </trkpt>
      <trkpt lat="45.22211" lon="6.00669">
        <ele>1529.4449462891</ele>
        <time>2017-03-17T10:26:22Z</time>
      </trkpt>
      <trkpt lat="45.22211" lon="6.00661">
        <ele>1523.4449462891</ele>
        <time>2017-03-17T10:26:24Z</time>
      </trkpt>
      <trkpt lat="45.22212" lon="6.00655">
        <ele>1523.4449462891</ele>
        <time>2017-03-17T10:26:26Z</time>
      </trkpt>
      <trkpt lat="45.22213" lon="6.00647">
        <ele>1521.4449462891</ele>
        <time>2017-03-17T10:26:28Z</time>
      </trkpt>
      <trkpt lat="45.22219" lon="6.0064">
        <ele>1519.4449462891</ele>
        <time>2017-03-17T10:26:30Z</time>
      </trkpt>
      <trkpt lat="45.22222" lon="6.00632">
        <ele>1515.4449462891</ele>
        <time>2017-03-17T10:26:32Z</time>
      </trkpt>
      <trkpt lat="45.22224" lon="6.00625">
        <ele>1515.4449462891</ele>
        <time>2017-03-17T10:26:34Z</time>
      </trkpt>
      <trkpt lat="45.22227" lon="6.00616">
        <ele>1515.4449462891</ele>
        <time>2017-03-17T10:26:36Z</time>
      </trkpt>
      <trkpt lat="45.22227" lon="6.00601">
        <ele>1511.4449462891</ele>
        <time>2017-03-17T10:26:39Z</time>
      </trkpt>
      <trkpt lat="45.2222" lon="6.00598">
        <ele>1510.4449462891</ele>
        <time>2017-03-17T10:26:41Z</time>
      </trkpt>
      <trkpt lat="45.22215" lon="6.00588">
        <ele>1509.4449462891</ele>
        <time>2017-03-17T10:26:43Z</time>
      </trkpt>
      <trkpt lat="45.22222" lon="6.00585">
        <ele>1507.4449462891</ele>
        <time>2017-03-17T10:26:45Z</time>
      </trkpt>
      <trkpt lat="45.22228" lon="6.00586">
        <ele>1506.4449462891</ele>
        <time>2017-03-17T10:26:47Z</time>
      </trkpt>
      <trkpt lat="45.2223" lon="6.00574">
        <ele>1508.4449462891</ele>
        <time>2017-03-17T10:26:51Z</time>
      </trkpt>
      <trkpt lat="45.22231" lon="6.00564">
        <ele>1508.4449462891</ele>
        <time>2017-03-17T10:26:53Z</time>
      </trkpt>
      <trkpt lat="45.22227" lon="6.00556">
        <ele>1507.4449462891</ele>
        <time>2017-03-17T10:26:55Z</time>
      </trkpt>
      <trkpt lat="45.22227" lon="6.00548">
        <ele>1503.4449462891</ele>
        <time>2017-03-17T10:26:57Z</time>
      </trkpt>
      <trkpt lat="45.22229" lon="6.0054">
        <ele>1501.4449462891</ele>
        <time>2017-03-17T10:26:59Z</time>
      </trkpt>
      <trkpt lat="45.22234" lon="6.00536">
        <ele>1501.4449462891</ele>
        <time>2017-03-17T10:27:01Z</time>
      </trkpt>
      <trkpt lat="45.22239" lon="6.00524">
        <ele>1498.4449462891</ele>
        <time>2017-03-17T10:27:05Z</time>
      </trkpt>
      <trkpt lat="45.22248" lon="6.0052">
        <ele>1496.4449462891</ele>
        <time>2017-03-17T10:27:08Z</time>
      </trkpt>
      <trkpt lat="45.22243" lon="6.00515">
        <ele>1494.4449462891</ele>
        <time>2017-03-17T10:27:10Z</time>
      </trkpt>
      <trkpt lat="45.22243" lon="6.00506">
        <ele>1492.4449462891</ele>
        <time>2017-03-17T10:27:19Z</time>
      </trkpt>
      <trkpt lat="45.22239" lon="6.00491">
        <ele>1489.4449462891</ele>
        <time>2017-03-17T10:27:21Z</time>
      </trkpt>
      <trkpt lat="45.2224" lon="6.00479">
        <ele>1482.4449462891</ele>
        <time>2017-03-17T10:27:23Z</time>
      </trkpt>
      <trkpt lat="45.22241" lon="6.00473">
        <ele>1480.4449462891</ele>
        <time>2017-03-17T10:27:24Z</time>
      </trkpt>
      <trkpt lat="45.22246" lon="6.0047">
        <ele>1474.4449462891</ele>
        <time>2017-03-17T10:27:26Z</time>
      </trkpt>
      <trkpt lat="45.2225" lon="6.00459">
        <ele>1470.4449462891</ele>
        <time>2017-03-17T10:27:28Z</time>
      </trkpt>
      <trkpt lat="45.22256" lon="6.00445">
        <ele>1467.4449462891</ele>
        <time>2017-03-17T10:27:30Z</time>
      </trkpt>
      <trkpt lat="45.22263" lon="6.00438">
        <ele>1466.4449462891</ele>
        <time>2017-03-17T10:27:32Z</time>
      </trkpt>
      <trkpt lat="45.22267" lon="6.00434">
        <ele>1464.4449462891</ele>
        <time>2017-03-17T10:27:33Z</time>
      </trkpt>
      <trkpt lat="45.22274" lon="6.00427">
        <ele>1463.4449462891</ele>
        <time>2017-03-17T10:27:35Z</time>
      </trkpt>
      <trkpt lat="45.22278" lon="6.00418">
        <ele>1461.4449462891</ele>
        <time>2017-03-17T10:27:37Z</time>
      </trkpt>
      <trkpt lat="45.22277" lon="6.00408">
        <ele>1459.4449462891</ele>
        <time>2017-03-17T10:27:39Z</time>
      </trkpt>
      <trkpt lat="45.22281" lon="6.00403">
        <ele>1458.4449462891</ele>
        <time>2017-03-17T10:27:41Z</time>
      </trkpt>
      <trkpt lat="45.22294" lon="6.00406">
        <ele>1455.4449462891</ele>
        <time>2017-03-17T10:27:43Z</time>
      </trkpt>
      <trkpt lat="45.223" lon="6.00408">
        <ele>1452.4449462891</ele>
        <time>2017-03-17T10:27:44Z</time>
      </trkpt>
      <trkpt lat="45.22313" lon="6.00408">
        <ele>1450.4449462891</ele>
        <time>2017-03-17T10:27:46Z</time>
      </trkpt>
      <trkpt lat="45.22319" lon="6.00392">
        <ele>1448.4449462891</ele>
        <time>2017-03-17T10:27:48Z</time>
      </trkpt>
      <trkpt lat="45.22326" lon="6.00377">
        <ele>1445.4449462891</ele>
        <time>2017-03-17T10:27:50Z</time>
      </trkpt>
      <trkpt lat="45.22334" lon="6.0037">
        <ele>1442.4449462891</ele>
        <time>2017-03-17T10:27:52Z</time>
      </trkpt>
      <trkpt lat="45.22337" lon="6.00353">
        <ele>1441.4449462891</ele>
        <time>2017-03-17T10:27:54Z</time>
      </trkpt>
      <trkpt lat="45.22334" lon="6.00339">
        <ele>1440.4449462891</ele>
        <time>2017-03-17T10:27:55Z</time>
      </trkpt>
      <trkpt lat="45.22332" lon="6.00328">
        <ele>1439.4449462891</ele>
        <time>2017-03-17T10:27:56Z</time>
      </trkpt>
      <trkpt lat="45.22325" lon="6.00315">
        <ele>1437.4449462891</ele>
        <time>2017-03-17T10:27:58Z</time>
      </trkpt>
      <trkpt lat="45.22318" lon="6.00306">
        <ele>1436.4449462891</ele>
        <time>2017-03-17T10:28:00Z</time>
      </trkpt>
      <trkpt lat="45.22322" lon="6.00301">
        <ele>1437.4449462891</ele>
        <time>2017-03-17T10:28:01Z</time>
      </trkpt>
      <trkpt lat="45.22325" lon="6.00288">
        <ele>1434.4449462891</ele>
        <time>2017-03-17T10:28:04Z</time>
      </trkpt>
      <trkpt lat="45.22321" lon="6.00282">
        <ele>1435.4449462891</ele>
        <time>2017-03-17T10:28:10Z</time>
      </trkpt>
      <trkpt lat="45.22319" lon="6.00277">
        <ele>1432.4449462891</ele>
        <time>2017-03-17T10:28:16Z</time>
      </trkpt>
      <trkpt lat="45.22317" lon="6.0027">
        <ele>1427.4449462891</ele>
        <time>2017-03-17T10:28:22Z</time>
      </trkpt>
      <trkpt lat="45.22313" lon="6.00263">
        <ele>1426.4449462891</ele>
        <time>2017-03-17T10:28:24Z</time>
      </trkpt>
      <trkpt lat="45.2231" lon="6.00252">
        <ele>1423.4449462891</ele>
        <time>2017-03-17T10:28:27Z</time>
      </trkpt>
      <trkpt lat="45.22307" lon="6.00238">
        <ele>1418.4449462891</ele>
        <time>2017-03-17T10:28:29Z</time>
      </trkpt>
      <trkpt lat="45.2231" lon="6.00216">
        <ele>1415.4449462891</ele>
        <time>2017-03-17T10:28:31Z</time>
      </trkpt>
      <trkpt lat="45.22317" lon="6.00205">
        <ele>1415.4449462891</ele>
        <time>2017-03-17T10:28:32Z</time>
      </trkpt>
      <trkpt lat="45.22333" lon="6.00198">
        <ele>1415.4449462891</ele>
        <time>2017-03-17T10:28:34Z</time>
      </trkpt>
      <trkpt lat="45.22344" lon="6.00178">
        <ele>1412.4449462891</ele>
        <time>2017-03-17T10:28:36Z</time>
      </trkpt>
      <trkpt lat="45.22349" lon="6.0017">
        <ele>1412.4449462891</ele>
        <time>2017-03-17T10:28:37Z</time>
      </trkpt>
      <trkpt lat="45.22361" lon="6.00155">
        <ele>1411.4449462891</ele>
        <time>2017-03-17T10:28:39Z</time>
      </trkpt>
      <trkpt lat="45.22372" lon="6.00142">
        <ele>1411.4449462891</ele>
        <time>2017-03-17T10:28:41Z</time>
      </trkpt>
      <trkpt lat="45.22379" lon="6.00149">
        <ele>1409.4449462891</ele>
        <time>2017-03-17T10:28:42Z</time>
      </trkpt>
      <trkpt lat="45.22385" lon="6.00148">
        <ele>1408.4449462891</ele>
        <time>2017-03-17T10:28:43Z</time>
      </trkpt>
      <trkpt lat="45.22395" lon="6.00141">
        <ele>1406.4449462891</ele>
        <time>2017-03-17T10:28:45Z</time>
      </trkpt>
      <trkpt lat="45.22409" lon="6.0013">
        <ele>1404.4449462891</ele>
        <time>2017-03-17T10:28:47Z</time>
      </trkpt>
      <trkpt lat="45.2242" lon="6.00124">
        <ele>1404.4449462891</ele>
        <time>2017-03-17T10:28:48Z</time>
      </trkpt>
      <trkpt lat="45.22428" lon="6.00117">
        <ele>1402.4449462891</ele>
        <time>2017-03-17T10:28:49Z</time>
      </trkpt>
      <trkpt lat="45.22442" lon="6.00101">
        <ele>1398.4449462891</ele>
        <time>2017-03-17T10:28:51Z</time>
      </trkpt>
      <trkpt lat="45.22448" lon="6.00092">
        <ele>1394.4449462891</ele>
        <time>2017-03-17T10:28:53Z</time>
      </trkpt>
      <trkpt lat="45.22453" lon="6.00083">
        <ele>1393.4449462891</ele>
        <time>2017-03-17T10:28:55Z</time>
      </trkpt>
      <trkpt lat="45.22456" lon="6.00069">
        <ele>1392.4449462891</ele>
        <time>2017-03-17T10:28:58Z</time>
      </trkpt>
      <trkpt lat="45.22463" lon="6.00062">
        <ele>1393.4449462891</ele>
        <time>2017-03-17T10:29:00Z</time>
      </trkpt>
      <trkpt lat="45.22467" lon="6.00056">
        <ele>1392.4449462891</ele>
        <time>2017-03-17T10:29:02Z</time>
      </trkpt>
      <trkpt lat="45.22477" lon="6.00041">
        <ele>1388.4449462891</ele>
        <time>2017-03-17T10:29:05Z</time>
      </trkpt>
      <trkpt lat="45.22486" lon="6.00029">
        <ele>1385.4449462891</ele>
        <time>2017-03-17T10:29:07Z</time>
      </trkpt>
      <trkpt lat="45.22497" lon="6.00015">
        <ele>1382.4449462891</ele>
        <time>2017-03-17T10:29:09Z</time>
      </trkpt>
      <trkpt lat="45.225" lon="5.99994">
        <ele>1380.4449462891</ele>
        <time>2017-03-17T10:29:11Z</time>
      </trkpt>
      <trkpt lat="45.22506" lon="5.99977">
        <ele>1377.4449462891</ele>
        <time>2017-03-17T10:29:13Z</time>
      </trkpt>
      <trkpt lat="45.22508" lon="5.99963">
        <ele>1377.4449462891</ele>
        <time>2017-03-17T10:29:15Z</time>
      </trkpt>
      <trkpt lat="45.22508" lon="5.99947">
        <ele>1378.4449462891</ele>
        <time>2017-03-17T10:29:18Z</time>
      </trkpt>
      <trkpt lat="45.22509" lon="5.99939">
        <ele>1380.4449462891</ele>
        <time>2017-03-17T10:29:20Z</time>
      </trkpt>
      <trkpt lat="45.22513" lon="5.99933">
        <ele>1373.4449462891</ele>
        <time>2017-03-17T10:31:55Z</time>
      </trkpt>
      <trkpt lat="45.22515" lon="5.99927">
        <ele>1372.4449462891</ele>
        <time>2017-03-17T10:31:59Z</time>
      </trkpt>
      <trkpt lat="45.22516" lon="5.99921">
        <ele>1374.4449462891</ele>
        <time>2017-03-17T10:32:11Z</time>
      </trkpt>
      <trkpt lat="45.22519" lon="5.99913">
        <ele>1377.4449462891</ele>
        <time>2017-03-17T10:32:16Z</time>
      </trkpt>
      <trkpt lat="45.22519" lon="5.99905">
        <ele>1381.4449462891</ele>
        <time>2017-03-17T10:32:20Z</time>
      </trkpt>
      <trkpt lat="45.22517" lon="5.99898">
        <ele>1382.4449462891</ele>
        <time>2017-03-17T10:32:23Z</time>
      </trkpt>
      <trkpt lat="45.22517" lon="5.99891">
        <ele>1377.4449462891</ele>
        <time>2017-03-17T10:32:27Z</time>
      </trkpt>
      <trkpt lat="45.22518" lon="5.99883">
        <ele>1373.4449462891</ele>
        <time>2017-03-17T10:32:31Z</time>
      </trkpt>
      <trkpt lat="45.22517" lon="5.99875">
        <ele>1366.4449462891</ele>
        <time>2017-03-17T10:32:36Z</time>
      </trkpt>
      <trkpt lat="45.22517" lon="5.99868">
        <ele>1364.4449462891</ele>
        <time>2017-03-17T10:32:40Z</time>
      </trkpt>
      <trkpt lat="45.2252" lon="5.99859">
        <ele>1362.4449462891</ele>
        <time>2017-03-17T10:32:45Z</time>
      </trkpt>
      <trkpt lat="45.22523" lon="5.99852">
        <ele>1361.4449462891</ele>
        <time>2017-03-17T10:32:49Z</time>
      </trkpt>
      <trkpt lat="45.22526" lon="5.99846">
        <ele>1359.4449462891</ele>
        <time>2017-03-17T10:32:53Z</time>
      </trkpt>
      <trkpt lat="45.22528" lon="5.99841">
        <ele>1359.4449462891</ele>
        <time>2017-03-17T10:32:57Z</time>
      </trkpt>
      <trkpt lat="45.22529" lon="5.99831">
        <ele>1358.4449462891</ele>
        <time>2017-03-17T10:33:05Z</time>
      </trkpt>
      <trkpt lat="45.22529" lon="5.99823">
        <ele>1361.4449462891</ele>
        <time>2017-03-17T10:33:08Z</time>
      </trkpt>
      <trkpt lat="45.22531" lon="5.99816">
        <ele>1362.4449462891</ele>
        <time>2017-03-17T10:33:11Z</time>
      </trkpt>
      <trkpt lat="45.2253" lon="5.99808">
        <ele>1359.4449462891</ele>
        <time>2017-03-17T10:33:16Z</time>
      </trkpt>
      <trkpt lat="45.22534" lon="5.99804">
        <ele>1358.4449462891</ele>
        <time>2017-03-17T10:33:21Z</time>
      </trkpt>
      <trkpt lat="45.22535" lon="5.99798">
        <ele>1358.4449462891</ele>
        <time>2017-03-17T10:33:25Z</time>
      </trkpt>
      <trkpt lat="45.22538" lon="5.99793">
        <ele>1359.4449462891</ele>
        <time>2017-03-17T10:33:28Z</time>
      </trkpt>
      <trkpt lat="45.22539" lon="5.99786">
        <ele>1358.4449462891</ele>
        <time>2017-03-17T10:33:32Z</time>
      </trkpt>
      <trkpt lat="45.22535" lon="5.9978">
        <ele>1361.4449462891</ele>
        <time>2017-03-17T10:33:37Z</time>
      </trkpt>
      <trkpt lat="45.2253" lon="5.99781">
        <ele>1360.4449462891</ele>
        <time>2017-03-17T10:33:41Z</time>
      </trkpt>
      <trkpt lat="45.22527" lon="5.99787">
        <ele>1354.4449462891</ele>
        <time>2017-03-17T10:33:45Z</time>
      </trkpt>
      <trkpt lat="45.22527" lon="5.99794">
        <ele>1355.4449462891</ele>
        <time>2017-03-17T10:33:49Z</time>
      </trkpt>
      <trkpt lat="45.22526" lon="5.99801">
        <ele>1354.4449462891</ele>
        <time>2017-03-17T10:33:53Z</time>
      </trkpt>
      <trkpt lat="45.22526" lon="5.99808">
        <ele>1354.4449462891</ele>
        <time>2017-03-17T10:33:56Z</time>
      </trkpt>
      <trkpt lat="45.22523" lon="5.99815">
        <ele>1356.4449462891</ele>
        <time>2017-03-17T10:34:00Z</time>
      </trkpt>
      <trkpt lat="45.22521" lon="5.9982">
        <ele>1357.4449462891</ele>
        <time>2017-03-17T10:34:04Z</time>
      </trkpt>
      <trkpt lat="45.22517" lon="5.99825">
        <ele>1356.4449462891</ele>
        <time>2017-03-17T10:34:08Z</time>
      </trkpt>
      <trkpt lat="45.22514" lon="5.99831">
        <ele>1357.4449462891</ele>
        <time>2017-03-17T10:34:11Z</time>
      </trkpt>
      <trkpt lat="45.2251" lon="5.99836">
        <ele>1358.4449462891</ele>
        <time>2017-03-17T10:34:15Z</time>
      </trkpt>
      <trkpt lat="45.22508" lon="5.99841">
        <ele>1358.4449462891</ele>
        <time>2017-03-17T10:34:19Z</time>
      </trkpt>
      <trkpt lat="45.22504" lon="5.99847">
        <ele>1358.4449462891</ele>
        <time>2017-03-17T10:34:23Z</time>
      </trkpt>
      <trkpt lat="45.225" lon="5.99855">
        <ele>1357.4449462891</ele>
        <time>2017-03-17T10:34:28Z</time>
      </trkpt>
      <trkpt lat="45.22496" lon="5.9986">
        <ele>1356.4449462891</ele>
        <time>2017-03-17T10:34:32Z</time>
      </trkpt>
      <trkpt lat="45.22492" lon="5.99866">
        <ele>1355.4449462891</ele>
        <time>2017-03-17T10:34:36Z</time>
      </trkpt>
      <trkpt lat="45.22488" lon="5.99873">
        <ele>1354.4449462891</ele>
        <time>2017-03-17T10:34:42Z</time>
      </trkpt>
      <trkpt lat="45.22484" lon="5.99877">
        <ele>1350.4449462891</ele>
        <time>2017-03-17T10:34:49Z</time>
      </trkpt>
      <trkpt lat="45.22479" lon="5.99881">
        <ele>1353.4449462891</ele>
        <time>2017-03-17T10:34:53Z</time>
      </trkpt>
      <trkpt lat="45.22475" lon="5.99885">
        <ele>1352.4449462891</ele>
        <time>2017-03-17T10:34:59Z</time>
      </trkpt>
      <trkpt lat="45.2247" lon="5.99886">
        <ele>1350.4449462891</ele>
        <time>2017-03-17T10:35:04Z</time>
      </trkpt>
      <trkpt lat="45.22465" lon="5.99887">
        <ele>1349.4449462891</ele>
        <time>2017-03-17T10:35:07Z</time>
      </trkpt>
      <trkpt lat="45.22461" lon="5.99889">
        <ele>1348.4449462891</ele>
        <time>2017-03-17T10:35:10Z</time>
      </trkpt>
      <trkpt lat="45.22455" lon="5.99886">
        <ele>1346.4449462891</ele>
        <time>2017-03-17T10:35:14Z</time>
      </trkpt>
      <trkpt lat="45.22452" lon="5.99881">
        <ele>1344.4449462891</ele>
        <time>2017-03-17T10:35:17Z</time>
      </trkpt>
      <trkpt lat="45.22448" lon="5.99875">
        <ele>1343.4449462891</ele>
        <time>2017-03-17T10:35:20Z</time>
      </trkpt>
      <trkpt lat="45.22446" lon="5.99869">
        <ele>1343.4449462891</ele>
        <time>2017-03-17T10:35:25Z</time>
      </trkpt>
      <trkpt lat="45.22445" lon="5.99862">
        <ele>1341.4449462891</ele>
        <time>2017-03-17T10:35:29Z</time>
      </trkpt>
      <trkpt lat="45.22448" lon="5.99856">
        <ele>1345.4449462891</ele>
        <time>2017-03-17T10:35:34Z</time>
      </trkpt>
      <trkpt lat="45.2245" lon="5.9985">
        <ele>1349.4449462891</ele>
        <time>2017-03-17T10:35:39Z</time>
      </trkpt>
      <trkpt lat="45.22453" lon="5.99845">
        <ele>1352.4449462891</ele>
        <time>2017-03-17T10:35:43Z</time>
      </trkpt>
      <trkpt lat="45.22458" lon="5.9984">
        <ele>1355.4449462891</ele>
        <time>2017-03-17T10:35:48Z</time>
      </trkpt>
      <trkpt lat="45.22463" lon="5.99839">
        <ele>1355.4449462891</ele>
        <time>2017-03-17T10:35:52Z</time>
      </trkpt>
      <trkpt lat="45.22469" lon="5.99838">
        <ele>1358.4449462891</ele>
        <time>2017-03-17T10:35:56Z</time>
      </trkpt>
      <trkpt lat="45.22472" lon="5.99833">
        <ele>1361.4449462891</ele>
        <time>2017-03-17T10:36:01Z</time>
      </trkpt>
      <trkpt lat="45.22477" lon="5.99825">
        <ele>1361.4449462891</ele>
        <time>2017-03-17T10:36:06Z</time>
      </trkpt>
      <trkpt lat="45.2248" lon="5.9982">
        <ele>1361.4449462891</ele>
        <time>2017-03-17T10:36:09Z</time>
      </trkpt>
      <trkpt lat="45.22486" lon="5.99815">
        <ele>1356.4449462891</ele>
        <time>2017-03-17T10:36:13Z</time>
      </trkpt>
      <trkpt lat="45.22488" lon="5.9981">
        <ele>1356.4449462891</ele>
        <time>2017-03-17T10:36:16Z</time>
      </trkpt>
      <trkpt lat="45.22492" lon="5.99804">
        <ele>1354.4449462891</ele>
        <time>2017-03-17T10:36:19Z</time>
      </trkpt>
      <trkpt lat="45.22496" lon="5.99799">
        <ele>1352.4449462891</ele>
        <time>2017-03-17T10:36:23Z</time>
      </trkpt>
      <trkpt lat="45.22498" lon="5.99793">
        <ele>1351.4449462891</ele>
        <time>2017-03-17T10:36:27Z</time>
      </trkpt>
      <trkpt lat="45.22498" lon="5.99786">
        <ele>1351.4449462891</ele>
        <time>2017-03-17T10:36:30Z</time>
      </trkpt>
      <trkpt lat="45.22499" lon="5.99779">
        <ele>1351.4449462891</ele>
        <time>2017-03-17T10:36:34Z</time>
      </trkpt>
      <trkpt lat="45.22502" lon="5.99771">
        <ele>1349.4449462891</ele>
        <time>2017-03-17T10:36:39Z</time>
      </trkpt>
      <trkpt lat="45.22502" lon="5.99764">
        <ele>1352.4449462891</ele>
        <time>2017-03-17T10:36:42Z</time>
      </trkpt>
      <trkpt lat="45.22502" lon="5.99756">
        <ele>1356.4449462891</ele>
        <time>2017-03-17T10:36:46Z</time>
      </trkpt>
      <trkpt lat="45.22501" lon="5.99749">
        <ele>1355.4449462891</ele>
        <time>2017-03-17T10:36:51Z</time>
      </trkpt>
      <trkpt lat="45.22502" lon="5.99742">
        <ele>1353.4449462891</ele>
        <time>2017-03-17T10:36:55Z</time>
      </trkpt>
      <trkpt lat="45.22506" lon="5.99735">
        <ele>1350.4449462891</ele>
        <time>2017-03-17T10:36:59Z</time>
      </trkpt>
      <trkpt lat="45.22506" lon="5.99728">
        <ele>1350.4449462891</ele>
        <time>2017-03-17T10:37:02Z</time>
      </trkpt>
      <trkpt lat="45.22508" lon="5.99721">
        <ele>1343.4449462891</ele>
        <time>2017-03-17T10:37:05Z</time>
      </trkpt>
      <trkpt lat="45.22509" lon="5.99713">
        <ele>1343.4449462891</ele>
        <time>2017-03-17T10:37:07Z</time>
      </trkpt>
      <trkpt lat="45.22508" lon="5.99706">
        <ele>1341.4449462891</ele>
        <time>2017-03-17T10:37:09Z</time>
      </trkpt>
      <trkpt lat="45.22507" lon="5.997">
        <ele>1339.4449462891</ele>
        <time>2017-03-17T10:37:11Z</time>
      </trkpt>
      <trkpt lat="45.22508" lon="5.99693">
        <ele>1336.4449462891</ele>
        <time>2017-03-17T10:37:16Z</time>
      </trkpt>
      <trkpt lat="45.22509" lon="5.99685">
        <ele>1331.4449462891</ele>
        <time>2017-03-17T10:37:22Z</time>
      </trkpt>
      <trkpt lat="45.2251" lon="5.99678">
        <ele>1330.4449462891</ele>
        <time>2017-03-17T10:37:25Z</time>
      </trkpt>
      <trkpt lat="45.22509" lon="5.99667">
        <ele>1331.4449462891</ele>
        <time>2017-03-17T10:37:29Z</time>
      </trkpt>
      <trkpt lat="45.22508" lon="5.99661">
        <ele>1333.4449462891</ele>
        <time>2017-03-17T10:37:34Z</time>
      </trkpt>
      <trkpt lat="45.22508" lon="5.99653">
        <ele>1336.4449462891</ele>
        <time>2017-03-17T10:37:40Z</time>
      </trkpt>
      <trkpt lat="45.22508" lon="5.99645">
        <ele>1336.4449462891</ele>
        <time>2017-03-17T10:37:44Z</time>
      </trkpt>
      <trkpt lat="45.22509" lon="5.99638">
        <ele>1337.4449462891</ele>
        <time>2017-03-17T10:37:49Z</time>
      </trkpt>
      <trkpt lat="45.2251" lon="5.99631">
        <ele>1339.4449462891</ele>
        <time>2017-03-17T10:37:53Z</time>
      </trkpt>
      <trkpt lat="45.2251" lon="5.99624">
        <ele>1339.4449462891</ele>
        <time>2017-03-17T10:37:56Z</time>
      </trkpt>
      <trkpt lat="45.22511" lon="5.99618">
        <ele>1332.4439697266</ele>
        <time>2017-03-17T10:37:58Z</time>
      </trkpt>
      <trkpt lat="45.22512" lon="5.99612">
        <ele>1329.4439697266</ele>
        <time>2017-03-17T10:38:00Z</time>
      </trkpt>
      <trkpt lat="45.22512" lon="5.99605">
        <ele>1326.4439697266</ele>
        <time>2017-03-17T10:38:02Z</time>
      </trkpt>
      <trkpt lat="45.22513" lon="5.99598">
        <ele>1322.4439697266</ele>
        <time>2017-03-17T10:38:06Z</time>
      </trkpt>
      <trkpt lat="45.22516" lon="5.9959">
        <ele>1320.4439697266</ele>
        <time>2017-03-17T10:38:11Z</time>
      </trkpt>
      <trkpt lat="45.22518" lon="5.99584">
        <ele>1320.4439697266</ele>
        <time>2017-03-17T10:38:14Z</time>
      </trkpt>
      <trkpt lat="45.2252" lon="5.99577">
        <ele>1322.4439697266</ele>
        <time>2017-03-17T10:38:17Z</time>
      </trkpt>
      <trkpt lat="45.22525" lon="5.99574">
        <ele>1325.4439697266</ele>
        <time>2017-03-17T10:38:20Z</time>
      </trkpt>
      <trkpt lat="45.22529" lon="5.9957">
        <ele>1324.4439697266</ele>
        <time>2017-03-17T10:38:23Z</time>
      </trkpt>
      <trkpt lat="45.22533" lon="5.99565">
        <ele>1324.4439697266</ele>
        <time>2017-03-17T10:38:26Z</time>
      </trkpt>
      <trkpt lat="45.22535" lon="5.99559">
        <ele>1324.4439697266</ele>
        <time>2017-03-17T10:38:28Z</time>
      </trkpt>
      <trkpt lat="45.22539" lon="5.99555">
        <ele>1321.4439697266</ele>
        <time>2017-03-17T10:38:32Z</time>
      </trkpt>
      <trkpt lat="45.22543" lon="5.9955">
        <ele>1319.4439697266</ele>
        <time>2017-03-17T10:38:36Z</time>
      </trkpt>
      <trkpt lat="45.22548" lon="5.99546">
        <ele>1318.4439697266</ele>
        <time>2017-03-17T10:38:40Z</time>
      </trkpt>
      <trkpt lat="45.22553" lon="5.99545">
        <ele>1318.4439697266</ele>
        <time>2017-03-17T10:38:43Z</time>
      </trkpt>
      <trkpt lat="45.22556" lon="5.99539">
        <ele>1318.4439697266</ele>
        <time>2017-03-17T10:38:47Z</time>
      </trkpt>
      <trkpt lat="45.22558" lon="5.99532">
        <ele>1319.4439697266</ele>
        <time>2017-03-17T10:38:49Z</time>
      </trkpt>
      <trkpt lat="45.22563" lon="5.99529">
        <ele>1318.4439697266</ele>
        <time>2017-03-17T10:38:52Z</time>
      </trkpt>
      <trkpt lat="45.22566" lon="5.99524">
        <ele>1316.4439697266</ele>
        <time>2017-03-17T10:38:57Z</time>
      </trkpt>
      <trkpt lat="45.22572" lon="5.99522">
        <ele>1316.4439697266</ele>
        <time>2017-03-17T10:39:00Z</time>
      </trkpt>
      <trkpt lat="45.22575" lon="5.99517">
        <ele>1318.4439697266</ele>
        <time>2017-03-17T10:39:03Z</time>
      </trkpt>
      <trkpt lat="45.22578" lon="5.99511">
        <ele>1316.4439697266</ele>
        <time>2017-03-17T10:39:07Z</time>
      </trkpt>
      <trkpt lat="45.22579" lon="5.99504">
        <ele>1314.4439697266</ele>
        <time>2017-03-17T10:39:12Z</time>
      </trkpt>
      <trkpt lat="45.22582" lon="5.99499">
        <ele>1312.4439697266</ele>
        <time>2017-03-17T10:39:16Z</time>
      </trkpt>
      <trkpt lat="45.22586" lon="5.99494">
        <ele>1313.4439697266</ele>
        <time>2017-03-17T10:39:19Z</time>
      </trkpt>
      <trkpt lat="45.2259" lon="5.9949">
        <ele>1316.4439697266</ele>
        <time>2017-03-17T10:39:22Z</time>
      </trkpt>
      <trkpt lat="45.22595" lon="5.99485">
        <ele>1318.4439697266</ele>
        <time>2017-03-17T10:39:25Z</time>
      </trkpt>
      <trkpt lat="45.226" lon="5.9948">
        <ele>1319.4439697266</ele>
        <time>2017-03-17T10:39:30Z</time>
      </trkpt>
      <trkpt lat="45.22606" lon="5.99476">
        <ele>1318.4439697266</ele>
        <time>2017-03-17T10:39:33Z</time>
      </trkpt>
      <trkpt lat="45.22609" lon="5.99471">
        <ele>1317.4439697266</ele>
        <time>2017-03-17T10:39:36Z</time>
      </trkpt>
      <trkpt lat="45.22612" lon="5.99466">
        <ele>1316.4439697266</ele>
        <time>2017-03-17T10:39:39Z</time>
      </trkpt>
      <trkpt lat="45.22616" lon="5.99461">
        <ele>1312.4439697266</ele>
        <time>2017-03-17T10:39:44Z</time>
      </trkpt>
      <trkpt lat="45.2262" lon="5.99456">
        <ele>1313.4439697266</ele>
        <time>2017-03-17T10:39:49Z</time>
      </trkpt>
      <trkpt lat="45.22619" lon="5.99449">
        <ele>1312.4439697266</ele>
        <time>2017-03-17T10:39:55Z</time>
      </trkpt>
      <trkpt lat="45.22623" lon="5.99444">
        <ele>1312.4439697266</ele>
        <time>2017-03-17T10:39:58Z</time>
      </trkpt>
      <trkpt lat="45.22627" lon="5.99439">
        <ele>1311.4439697266</ele>
        <time>2017-03-17T10:40:02Z</time>
      </trkpt>
      <trkpt lat="45.22632" lon="5.99437">
        <ele>1310.4439697266</ele>
        <time>2017-03-17T10:40:05Z</time>
      </trkpt>
      <trkpt lat="45.22638" lon="5.99434">
        <ele>1310.4439697266</ele>
        <time>2017-03-17T10:40:09Z</time>
      </trkpt>
      <trkpt lat="45.22643" lon="5.99431">
        <ele>1311.4439697266</ele>
        <time>2017-03-17T10:40:15Z</time>
      </trkpt>
      <trkpt lat="45.22648" lon="5.99428">
        <ele>1311.4449462891</ele>
        <time>2017-03-17T10:40:18Z</time>
      </trkpt>
      <trkpt lat="45.22657" lon="5.99426">
        <ele>1311.4449462891</ele>
        <time>2017-03-17T10:40:22Z</time>
      </trkpt>
      <trkpt lat="45.22662" lon="5.99426">
        <ele>1305.4449462891</ele>
        <time>2017-03-17T10:40:27Z</time>
      </trkpt>
      <trkpt lat="45.22668" lon="5.99423">
        <ele>1301.4449462891</ele>
        <time>2017-03-17T10:40:32Z</time>
      </trkpt>
      <trkpt lat="45.22671" lon="5.99416">
        <ele>1299.4449462891</ele>
        <time>2017-03-17T10:40:39Z</time>
      </trkpt>
      <trkpt lat="45.22672" lon="5.9941">
        <ele>1299.4449462891</ele>
        <time>2017-03-17T10:40:42Z</time>
      </trkpt>
      <trkpt lat="45.22679" lon="5.99408">
        <ele>1301.4449462891</ele>
        <time>2017-03-17T10:40:44Z</time>
      </trkpt>
      <trkpt lat="45.22685" lon="5.99408">
        <ele>1300.4449462891</ele>
        <time>2017-03-17T10:40:46Z</time>
      </trkpt>
      <trkpt lat="45.2269" lon="5.99409">
        <ele>1299.4449462891</ele>
        <time>2017-03-17T10:40:50Z</time>
      </trkpt>
      <trkpt lat="45.22695" lon="5.99406">
        <ele>1297.4449462891</ele>
        <time>2017-03-17T10:40:54Z</time>
      </trkpt>
      <trkpt lat="45.22699" lon="5.99404">
        <ele>1297.4449462891</ele>
        <time>2017-03-17T10:40:56Z</time>
      </trkpt>
      <trkpt lat="45.22698" lon="5.99396">
        <ele>1294.4449462891</ele>
        <time>2017-03-17T10:40:59Z</time>
      </trkpt>
      <trkpt lat="45.22702" lon="5.99389">
        <ele>1295.4449462891</ele>
        <time>2017-03-17T10:41:03Z</time>
      </trkpt>
      <trkpt lat="45.22705" lon="5.99384">
        <ele>1294.4449462891</ele>
        <time>2017-03-17T10:41:07Z</time>
      </trkpt>
      <trkpt lat="45.22711" lon="5.99382">
        <ele>1295.4449462891</ele>
        <time>2017-03-17T10:41:11Z</time>
      </trkpt>
      <trkpt lat="45.22716" lon="5.99382">
        <ele>1295.4449462891</ele>
        <time>2017-03-17T10:41:13Z</time>
      </trkpt>
      <trkpt lat="45.2272" lon="5.99377">
        <ele>1294.4449462891</ele>
        <time>2017-03-17T10:41:18Z</time>
      </trkpt>
      <trkpt lat="45.22725" lon="5.99374">
        <ele>1295.4449462891</ele>
        <time>2017-03-17T10:41:21Z</time>
      </trkpt>
      <trkpt lat="45.22731" lon="5.99374">
        <ele>1292.4449462891</ele>
        <time>2017-03-17T10:41:26Z</time>
      </trkpt>
      <trkpt lat="45.22735" lon="5.99367">
        <ele>1289.4449462891</ele>
        <time>2017-03-17T10:41:31Z</time>
      </trkpt>
      <trkpt lat="45.22739" lon="5.99361">
        <ele>1291.4449462891</ele>
        <time>2017-03-17T10:41:34Z</time>
      </trkpt>
      <trkpt lat="45.2274" lon="5.99355">
        <ele>1291.4449462891</ele>
        <time>2017-03-17T10:41:36Z</time>
      </trkpt>
      <trkpt lat="45.22746" lon="5.99353">
        <ele>1289.4449462891</ele>
        <time>2017-03-17T10:41:40Z</time>
      </trkpt>
      <trkpt lat="45.2275" lon="5.99349">
        <ele>1288.4449462891</ele>
        <time>2017-03-17T10:41:45Z</time>
      </trkpt>
      <trkpt lat="45.22755" lon="5.99345">
        <ele>1288.4449462891</ele>
        <time>2017-03-17T10:41:48Z</time>
      </trkpt>
      <trkpt lat="45.22758" lon="5.99337">
        <ele>1286.4449462891</ele>
        <time>2017-03-17T10:41:51Z</time>
      </trkpt>
      <trkpt lat="45.22762" lon="5.99334">
        <ele>1286.4449462891</ele>
        <time>2017-03-17T10:41:56Z</time>
      </trkpt>
      <trkpt lat="45.22768" lon="5.9933">
        <ele>1286.4449462891</ele>
        <time>2017-03-17T10:42:00Z</time>
      </trkpt>
      <trkpt lat="45.22772" lon="5.99325">
        <ele>1286.4449462891</ele>
        <time>2017-03-17T10:42:03Z</time>
      </trkpt>
      <trkpt lat="45.22777" lon="5.99323">
        <ele>1287.4449462891</ele>
        <time>2017-03-17T10:42:06Z</time>
      </trkpt>
      <trkpt lat="45.22781" lon="5.9932">
        <ele>1284.4449462891</ele>
        <time>2017-03-17T10:42:10Z</time>
      </trkpt>
      <trkpt lat="45.22786" lon="5.99316">
        <ele>1284.4449462891</ele>
        <time>2017-03-17T10:42:14Z</time>
      </trkpt>
      <trkpt lat="45.2279" lon="5.9931">
        <ele>1285.4449462891</ele>
        <time>2017-03-17T10:42:17Z</time>
      </trkpt>
      <trkpt lat="45.22795" lon="5.99309">
        <ele>1284.4449462891</ele>
        <time>2017-03-17T10:42:20Z</time>
      </trkpt>
      <trkpt lat="45.22798" lon="5.99301">
        <ele>1283.4449462891</ele>
        <time>2017-03-17T10:42:25Z</time>
      </trkpt>
      <trkpt lat="45.22803" lon="5.99294">
        <ele>1284.4449462891</ele>
        <time>2017-03-17T10:42:28Z</time>
      </trkpt>
      <trkpt lat="45.22808" lon="5.99287">
        <ele>1284.4449462891</ele>
        <time>2017-03-17T10:42:31Z</time>
      </trkpt>
      <trkpt lat="45.22812" lon="5.99284">
        <ele>1285.4449462891</ele>
        <time>2017-03-17T10:42:34Z</time>
      </trkpt>
      <trkpt lat="45.22819" lon="5.99282">
        <ele>1284.4449462891</ele>
        <time>2017-03-17T10:42:40Z</time>
      </trkpt>
      <trkpt lat="45.22822" lon="5.99276">
        <ele>1284.4449462891</ele>
        <time>2017-03-17T10:42:43Z</time>
      </trkpt>
      <trkpt lat="45.22827" lon="5.99276">
        <ele>1283.4449462891</ele>
        <time>2017-03-17T10:42:47Z</time>
      </trkpt>
      <trkpt lat="45.22832" lon="5.99272">
        <ele>1283.4449462891</ele>
        <time>2017-03-17T10:42:50Z</time>
      </trkpt>
      <trkpt lat="45.22837" lon="5.99269">
        <ele>1281.4449462891</ele>
        <time>2017-03-17T10:42:53Z</time>
      </trkpt>
      <trkpt lat="45.2284" lon="5.99262">
        <ele>1281.4449462891</ele>
        <time>2017-03-17T10:42:56Z</time>
      </trkpt>
      <trkpt lat="45.22844" lon="5.99256">
        <ele>1284.4449462891</ele>
        <time>2017-03-17T10:42:59Z</time>
      </trkpt>
      <trkpt lat="45.22847" lon="5.99249">
        <ele>1284.4449462891</ele>
        <time>2017-03-17T10:43:02Z</time>
      </trkpt>
      <trkpt lat="45.22851" lon="5.99244">
        <ele>1283.4449462891</ele>
        <time>2017-03-17T10:43:06Z</time>
      </trkpt>
      <trkpt lat="45.22856" lon="5.99247">
        <ele>1280.4449462891</ele>
        <time>2017-03-17T10:43:09Z</time>
      </trkpt>
      <trkpt lat="45.2286" lon="5.99242">
        <ele>1279.4449462891</ele>
        <time>2017-03-17T10:43:13Z</time>
      </trkpt>
      <trkpt lat="45.22865" lon="5.99239">
        <ele>1278.4449462891</ele>
        <time>2017-03-17T10:43:17Z</time>
      </trkpt>
      <trkpt lat="45.22869" lon="5.99233">
        <ele>1277.4449462891</ele>
        <time>2017-03-17T10:43:21Z</time>
      </trkpt>
      <trkpt lat="45.22873" lon="5.99228">
        <ele>1278.4449462891</ele>
        <time>2017-03-17T10:43:25Z</time>
      </trkpt>
      <trkpt lat="45.22875" lon="5.99219">
        <ele>1278.4449462891</ele>
        <time>2017-03-17T10:43:28Z</time>
      </trkpt>
      <trkpt lat="45.22879" lon="5.99215">
        <ele>1279.4449462891</ele>
        <time>2017-03-17T10:43:31Z</time>
      </trkpt>
      <trkpt lat="45.22883" lon="5.99209">
        <ele>1280.4449462891</ele>
        <time>2017-03-17T10:43:37Z</time>
      </trkpt>
      <trkpt lat="45.22888" lon="5.99205">
        <ele>1278.4449462891</ele>
        <time>2017-03-17T10:43:41Z</time>
      </trkpt>
      <trkpt lat="45.2289" lon="5.99199">
        <ele>1276.4449462891</ele>
        <time>2017-03-17T10:43:45Z</time>
      </trkpt>
      <trkpt lat="45.22895" lon="5.99193">
        <ele>1274.4449462891</ele>
        <time>2017-03-17T10:43:50Z</time>
      </trkpt>
      <trkpt lat="45.22898" lon="5.99186">
        <ele>1272.4449462891</ele>
        <time>2017-03-17T10:43:55Z</time>
      </trkpt>
      <trkpt lat="45.22902" lon="5.99182">
        <ele>1270.4449462891</ele>
        <time>2017-03-17T10:43:59Z</time>
      </trkpt>
      <trkpt lat="45.22907" lon="5.99178">
        <ele>1270.4449462891</ele>
        <time>2017-03-17T10:44:02Z</time>
      </trkpt>
      <trkpt lat="45.22911" lon="5.99174">
        <ele>1271.4449462891</ele>
        <time>2017-03-17T10:44:05Z</time>
      </trkpt>
      <trkpt lat="45.22914" lon="5.99168">
        <ele>1271.4449462891</ele>
        <time>2017-03-17T10:44:09Z</time>
      </trkpt>
      <trkpt lat="45.22919" lon="5.99163">
        <ele>1274.4449462891</ele>
        <time>2017-03-17T10:44:13Z</time>
      </trkpt>
      <trkpt lat="45.22923" lon="5.99158">
        <ele>1274.4449462891</ele>
        <time>2017-03-17T10:44:18Z</time>
      </trkpt>
      <trkpt lat="45.22927" lon="5.99162">
        <ele>1267.4449462891</ele>
        <time>2017-03-17T10:45:47Z</time>
      </trkpt>
    </trkseg>
  </trk>
</gpx>